[[{"header":{"parameterUnit":"m.s-1","parameterCategory":1,"la1":30.6,"la2":28.766,"lo1":-90.7593,"lo2":-88.6598,"dy":0.0162,"dx":0.0183,"nx":116,"ny":114,"refTime":"2023-09-16T18:00:00:Z","depth":0,"parameterNumber":2,"parameterNumberName":"U-component_of_WINDS"},"data":[0.0,0.0,0.0,0.0,0.0,0.0,0.0,0.0,0.0,0.0,0.0,0.0,0.0,0.0,0.0,0.0,0.0,0.0,0.0,0.0,0.0,0.0,0.0,0.0,0.0,0.0,0.0,0.0,0.0,0.0,0.0,0.0,0.0,0.0,0.0,0.0,0.0,0.0,0.0,0.0,0.0,0.0,0.0,0.0,0.0,0.0,0.0,0.0,0.0,0.0,0.0,0.0,0.0,0.0,0.0,0.0,0.0,0.0,0.0,0.0,0.0,0.0,0.0,0.0,0.0,0.0,0.0,0.0,0.0,0.0,0.0,0.0,0.0,0.0,0.0,0.0,0.0,0.0,0.0,0.0,0.0,0.0,0.0,0.0,0.0,0.0,0.0,0.0,0.0,0.0,0.0,0.0,0.0,0.0,0.0,0.0,0.0,0.0,0.0,0.0,0.0,0.0,0.0,0.0,0.0,0.0,0.0,0.0,0.0,0.0,0.0,0.0,0.0,0.0,0.0,0.0,0.0,0.0,0.0,0.0,0.0,0.0,0.0,0.0,0.0,0.0,0.0,0.0,0.0,0.0,0.0,0.0,0.0,0.0,0.0,0.0,0.0,0.0,0.0,0.0,0.0,0.0,0.0,0.0,0.0,0.0,0.0,0.0,0.0,0.0,0.0,0.0,0.0,0.0,0.0,0.0,0.0,0.0,0.0,0.0,0.0,0.0,0.0,0.0,0.0,0.0,0.0,0.0,0.0,0.0,0.0,0.0,0.0,0.0,0.0,0.0,0.0,0.0,0.0,0.0,0.0,0.0,0.0,0.0,0.0,0.0,0.0,0.0,0.0,0.0,0.0,0.0,0.0,0.0,0.0,0.0,0.0,0.0,0.0,0.0,0.0,0.0,0.0,0.0,0.0,0.0,0.0,0.0,0.0,0.0,0.0,0.0,0.0,0.0,0.0,0.0,0.0,0.0,0.0,0.0,0.0,0.0,0.0,0.0,0.0,0.0,0.0,0.0,0.0,0.0,0.0,0.0,0.0,0.0,0.0,0.0,0.0,0.0,0.0,0.0,0.0,0.0,0.0,0.0,0.0,0.0,0.0,0.0,0.0,0.0,0.0,0.0,0.0,0.0,0.0,0.0,0.0,0.0,0.0,0.0,0.0,0.0,0.0,0.0,0.0,0.0,0.0,0.0,0.0,0.0,0.0,0.0,0.0,0.0,0.0,0.0,0.0,0.0,0.0,0.0,0.0,0.0,0.0,0.0,0.0,0.0,0.0,0.0,0.0,0.0,0.0,0.0,0.0,0.0,0.0,0.0,0.0,0.0,0.0,0.0,0.0,0.0,0.0,0.0,0.0,0.0,0.0,0.0,0.0,0.0,0.0,0.0,0.0,0.0,0.0,0.0,0.0,0.0,0.0,0.0,0.0,0.0,0.0,0.0,0.0,0.0,0.0,0.0,0.0,0.0,0.0,0.0,0.0,0.0,0.0,0.0,0.0,0.0,0.0,0.0,0.0,0.0,0.0,0.0,0.0,0.0,0.0,0.0,0.0,0.0,0.0,0.0,0.0,0.0,0.0,0.0,0.0,0.0,0.0,0.0,0.0,0.0,0.0,0.0,0.0,0.0,0.0,0.0,0.0,0.0,0.0,0.0,0.0,0.0,0.0,0.0,0.0,0.0,0.0,0.0,0.0,0.0,0.0,0.0,0.0,0.0,0.0,0.0,0.0,0.0,0.0,0.0,0.0,0.0,0.0,0.0,0.0,0.0,0.0,0.0,0.0,0.0,0.0,0.0,0.0,0.0,0.0,0.0,0.0,0.0,0.0,0.0,0.0,0.0,0.0,0.0,0.0,0.0,0.0,0.0,0.0,0.0,0.0,0.0,0.0,0.0,0.0,0.0,0.0,0.0,0.0,0.0,0.0,0.0,0.0,0.0,0.0,0.0,0.0,0.0,0.0,0.0,0.0,0.0,0.0,0.0,0.0,0.0,0.0,0.0,0.0,0.0,0.0,0.0,0.0,0.0,0.0,0.0,0.0,0.0,0.0,0.0,0.0,0.0,0.0,0.0,0.0,0.0,0.0,0.0,0.0,0.0,0.0,0.0,0.0,0.0,0.0,0.0,0.0,0.0,0.0,0.0,0.0,0.0,0.0,0.0,0.0,0.0,0.0,0.0,0.0,0.0,0.0,0.0,0.0,0.0,0.0,0.0,0.0,0.0,0.0,0.0,0.0,0.0,0.0,0.0,0.0,0.0,0.0,0.0,0.0,0.0,0.0,0.0,0.0,0.0,0.0,0.0,0.0,0.0,0.0,0.0,0.0,0.0,0.0,0.0,0.0,0.0,0.0,0.0,0.0,0.0,0.0,0.0,0.0,0.0,0.0,0.0,0.0,0.0,0.0,0.0,0.0,0.0,0.0,0.0,0.0,0.0,0.0,0.0,0.0,0.0,0.0,0.0,0.0,0.0,0.0,0.0,0.0,0.0,0.0,0.0,0.0,0.0,0.0,0.0,0.0,0.0,0.0,0.0,0.0,0.0,0.0,0.0,0.0,0.0,0.0,0.0,0.0,0.0,0.0,0.0,0.0,0.0,0.0,0.0,0.0,0.0,0.0,0.0,0.0,0.0,0.0,0.0,0.0,0.0,0.0,0.0,0.0,0.0,0.0,0.0,0.0,0.0,0.0,0.0,0.0,0.0,0.0,0.0,0.0,0.0,0.0,0.0,0.0,0.0,0.0,0.0,0.0,0.0,0.0,0.0,0.0,0.0,0.0,0.0,0.0,0.0,0.0,0.0,0.0,0.0,0.0,0.0,0.0,0.0,0.0,0.0,0.0,0.0,0.0,0.0,0.0,0.0,0.0,0.0,0.0,0.0,0.0,0.0,0.0,0.0,0.0,0.0,0.0,0.0,0.0,0.0,0.0,0.0,0.0,0.0,0.0,0.0,0.0,0.0,0.0,0.0,0.0,0.0,0.0,0.0,0.0,0.0,0.0,0.0,0.0,0.0,0.0,0.0,0.0,0.0,0.0,0.0,0.0,0.0,0.0,0.0,0.0,0.0,0.0,0.0,0.0,0.0,0.0,0.0,0.0,0.0,0.0,0.0,0.0,0.0,0.0,0.0,0.0,0.0,0.0,0.0,0.0,0.0,0.0,0.0,0.0,0.0,0.0,0.0,0.0,0.0,0.0,0.0,0.0,0.0,0.0,0.0,0.0,0.0,0.0,0.0,0.0,0.0,0.0,0.0,0.0,0.0,0.0,0.0,0.0,0.0,0.0,0.0,0.0,0.0,0.0,0.0,0.0,0.0,0.0,0.0,0.0,0.0,0.0,0.0,0.0,0.0,0.0,0.0,0.0,0.0,0.0,0.0,0.0,0.0,0.0,0.0,0.0,0.0,0.0,0.0,0.0,0.0,0.0,0.0,0.0,0.0,0.0,0.0,0.0,0.0,0.0,0.0,0.0,0.0,0.0,0.0,0.0,0.0,0.0,0.0,0.0,0.0,0.0,0.0,0.0,0.0,0.0,0.0,0.0,0.0,0.0,0.0,0.0,0.0,0.0,0.0,0.0,0.0,0.0,0.0,0.0,0.0,0.0,0.0,0.0,0.0,0.0,0.0,0.0,0.0,0.0,0.0,0.0,0.0,0.0,0.0,0.0,0.0,0.0,0.0,0.0,0.0,0.0,0.0,0.0,0.0,0.0,0.0,0.0,0.0,0.0,0.0,0.0,0.0,0.0,0.0,0.0,0.0,0.0,0.0,0.0,0.0,0.0,0.0,0.0,0.0,0.0,0.0,0.0,0.0,0.0,0.0,0.0,0.0,0.0,0.0,0.0,0.0,0.0,0.0,0.0,0.0,0.0,0.0,0.0,0.0,0.0,0.0,0.0,0.0,0.0,0.0,0.0,0.0,0.0,0.0,0.0,0.0,0.0,0.0,0.0,0.0,0.0,0.0,0.0,0.0,0.0,0.0,0.0,0.0,0.0,0.0,0.0,0.0,0.0,0.0,0.0,0.0,0.0,0.0,0.0,0.0,0.0,0.0,0.0,0.0,0.0,0.0,0.0,0.0,0.0,0.0,0.0,0.0,0.0,0.0,0.0,0.0,0.0,0.0,0.0,0.0,0.0,0.0,0.0,0.0,0.0,0.0,0.0,0.0,0.0,0.0,0.0,0.0,0.0,0.0,0.0,0.0,0.0,0.0,0.0,0.0,0.0,0.0,0.0,0.0,0.0,0.0,0.0,0.0,0.0,0.0,0.0,0.0,0.0,0.0,0.0,0.0,0.0,0.0,0.0,0.0,0.0,0.0,0.0,0.0,0.0,0.0,0.0,0.0,0.0,0.0,0.0,0.0,0.0,0.0,0.0,0.0,0.0,0.0,0.0,0.0,0.0,0.0,0.0,0.0,0.0,0.0,0.0,0.0,0.0,0.0,0.0,0.0,0.0,0.0,0.0,0.0,0.0,0.0,0.0,0.0,0.0,0.0,0.0,0.0,0.0,0.0,0.0,0.0,0.0,0.0,0.0,0.0,0.0,0.0,0.0,0.0,0.0,0.0,0.0,0.0,0.0,0.0,0.0,0.0,0.0,0.0,0.0,0.0,0.0,0.0,0.0,0.0,0.0,0.0,0.0,0.0,0.0,0.0,0.0,0.0,0.0,0.0,0.0,0.0,0.0,0.0,0.0,0.0,0.0,0.0,0.0,0.0,0.0,0.0,0.0,0.0,0.0,0.0,0.0,0.0,0.0,0.0,0.0,0.0,0.0,0.0,0.0,0.0,0.0,0.0,0.0,0.0,0.0,0.0,0.0,0.0,0.0,0.0,0.0,0.0,0.0,0.0,0.0,0.0,0.0,0.0,0.0,0.0,0.0,0.0,0.0,0.0,0.0,0.0,0.0,0.0,0.0,0.0,0.0,0.0,0.0,0.0,0.0,0.0,0.0,0.0,0.0,0.0,0.0,0.0,0.0,0.0,0.0,0.0,0.0,0.0,0.0,0.0,0.0,0.0,0.0,0.0,0.0,0.0,0.0,0.0,0.0,0.0,0.0,0.0,0.0,0.0,0.0,0.0,0.0,0.0,0.0,0.0,0.0,0.0,0.0,0.0,0.0,0.0,0.0,0.0,0.0,0.0,0.0,0.0,0.0,0.0,0.0,0.0,0.0,0.0,0.0,0.0,0.0,0.0,0.0,0.0,0.0,0.0,0.0,0.0,0.0,0.0,0.0,0.0,0.0,0.0,0.0,0.0,0.0,0.0,0.0,0.0,0.0,0.0,0.0,0.0,0.0,0.0,0.0,0.0,0.0,0.0,0.0,0.0,0.0,0.0,0.0,0.0,0.0,0.0,0.0,0.0,0.0,0.0,0.0,0.0,0.0,0.0,0.0,0.0,0.0,0.0,0.0,0.0,0.0,0.0,0.0,0.0,0.0,0.0,0.0,0.0,0.0,0.0,0.0,0.0,0.0,0.0,0.0,0.0,0.0,0.0,0.0,0.0,0.0,0.0,0.0,0.0,0.0,0.0,0.0,0.0,0.0,0.0,0.0,0.0,0.0,0.0,0.0,0.0,0.0,0.0,0.0,0.0,0.0,0.0,0.0,0.0,0.0,0.0,0.0,0.0,0.0,0.0,0.0,0.0,0.0,0.0,0.0,0.0,0.0,0.0,0.0,0.0,0.0,0.0,0.0,0.0,0.0,0.0,0.0,0.0,0.0,0.0,0.0,0.0,0.0,0.0,0.0,0.0,0.0,0.0,0.0,0.0,0.0,0.0,0.0,0.0,0.0,0.0,0.0,0.0,0.0,0.0,0.0,0.0,0.0,0.0,0.0,0.0,0.0,0.0,0.0,0.0,0.0,0.0,0.0,0.0,0.0,0.0,0.0,0.0,0.0,0.0,0.0,0.0,0.0,0.0,0.0,0.0,0.0,0.0,0.0,0.0,0.0,0.0,0.0,0.0,0.0,0.0,0.0,0.0,0.0,0.0,0.0,0.0,0.0,0.0,0.0,0.0,0.0,0.0,0.0,0.0,0.0,0.0,0.0,0.0,0.0,0.0,0.0,0.0,0.0,0.0,0.0,0.0,0.0,0.0,0.0,0.0,0.0,0.0,0.0,0.0,-2.3418,0.0,0.0,0.0,0.0,0.0,0.0,0.0,0.0,0.0,0.0,0.0,0.0,0.0,0.0,0.0,0.0,0.0,0.0,0.0,0.0,0.0,0.0,0.0,0.0,0.0,0.0,0.0,0.0,0.0,0.0,0.0,0.0,0.0,0.0,0.0,0.0,0.0,0.0,-1.907,-1.926,-1.9338,-1.9311,-1.8435,-1.8016,-1.8016,0.0,0.0,0.0,0.0,0.0,0.0,0.0,0.0,0.0,0.0,0.0,0.0,0.0,0.0,0.0,0.0,0.0,0.0,0.0,0.0,0.0,0.0,0.0,0.0,0.0,0.0,0.0,0.0,0.0,0.0,0.0,0.0,0.0,0.0,0.0,0.0,0.0,0.0,0.0,0.0,0.0,0.0,0.0,0.0,0.0,0.0,0.0,0.0,0.0,0.0,0.0,0.0,0.0,0.0,0.0,0.0,0.0,0.0,0.0,0.0,0.0,0.0,0.0,0.0,0.0,0.0,0.0,0.0,0.0,0.0,0.0,-2.2899,0.0,0.0,0.0,0.0,0.0,0.0,0.0,0.0,0.0,0.0,0.0,0.0,0.0,0.0,0.0,0.0,0.0,0.0,0.0,0.0,0.0,0.0,0.0,-1.7608,-1.7608,-1.7608,-1.7608,-1.7608,0.0,0.0,0.0,0.0,0.0,0.0,-1.8089,-1.8333,-1.8557,-1.8837,-1.8891,-1.8834,-1.8672,-1.8672,-1.8672,-1.8637,-1.8537,0.0,0.0,0.0,0.0,0.0,0.0,0.0,0.0,0.0,0.0,0.0,0.0,0.0,0.0,0.0,0.0,0.0,0.0,0.0,0.0,0.0,0.0,0.0,0.0,0.0,0.0,0.0,0.0,0.0,0.0,0.0,0.0,0.0,0.0,0.0,0.0,0.0,0.0,0.0,0.0,0.0,0.0,0.0,0.0,0.0,0.0,0.0,0.0,0.0,0.0,0.0,0.0,0.0,0.0,0.0,0.0,0.0,0.0,0.0,0.0,0.0,0.0,0.0,-2.5283,-2.5161,-2.5161,-2.5161,-2.4409,-2.317,-2.317,-2.2372,-2.1109,0.0,0.0,0.0,0.0,0.0,0.0,0.0,0.0,0.0,0.0,0.0,0.0,0.0,0.0,0.0,0.0,0.0,0.0,0.0,0.0,0.0,0.0,-1.7608,-1.7608,-1.7608,-1.7608,-1.7608,-1.7608,0.0,0.0,0.0,0.0,0.0,-1.8424,-1.9563,-2.0197,-2.0233,-2.0457,-2.0139,-1.9281,-1.9281,-1.9281,-1.9261,-1.8718,-1.849,-1.849,0.0,0.0,0.0,0.0,0.0,0.0,0.0,0.0,0.0,0.0,0.0,0.0,0.0,0.0,0.0,0.0,0.0,0.0,0.0,0.0,0.0,0.0,0.0,0.0,0.0,0.0,0.0,0.0,0.0,0.0,0.0,0.0,0.0,0.0,0.0,0.0,0.0,0.0,0.0,0.0,0.0,-2.0344,-2.1941,0.0,0.0,0.0,0.0,0.0,0.0,0.0,0.0,0.0,0.0,0.0,0.0,0.0,-2.6219,-2.6006,-2.4594,-2.3907,-2.3907,-2.2428,-2.1751,-2.1751,-2.1751,-2.1625,-2.1418,-2.1418,0.0,-2.1109,-2.1109,0.0,0.0,0.0,0.0,0.0,0.0,0.0,0.0,0.0,0.0,0.0,0.0,0.0,0.0,0.0,0.0,0.0,0.0,0.0,0.0,0.0,-1.7608,-1.7608,-1.7608,-1.7608,-1.7608,-1.7608,-1.7749,0.0,0.0,0.0,-1.843,-1.8731,-1.9298,-1.9675,-1.9878,-1.9983,-1.9822,-1.9395,-1.9395,-1.9395,-1.9388,-1.9127,-1.9013,-1.9,-1.8804,0.0,0.0,0.0,0.0,0.0,0.0,0.0,0.0,0.0,0.0,0.0,0.0,0.0,0.0,0.0,0.0,0.0,0.0,0.0,0.0,0.0,0.0,0.0,0.0,0.0,0.0,0.0,0.0,0.0,0.0,0.0,0.0,0.0,0.0,0.0,0.0,0.0,0.0,0.0,-2.0692,-2.1358,-2.1465,-2.3643,-2.549,0.0,0.0,0.0,0.0,0.0,0.0,0.0,0.0,0.0,-2.4686,-2.4655,-2.4193,-2.3248,-2.2553,-2.2191,-2.2191,-2.145,-2.1109,-2.1109,-2.1109,-2.1109,-2.1109,-2.1109,-2.1109,-2.1109,-2.1109,-2.1109,-2.1109,0.0,0.0,0.0,0.0,-2.1109,-2.1069,0.0,0.0,0.0,0.0,0.0,0.0,0.0,0.0,0.0,0.0,0.0,0.0,-1.634,-1.6499,-1.6504,-1.6546,-1.6932,-1.7184,-1.7201,-1.778,-1.8169,-1.8243,-1.8456,-1.8738,-1.9032,-1.9038,-1.9145,-1.9395,-1.9395,-1.9395,-1.9395,-1.9395,-1.9395,-1.9395,-1.9395,-1.9395,-1.9381,-1.9132,-1.9038,-1.9018,0.0,0.0,0.0,0.0,0.0,0.0,0.0,0.0,0.0,0.0,0.0,0.0,0.0,0.0,0.0,0.0,0.0,0.0,0.0,0.0,0.0,0.0,0.0,0.0,0.0,0.0,0.0,0.0,0.0,0.0,0.0,0.0,0.0,0.0,0.0,0.0,0.0,-2.1329,-2.1745,-2.0904,-2.3216,-2.4994,0.0,0.0,0.0,0.0,0.0,0.0,-2.5383,-2.5383,-2.4655,-2.3021,-2.2959,-2.2372,-2.1109,-2.1109,-2.1109,-2.1109,-2.1109,-2.1109,-2.1109,-2.1109,-2.1109,-2.1109,-2.1109,-2.1109,-2.1109,-2.1109,-2.1109,-2.1109,-2.1109,-2.1109,-2.1109,-2.1109,-2.1109,-2.1076,0.0,0.0,0.0,0.0,0.0,0.0,0.0,0.0,0.0,0.0,0.0,-1.1892,-1.3372,-1.3507,-1.3568,-1.3706,-1.5097,-1.603,-1.6173,-1.7627,-1.8591,-1.8843,-1.8863,-1.9045,-1.9368,-1.9374,-1.9381,-1.9395,-1.9395,-1.9395,-1.9395,-1.9395,-1.9395,-1.9395,-1.9395,-1.9395,-1.9395,-1.9381,-1.9374,-1.9374,-1.9361,0.0,0.0,0.0,0.0,0.0,0.0,0.0,0.0,0.0,0.0,0.0,0.0,0.0,0.0,0.0,0.0,0.0,0.0,0.0,0.0,0.0,0.0,0.0,0.0,0.0,0.0,0.0,0.0,0.0,0.0,0.0,0.0,0.0,0.0,0.0,0.0,0.0,0.0,-2.1056,-2.2625,0.0,0.0,0.0,0.0,-2.6006,-2.4632,-2.3721,-2.3721,-2.3721,-2.2959,-2.1292,-2.1229,-2.1204,-2.1109,-2.1109,-2.1109,-2.1109,-2.1109,-2.1109,-2.1109,-2.1109,-2.1109,-2.1109,-2.1109,-2.1109,-2.1109,-2.1109,-2.1109,-2.1109,-2.1109,-2.1109,-2.1109,-2.1109,-2.1109,-2.1109,0.0,0.0,0.0,0.0,0.0,0.0,0.0,0.0,-1.0021,-1.0973,-1.1105,-1.1695,-1.3247,-1.3432,-1.349,-1.3617,-1.5099,-1.6043,-1.6108,-1.7769,-1.879,-1.889,-1.9112,-1.9287,-1.9395,-1.9395,-1.9395,-1.9395,-1.9395,-1.9395,-1.9395,-1.9395,-1.9395,-1.9395,-1.9395,-1.9395,-1.9395,-1.9395,-1.9395,-1.9395,-1.9395,-1.9395,0.0,0.0,0.0,0.0,0.0,0.0,0.0,0.0,0.0,0.0,0.0,0.0,0.0,0.0,0.0,0.0,0.0,0.0,0.0,0.0,0.0,0.0,0.0,0.0,0.0,0.0,0.0,0.0,0.0,0.0,0.0,0.0,0.0,0.0,0.0,0.0,0.0,-2.1096,-2.1632,0.0,-2.3512,-2.2623,-2.2678,-2.4324,-2.292,-2.2003,-2.2003,-2.2003,-2.1727,-2.1109,-2.1109,-2.1109,-2.1109,-2.1109,-2.1109,-2.1109,-2.1109,-2.1109,-2.1109,-2.1109,-2.1109,-2.1109,-2.1109,-2.1109,-2.1109,-2.1109,-2.1109,-2.1109,-2.1109,-2.1109,-2.1109,-2.1109,-2.1109,-2.1109,0.0,0.0,0.0,0.0,0.0,0.0,0.0,0.0,-0.942,-1.0412,-1.0524,-1.0927,-1.1995,-1.2121,-1.2169,-1.2303,-1.3781,-1.4731,-1.4782,-1.6972,-1.8272,-1.8272,-1.8992,-1.9395,-1.9395,-1.9395,-1.9395,-1.9395,-1.9395,-1.9395,-1.9395,-1.9395,-1.9395,-1.9395,-1.9395,-1.9448,-1.9542,-1.9542,-1.9488,-1.9395,-1.9395,-1.9395,-1.9395,0.0,0.0,0.0,0.0,0.0,0.0,0.0,0.0,0.0,0.0,0.0,0.0,0.0,0.0,0.0,0.0,0.0,0.0,0.0,0.0,0.0,0.0,0.0,0.0,0.0,0.0,0.0,0.0,0.0,0.0,0.0,0.0,0.0,0.0,0.0,-2.1109,-2.1109,-2.1109,-2.1544,-2.2654,-2.1758,-2.1576,-2.2685,-2.1727,-2.1109,-2.1109,-2.1109,-2.1109,-2.1109,-2.1109,-2.1109,-2.1109,-2.1109,-2.1109,-2.1109,-2.1109,-2.1109,-2.1109,-2.1109,-2.1109,-2.1109,-2.1109,-2.1109,-2.1109,-2.1109,-2.1109,-2.1109,-2.1109,-2.1109,-2.1109,-2.1109,-2.1109,-2.1109,0.0,0.0,0.0,0.0,0.0,0.0,0.0,-0.941,-0.941,-0.941,-0.941,-0.9413,-0.9417,-0.9417,-0.9449,-0.9602,-1.1071,-1.2048,-1.22,-1.5158,-1.6938,-1.6938,-1.8409,-1.9272,-1.9307,-1.9336,-1.9336,-1.9395,-1.9395,-1.9395,-1.9395,-1.9408,-1.9408,-1.9408,-1.9421,-1.9582,-1.9813,-1.9813,-1.9653,-1.9421,-1.9421,-1.9421,-1.9421,0.0,0.0,0.0,0.0,0.0,0.0,0.0,0.0,0.0,0.0,0.0,0.0,0.0,0.0,0.0,0.0,0.0,0.0,0.0,0.0,0.0,0.0,0.0,0.0,0.0,0.0,0.0,0.0,0.0,0.0,0.0,0.0,0.0,-2.1109,-2.1109,-2.1109,-2.1109,-2.1109,-2.1109,-2.1109,-2.1109,-2.1109,-2.1109,-2.1109,-2.1109,-2.1109,-2.1109,-2.1109,-2.1109,-2.1109,-2.1109,-2.1109,-2.1109,-2.1109,-2.1109,-2.1109,-2.1109,-2.1109,-2.1109,-2.1109,-2.1109,-2.1109,-2.1109,-2.1109,-2.1109,-2.1109,-2.1109,-2.1109,-2.1109,-2.1109,-2.1109,-2.1109,-2.1109,0.0,0.0,0.0,0.0,0.0,0.0,-0.941,-0.941,-0.941,-0.941,-0.941,-0.9422,-0.9534,-0.9547,-0.9605,-0.9721,-1.1217,-1.2158,-1.2209,-1.4118,-1.5252,-1.5252,-1.5671,-1.6474,-1.7624,-1.7653,-1.8221,-1.9395,-1.9395,-1.9395,-1.9401,-1.9615,-1.9679,-1.9693,-1.99,-2.001,-2.0084,-2.0084,-2.0037,-1.9993,-1.9993,-1.9993,-1.9993,0.0,0.0,0.0,0.0,0.0,0.0,0.0,0.0,0.0,0.0,0.0,0.0,0.0,0.0,0.0,0.0,0.0,0.0,0.0,0.0,0.0,0.0,0.0,0.0,0.0,0.0,0.0,0.0,0.0,0.0,0.0,0.0,-2.1109,-2.1109,-2.1109,-2.1109,-2.1109,-2.1109,-2.1109,-2.1109,-2.1109,-2.1109,-2.1109,-2.1109,-2.1109,-2.1109,-2.1109,-2.1109,-2.1109,-2.1109,-2.1109,-2.1109,-2.1109,-2.1109,-2.1109,-2.1109,-2.1109,-2.1109,-2.1109,-2.1109,-2.1109,-2.1109,-2.1109,-2.1109,-2.1109,-2.1109,-2.1109,-2.1109,-2.1109,-2.1109,-2.1109,-2.1109,-2.1109,0.0,0.0,0.0,0.0,0.0,0.0,-0.9475,-0.9564,-0.9564,-0.9564,-0.9564,-0.9598,-0.969,-0.9696,-0.97,-0.9785,-1.066,-1.1197,-1.1197,-1.2693,-1.3889,-1.4574,-1.4604,-1.5044,-1.5961,-1.6668,-1.7449,-1.8402,-1.9187,-1.9575,-1.9582,-1.9846,-1.998,-1.9957,-2.0124,-2.027,-2.0421,-2.0421,-2.0457,-2.057,-2.057,-2.0424,-2.0204,-2.0204,-2.0204,-2.0204,-2.0204,-2.0284,-2.0421,-2.0421,0.0,0.0,0.0,0.0,0.0,0.0,0.0,0.0,0.0,0.0,0.0,0.0,0.0,0.0,0.0,0.0,0.0,0.0,0.0,0.0,0.0,0.0,0.0,0.0,-2.1109,-2.1109,-2.1109,-2.1109,-2.1109,-2.1109,-2.1109,-2.1109,-2.1109,-2.1109,-2.1109,-2.1109,-2.1109,-2.1109,-2.1109,-2.1109,-2.1109,-2.1109,-2.1109,-2.1109,-2.1109,-2.1109,-2.1109,-2.1109,-2.1109,-2.1109,-2.1109,-2.1109,-2.1109,0.0,-2.1109,-2.1109,-2.1109,-2.1109,-2.1109,0.0,0.0,0.0,0.0,0.0,-2.1109,-2.1109,0.0,0.0,0.0,0.0,0.0,0.0,-0.9022,-0.9238,-0.9238,-0.9238,-0.9238,-0.9329,-0.9515,-0.9542,-0.9606,-0.9792,-0.9792,-0.9792,-0.9792,-1.114,-1.2573,-1.4004,-1.4068,-1.4153,-1.4336,-1.5725,-1.6562,-1.6738,-1.8422,-1.9235,-1.9274,-1.9529,-1.9781,-1.997,-2.0003,-2.029,-2.0759,-2.0759,-2.0875,-2.1109,-2.1109,-2.0795,-2.0304,-2.0304,-2.0304,-2.0304,-2.0304,-2.0501,-2.0759,-2.0759,0.0,0.0,0.0,0.0,0.0,0.0,0.0,0.0,0.0,0.0,0.0,0.0,0.0,0.0,0.0,0.0,0.0,0.0,0.0,0.0,0.0,0.0,0.0,0.0,-2.1109,-2.1109,-2.1109,-2.1109,-2.1109,-2.1109,-2.1109,-2.1109,-2.1109,-2.1109,-2.1109,-2.1109,-2.1109,-2.1109,-2.1109,0.0,0.0,0.0,0.0,-2.1109,-2.1109,-2.1109,-2.1109,-2.1109,-2.1109,-2.1109,-2.1109,-2.1109,-2.1109,-2.1109,-2.1109,-2.1109,-2.1109,-2.1109,-2.1109,-2.1109,-2.1109,-2.1109,-2.1109,-2.1109,-2.0976,-2.0817,0.0,0.0,0.0,0.0,0.0,0.0,-0.5804,-0.5835,-0.5835,-0.5835,-0.5835,-0.6355,-0.7728,-0.785,-0.8374,-0.9697,-0.9792,-0.9792,-0.9792,-1.0092,-1.0391,-1.0721,-1.0721,-1.1348,-1.2633,-1.2958,-1.3812,-1.5214,-1.5593,-1.5807,-1.5936,-1.6269,-1.7166,-1.8503,-1.8713,-1.9644,-2.1029,-2.1029,-2.1056,-2.1109,-2.1109,-2.1042,-2.0942,-2.0942,-2.0942,-2.0942,-2.0942,-2.0975,-2.1029,-2.1029,-2.1062,-2.1109,-2.1109,-2.1109,0.0,0.0,0.0,0.0,0.0,0.0,0.0,0.0,0.0,0.0,0.0,0.0,0.0,0.0,0.0,0.0,0.0,0.0,0.0,-2.1109,-2.1109,-2.1109,-2.1109,-2.1109,-2.1109,-2.1109,-2.1109,-2.1109,-2.1109,-2.1109,-2.1109,-2.1109,-2.1109,-2.1109,-2.1109,-2.1109,-2.1109,-2.1109,-2.1109,-2.1109,-2.1109,-2.1109,-2.1109,-2.1109,0.0,0.0,-2.1109,-2.1109,-2.1109,-2.1109,-2.1109,-2.1109,-2.1109,-2.1109,-2.1109,-2.1109,-2.1109,-2.1109,-2.1109,-2.1109,-2.0195,-1.8992,0.0,0.0,0.0,0.0,0.0,0.0,-0.4763,-0.4885,-0.4885,-0.4885,-0.4885,-0.5223,-0.6047,-0.6139,-0.6811,-0.8465,-0.9329,-0.9792,-0.9792,-0.9792,-0.9792,-0.9792,-0.9792,-1.0183,-1.0989,-1.1796,-1.2664,-1.3586,-1.4574,-1.5108,-1.5271,-1.555,-1.6168,-1.7009,-1.7124,-1.7667,-1.8506,-1.8506,-1.8506,-1.857,-1.9445,-1.9285,-1.8704,-2.0424,-2.1109,-2.1109,-2.1109,-2.1109,-2.1109,-2.1109,-2.1109,-2.1109,-2.1109,-2.1109,-2.1109,0.0,0.0,0.0,0.0,0.0,0.0,0.0,0.0,0.0,0.0,0.0,0.0,0.0,0.0,-1.9807,0.0,0.0,-1.8768,-1.9642,-1.9062,-1.88,-1.9674,-1.9056,-1.9158,-2.0881,-2.1109,-2.1109,-2.1109,-2.1109,-2.1109,-2.1109,-2.1109,-2.0716,-1.9839,-2.0621,-2.0684,-1.9839,-2.0652,-2.1109,-2.1109,-2.1109,-2.1109,-2.1109,-2.1109,-2.1109,-2.1109,-2.1109,-2.1109,-2.1046,-2.0164,-2.0297,-2.1046,-2.0164,-1.9285,-1.8506,-1.8506,-1.903,-1.9674,-1.8832,-1.7956,-1.7211,0.0,0.0,0.0,0.0,0.0,0.0,0.0,-0.3936,-0.3936,-0.3936,-0.3936,-0.4059,-0.4395,-0.4426,-0.5098,-0.678,-0.8099,-0.8991,-0.9295,-0.9329,-0.9481,-0.9792,-0.9792,-0.9792,-0.9792,-1.1111,-1.1851,-1.2003,-1.3599,-1.4426,-1.4574,-1.4804,-1.5074,-1.5399,-1.5399,-1.5594,-1.5913,-1.5913,-1.5913,-1.601,-1.7436,-1.7146,-1.621,-1.9024,-2.01,-2.01,-2.01,-2.01,-2.0132,-2.0494,-2.0589,-2.0589,-2.0589,-2.0589,-2.0589,-2.0589,-2.0589,0.0,0.0,0.0,0.0,0.0,0.0,0.0,0.0,0.0,-2.01,-2.01,-1.896,-1.7988,-1.7988,-1.6856,-1.6372,-1.7763,-1.6824,-1.6404,-1.7795,-1.6791,-1.6953,-1.9776,-2.0392,-2.0589,-2.0589,-2.0589,-2.0456,-2.0132,-2.01,-1.9483,-1.8052,-1.9323,-1.9451,-1.8052,-1.9355,-2.01,-2.01,-2.01,-2.01,-2.01,-2.01,-2.01,-2.01,-2.01,-2.01,-1.9998,-1.8602,-1.88,-1.9966,-1.857,-1.7178,-1.5881,-1.5524,-1.6237,-1.7371,-1.6302,-1.5691,-1.5399,0.0,0.0,0.0,0.0,0.0,0.0,0.0,0.0,-0.0555,-0.0555,-0.0555,-0.111,-0.2616,-0.277,-0.3414,-0.5039,-0.5345,-0.608,-0.7576,-0.7667,-0.831,-0.9731,-0.9792,-0.9792,-0.9792,-1.0105,-1.0346,-1.0538,-1.0874,-1.1124,-1.1248,-1.1266,-1.2121,-1.3582,-1.3582,-1.4456,-1.5913,-1.5913,-1.5913,-1.5918,-1.6108,-1.6075,-1.5946,-1.6334,-1.6463,-1.6463,-1.6463,-1.6463,-1.6727,-1.8282,-1.88,-1.88,-1.88,-1.88,-1.88,-1.88,-1.88,-1.9126,-2.0684,-1.9966,-1.841,-1.6856,-1.6334,-1.6237,0.0,0.0,-1.6463,-1.6463,-1.6339,-1.6205,-1.6205,-1.6043,-1.5946,-1.6172,-1.6048,-1.5978,-1.6172,-1.601,-1.6043,-1.6436,-1.7859,-1.88,-1.88,-1.88,-1.8148,-1.6592,-1.6463,-1.6404,-1.6205,-1.6366,-1.6404,-1.6205,-1.6366,-1.6463,-1.6463,-1.6463,-1.6463,-1.6463,-1.6463,-1.6463,-1.6463,-1.6463,-1.6463,-1.6468,-1.6269,-1.6302,-1.6468,-1.6269,-1.6075,-1.5751,-1.4199,-1.3713,-1.4036,-1.5394,-1.4912,-1.3582,0.0,0.0,0.0,0.0,0.0,0.0,0.0,0.0,0.0,0.0,0.0,-0.0278,-0.0956,-0.191,-0.277,-0.3445,-0.4366,-0.5192,-0.5894,-0.6872,-0.7698,-0.8374,-0.9295,-0.9792,-0.9792,-0.994,-1.0096,-1.0312,-1.0422,-1.0571,-1.0688,-1.0688,-1.1078,-1.1795,-1.1795,-1.2186,-1.2865,-1.2865,-1.2865,-1.2964,-1.397,-1.3774,-1.2964,-1.4003,-1.3746,-1.3128,-1.5172,-1.5913,0.0,-1.6754,-1.6985,-1.6985,-1.6985,-1.6985,-1.6985,-1.6985,-1.6985,-1.7146,-1.7891,-1.6791,-1.5529,-1.5816,-1.5139,-1.4651,-1.5654,-1.5913,-1.5913,-1.5913,-1.5107,-1.4395,-1.4395,-1.355,-1.3193,0.0,-1.355,-1.3226,-1.4232,-1.3517,-1.3259,-1.4264,-1.5042,-1.5881,-1.6888,-1.6985,-1.6695,-1.5951,-1.5913,-1.5464,-1.4423,-1.5367,-1.5432,-1.4428,-1.5362,-1.5913,-1.5913,-1.5913,-1.5913,-1.5913,-1.5913,-1.5913,-1.5913,-1.5913,-1.5367,-1.4423,-1.5464,-1.4749,-1.2964,-1.397,-1.3779,-1.2804,-1.2055,-1.1795,-1.1894,-1.261,-1.2413,-1.1795,0.0,0.0,0.0,0.0,0.0,0.0,0.0,0.0,0.0,0.0,0.0,0.0,0.0,-0.1079,-0.1817,-0.1817,-0.2862,-0.3751,-0.4212,-0.5372,-0.6259,-0.6689,-0.8282,-0.9143,-0.9143,-0.9761,-1.0136,-1.0312,-1.0466,-1.0612,-1.0688,-1.0688,-1.0688,-1.0688,-1.0688,-1.0688,-1.0688,-1.0688,-1.0688,-1.0817,-1.2055,-1.1828,-1.085,-1.2088,-1.1795,-1.1045,-1.355,-1.446,-1.4553,-1.5009,-1.5167,-1.5167,-1.5167,-1.5167,-1.5167,-1.5167,-1.5524,-1.5789,-1.5302,-1.4264,-1.3484,-1.4264,-1.3517,-1.2898,-1.4166,-1.446,-1.446,-1.446,-1.3451,-1.2574,-1.2574,-1.1534,-1.1111,-1.238,-1.1534,-1.1144,-1.2413,-1.1505,-1.1178,-1.2446,-1.2574,-1.3095,-1.433,-1.4912,-1.4977,-1.4488,-1.446,-1.3905,-1.2639,-1.3774,-1.3905,-1.2606,-1.3807,-1.446,-1.446,-1.446,-1.446,-1.446,-1.446,-1.446,-1.446,-1.446,-1.3774,-1.2639,-1.3905,-1.3029,-1.0784,-1.2055,-1.1828,-1.0688,-1.0688,-1.0688,-1.0688,-1.0688,-1.0688,-1.0688,0.0,0.0,0.0,0.0,0.0,0.0,0.0,0.0,0.0,0.0,0.0,0.0,0.0,-0.0031,-0.0062,-0.0062,-0.0123,-0.0833,-0.2462,-0.2616,-0.3353,-0.4916,-0.6566,-0.7482,-0.7482,-0.9324,-1.0276,-1.0312,-1.0571,-1.0714,-1.0688,-1.0688,-1.0688,-1.0688,-1.0688,-1.0688,-1.0688,-1.0688,-1.0688,-1.0688,-1.075,-1.0754,-1.0721,-1.075,-1.0754,-1.0721,-1.0817,-1.085,-1.1111,-1.2804,-1.3386,-1.3386,-1.3386,-1.3386,-1.3386,-1.3386,-1.4586,-1.5524,-1.3844,-1.3357,-1.2902,-1.1273,-1.0817,-1.0787,-1.085,-1.085,-1.085,-1.085,-1.0817,-1.0787,-1.0787,-1.0754,-1.0721,-1.0784,-1.0721,-1.0721,-1.0784,-1.0721,-1.0717,-1.0784,-1.0787,-1.0784,0.0,-1.238,-1.2672,-1.0979,-1.085,-1.0817,-1.0787,-1.0817,-1.0817,-1.0787,-1.0817,-1.085,-1.085,-1.085,-1.085,-1.085,-1.085,-1.085,-1.085,-1.085,-1.0817,-1.0787,-1.0817,-1.0784,-1.0688,-1.075,-1.0754,-1.0688,-1.0688,-1.0688,-1.0688,-1.0688,-1.0688,-1.0688,0.0,0.0,0.0,0.0,0.0,0.0,0.0,0.0,0.0,0.0,0.0,0.0,0.0,0.0,0.0,0.0,0.0,-0.0247,-0.0802,-0.1879,-0.2739,-0.3291,-0.4884,-0.5741,-0.5741,-0.7547,-0.8549,-0.8634,-0.9948,-1.0619,-1.0688,-1.0688,-1.0688,-1.0688,-1.0688,-1.0688,-1.0688,-1.0688,-1.0688,-1.0688,-1.0688,-1.0688,-1.0688,-1.0688,-1.0688,-1.0688,0.0,-1.0688,-1.0787,-1.1372,-1.1567,-1.1567,-1.1567,-1.1567,-1.1567,-1.1567,-1.1989,-1.2314,-1.1729,-1.1567,-1.1435,-1.085,-1.0688,-1.0688,-1.0688,-1.0688,-1.0688,-1.0688,-1.0688,-1.0688,-1.0688,-1.0688,-1.0688,-1.0688,-1.0688,-1.0688,-1.0688,-1.0688,-1.0688,-1.0688,-1.0688,0.0,0.0,0.0,0.0,-1.0754,-1.0688,-1.0688,-1.0688,-1.0688,-1.0688,-1.0688,-1.0688,-1.0688,-1.0688,-1.0688,-1.0688,-1.0688,-1.0688,-1.0688,-1.0688,-1.0688,-1.0688,-1.0688,-1.0688,-1.0688,-1.0688,-1.0688,-1.0688,-1.0688,-1.0688,-1.0688,-1.0688,-1.0688,-1.0688,-1.0688,0.0,0.0,0.0,0.0,0.0,0.0,0.0,0.0,0.0,0.0,0.0,0.0,0.0,0.0,0.0,0.0,0.0,0.0,0.0,-0.1017,-0.1602,-0.1602,-0.3168,-0.4027,-0.4027,-0.5796,-0.6733,-0.6835,-0.8073,-0.8716,-0.8809,-0.8809,-0.8809,-0.8809,-0.8809,-0.8809,-0.8809,-0.8809,-0.9175,-0.9742,-0.9742,-1.0114,-1.0688,-1.0688,-1.0688,0.0,-1.0688,-1.0688,-1.0688,-1.0688,-1.0688,-1.0688,-1.0688,-1.0688,-1.0688,-1.0688,-1.0688,-1.0688,-1.0688,-1.0688,-1.0688,-1.0688,-1.0688,-1.0688,-1.0688,-1.0688,-1.0688,-1.0688,-1.0688,-1.0688,-1.0688,-1.0688,-1.0688,-1.0688,-1.0688,-1.0688,-1.0688,-1.0688,-1.0688,-1.0688,-1.0688,-1.0688,0.0,0.0,0.0,-1.0688,-1.0688,-1.0688,-1.0688,-1.0688,-1.0688,-1.0688,-1.0688,-1.0688,-1.0688,-1.0688,-1.0688,-1.0688,-1.0688,-1.0688,-1.0688,-1.0688,-1.0688,-1.0688,-1.0688,-1.0688,-1.0688,-1.0688,-1.0688,-1.0688,-1.0688,-1.0688,-1.0688,-1.0688,-1.0688,-1.0688,0.0,0.0,0.0,0.0,0.0,0.0,0.0,0.0,0.0,0.0,0.0,0.0,0.0,0.0,0.0,0.0,0.0,0.0,0.0,0.0,0.0,0.0,-0.151,-0.2371,-0.2371,-0.4081,-0.4959,-0.4969,-0.524,-0.5383,-0.539,-0.5396,-0.5397,-0.5397,-0.5397,-0.5397,-0.5397,-0.5397,-0.6398,-0.7997,-0.7997,-0.9072,-1.0688,-1.0688,-1.0688,-1.0688,-1.0688,-1.0688,-1.0688,-1.0688,-1.0688,-1.0688,-1.0688,-1.0688,-1.0688,-1.0688,-1.0688,-1.0688,-1.0688,-1.0688,-1.0688,-1.0688,-1.0688,-1.0688,-1.0688,-1.0688,-1.0688,-1.0688,-1.0688,-1.0688,0.0,0.0,-1.0688,-1.0688,-1.0688,-1.0688,-1.0688,-1.0688,-1.0688,0.0,0.0,0.0,0.0,0.0,0.0,-1.0688,0.0,-1.0688,-1.0688,-1.0688,-1.0688,-1.0688,-1.0688,-1.0688,-1.0688,-1.0688,-1.0688,-1.0688,-1.0688,-1.0688,-1.0688,-1.0688,-1.0688,-1.0688,-1.0688,-1.0688,-1.0688,-1.0688,-1.0688,-1.0688,-1.0688,-1.0688,-1.0688,-1.0688,-1.0688,-1.0688,0.0,0.0,0.0,0.0,0.0,0.0,0.0,0.0,0.0,0.0,0.0,0.0,0.0,0.0,0.0,0.0,0.0,0.0,0.0,0.0,0.0,0.0,-0.0401,-0.0648,-0.0648,-0.2286,-0.3209,-0.3318,-0.4552,-0.5269,-0.5412,-0.5403,-0.5397,-0.5397,-0.5397,-0.5397,-0.5397,-0.5397,-0.6398,-0.7997,-0.7997,-0.9072,-1.0688,-1.0688,-1.0688,-1.0688,-1.0688,-1.0688,-1.0688,-1.0688,-1.0688,-1.0688,-1.0688,-1.0688,-1.0688,-1.0688,-1.0688,-1.0688,-1.0688,-1.0688,-1.0688,-1.0688,-1.0688,-1.0688,-1.0688,-1.0688,-1.0688,-1.0688,-1.0688,-1.0688,0.0,0.0,0.0,-1.0688,-1.0688,0.0,-1.0688,-1.0688,0.0,-1.0688,0.0,-1.0688,-1.0688,-1.0688,0.0,0.0,-1.0688,-1.0688,-1.0688,-1.0688,-1.0688,-1.0688,-1.0688,-1.0688,-1.0688,-1.0688,-1.0688,-1.0688,-1.0688,-1.0688,-1.0688,-1.0688,-1.0688,-1.0688,-1.0688,-1.0688,-1.0688,-1.0688,-1.0688,-1.0688,-1.0688,-1.0688,-1.0688,-1.0688,-1.0688,-1.0688,0.0,0.0,0.0,0.0,0.0,0.0,0.0,0.0,0.0,0.0,0.0,0.0,0.0,0.0,0.0,0.0,0.0,0.0,0.0,0.0,0.0,0.0,0.0,0.0,0.0,-0.0925,-0.1428,-0.1512,-0.2412,-0.2929,-0.3023,-0.3015,-0.3036,-0.3021,-0.3021,-0.3021,-0.3021,-0.3021,-0.4056,0.0,0.0,-0.6762,-0.8374,-0.8374,-0.8374,-0.8473,-0.9241,-1.0047,-1.0688,-1.0688,-1.0688,-1.0688,-1.0688,-1.0688,-1.0688,-1.0688,-1.0688,-1.0688,-1.0688,-1.0688,-1.0688,-1.0688,-1.0688,-1.0688,-1.0688,-1.0688,-1.0688,-1.0688,-1.0688,-1.0688,-1.0688,-1.0688,-1.0688,0.0,0.0,0.0,-1.0688,-1.0688,-1.0688,0.0,-1.0688,0.0,-1.0688,-1.0688,-1.0688,0.0,-1.0688,-1.0688,-1.0688,-1.0688,-1.0688,-1.0688,-1.0688,-1.0688,-1.0688,-1.0688,-1.0688,-1.0688,-1.0688,-1.0688,-1.0688,-1.0688,-1.0688,-1.0688,0.0,-1.0688,-1.0688,-1.0688,-1.0688,-1.0688,-1.0688,-1.0688,-1.0688,-1.0688,-1.0688,-1.0585,0.0,0.0,0.0,0.0,0.0,0.0,0.0,0.0,0.0,0.0,0.0,0.0,0.0,0.0,0.0,0.0,0.0,0.0,0.0,0.0,0.0,0.0,0.0,0.0,0.0,0.0,0.0,0.0,0.0,0.0,0.0,0.0,0.0,0.0,0.0,0.0,0.0,0.0,-0.1042,-0.2685,-0.2685,-0.3791,-0.5397,0.0,-0.5397,-0.5598,-0.7096,-0.867,-0.9981,-0.9981,-1.0316,-1.0688,-1.0688,-1.0688,-1.0688,-1.0688,-1.0688,-1.0688,-1.0688,-1.0688,-1.0688,-1.0688,-1.0688,-1.0688,-1.0688,-1.0688,-1.0688,-1.0688,-1.0688,-1.0688,-1.0688,-1.0688,-1.0688,-1.0688,0.0,-1.0688,-1.0688,-1.0688,-1.0688,-1.0688,-1.0688,-1.0688,-1.0688,-1.0688,-1.0688,-1.0688,-1.0688,-1.0688,-1.0688,-1.0688,-1.0688,-1.0688,-1.0688,-1.0688,-1.0688,-1.0688,-1.0688,-1.0688,-1.0688,-1.0688,-1.0688,-1.0688,-1.0688,-1.0688,0.0,0.0,-1.0688,-1.0688,-1.0552,-1.0349,-1.0349,-1.0213,-0.9981,-0.9981,-0.9981,-0.9779,0.0,0.0,0.0,0.0,0.0,0.0,0.0,0.0,0.0,0.0,0.0,0.0,0.0,0.0,0.0,0.0,0.0,0.0,0.0,0.0,0.0,0.0,0.0,0.0,0.0,0.0,0.0,0.0,0.0,0.0,0.0,0.0,0.0,0.0,0.0,0.0,0.0,0.0,-0.1042,-0.2685,-0.2685,-0.3791,-0.5397,-0.5397,0.0,0.0,-0.573,-0.6064,-0.6333,-0.6333,-0.8271,-1.0688,-1.0688,-1.0688,-1.0688,-1.0688,-1.0688,-1.0688,-1.0688,-1.0688,-1.0688,-1.0688,-1.0688,-1.0688,-1.0688,-1.0688,0.0,-1.0688,-1.0688,-1.0688,-1.0688,-1.0688,-1.0688,-1.0688,-1.0688,-1.0688,-1.0688,-1.0688,-1.0688,0.0,-1.0688,-1.0688,-1.0688,-1.0688,0.0,0.0,0.0,-1.0688,-1.0688,-1.0688,-1.0688,-1.0688,-1.0688,-1.0688,-1.0688,-1.0688,-1.0688,-1.0688,-1.0688,-1.0688,-1.0688,-1.0688,-1.0688,-1.0688,-1.0688,0.0,-1.0688,-1.0688,-0.9812,-0.8468,-0.8468,-0.76,-0.6333,-0.6333,-0.6333,-0.6266,0.0,0.0,0.0,0.0,0.0,0.0,0.0,0.0,0.0,0.0,0.0,0.0,0.0,0.0,0.0,0.0,0.0,0.0,0.0,0.0,0.0,0.0,0.0,0.0,0.0,0.0,0.0,0.0,0.0,0.0,0.0,0.0,0.0,0.0,0.0,0.0,0.0,0.0,-0.0504,-0.1311,-0.1311,-0.1814,-0.2585,0.0,0.0,0.0,-0.399,-0.4593,-0.5397,-0.5397,-0.6533,-0.7938,-0.7938,-0.7938,-0.7938,-0.7938,-0.7938,-0.7938,-0.7938,-0.7938,-0.7938,-0.7938,-0.7938,-0.8171,-0.9072,0.0,0.0,-1.0518,-1.0688,-1.0688,-1.0688,-1.0752,-1.0806,-1.0806,-1.0806,-1.0806,-1.0806,-0.9925,-0.9305,-0.9305,-0.8504,-0.7938,0.0,-0.7938,0.0,0.0,0.0,-0.874,-1.0585,-1.0688,-1.0688,-1.0688,-1.0688,-1.0688,-1.0688,-0.9775,-0.9305,-0.9274,-0.8371,-0.7938,-0.7938,-0.7938,-0.7938,-0.7938,-0.7938,0.0,-0.7938,-0.7938,-0.7434,-0.6631,-0.6631,-0.6131,-0.5397,-0.5397,-0.5397,-0.5263,0.0,0.0,0.0,0.0,0.0,0.0,0.0,0.0216,0.0,0.0,0.0,0.0,0.0,0.0,0.0,0.0,0.0,0.0,0.0,0.0,0.0,0.0,0.0,0.0,0.0,0.0,0.0,0.0,0.0,0.0,0.0,0.0,0.0,0.0,0.0,0.0,0.0,0.0,0.0,0.0,0.0,0.0,0.0,0.0,0.0,0.0,0.0,-0.3021,-0.426,-0.426,-0.426,-0.426,-0.426,-0.4762,-0.5397,-0.5397,-0.5397,-0.5397,-0.5397,-0.5397,-0.5397,-0.5397,-0.5397,-0.5763,-0.7131,-0.7731,-0.8399,-0.9842,-1.0416,-1.0698,-1.0728,-1.0833,-1.0924,-1.0955,-1.0615,-1.0329,-1.0335,-0.8668,-0.7455,-0.7431,-0.6231,0.0,-0.5397,-0.5397,0.0,0.0,0.0,0.0,-0.941,-0.9579,-0.9579,-0.9579,-0.9579,-0.9579,-0.9579,-0.8166,-0.7429,-0.7431,-0.6064,-0.5397,-0.5397,-0.5397,-0.5397,-0.5397,-0.5397,0.0,0.0,-0.5397,-0.5163,-0.4827,-0.4827,-0.4593,-0.426,-0.426,-0.426,-0.4024,0.0,0.0,0.0,0.0,0.0,0.0,0.0,0.0986,0.0,0.0,0.0,0.0,0.0,0.0,0.0,0.0,0.0,0.0,0.0,0.0,0.0,0.0,0.0,0.0,0.0,0.0,0.0,0.0,0.0,0.0,0.0,0.0,0.0,0.0,0.0,0.0,0.0,0.0,0.0,0.0,0.0,0.0,0.0,0.0,0.0,0.0,0.0,-0.037,-0.0504,-0.0504,-0.0504,-0.0504,-0.0504,-0.2752,-0.5397,-0.5397,-0.5397,-0.5397,-0.5397,-0.5397,-0.5397,-0.5397,-0.5397,-0.5431,-0.5598,0.0,-0.803,-0.8197,-0.954,-1.0728,-1.0867,-1.0907,-1.0958,-1.1155,-0.9679,-0.853,-0.8525,-0.6862,-0.5637,-0.5638,0.0,0.0,-0.5397,-0.5397,0.0,0.0,0.0,0.0,-0.5865,-0.5897,-0.5897,-0.5897,-0.5897,-0.5897,-0.5897,-0.5732,-0.5629,-0.5629,-0.5464,-0.5397,-0.5397,-0.5397,-0.5397,-0.5397,-0.5397,0.0,0.0,-0.5397,-0.4426,-0.2953,-0.2953,-0.1948,-0.0504,-0.0504,-0.0504,-0.0471,0.0,0.0,0.0,0.0,0.0,0.0,0.0,0.1079,0.0,0.0,0.0,0.0,0.0,0.0,0.0,0.0,0.0,0.0,0.0,0.0,0.0,0.0,0.0,0.0,0.0,0.0,0.0,0.0,0.0,0.0,0.0,0.0,0.0,0.0,0.0,0.0,0.0,0.0,0.0,0.0,0.0,0.0,0.0,0.0,0.0,0.0,0.0,0.0,0.0,0.0,0.0,0.0,0.0,-0.0975,-0.2149,-0.2149,-0.2149,-0.2149,-0.2149,-0.2149,-0.2149,-0.2149,-0.2149,-0.245,-0.3523,0.0,-0.5125,-0.6197,-0.7,-0.7536,-0.7573,-0.7641,-0.7749,-0.7818,-0.7165,-0.666,-0.6659,-0.5011,-0.3759,-0.3777,-0.282,0.0,0.0,0.0,0.0,0.0,0.0,0.0,-0.2149,-0.4226,-0.5397,-0.5397,-0.5397,-0.5397,-0.5397,-0.4325,-0.3791,-0.3757,-0.2685,-0.2149,-0.2149,-0.2149,-0.2149,-0.2149,-0.2149,0.0,0.0,-0.2149,-0.1713,-0.1075,-0.1075,-0.0639,0.0,0.0,0.0,0.0,0.0,0.0,0.0,0.0,0.0,0.0,0.3291,0.1817,0.0555,0.0062,0.0,0.0,0.0,0.0,0.0,0.0,0.0,0.0,0.0,0.0,0.0,0.0,0.0,0.0,0.0,0.0,0.0,0.0,0.0,0.0,0.0,0.0,0.0,0.0,0.0,0.0,0.0,0.0,0.0,0.0,0.0,0.0,0.0,0.0,0.0,0.0,0.0,0.0,0.0,0.0,0.0,0.0,0.0,0.0,0.0,0.0,0.0,0.0,0.0,0.0,0.0,0.0,0.0,-0.0336,0.0,0.0,-0.3053,-0.4325,-0.5012,-0.5418,-0.5459,-0.5532,-0.5604,-0.5645,-0.5192,-0.4792,-0.4809,-0.3113,-0.1892,-0.1901,0.0,0.0,0.0,0.0,0.0,0.0,0.0,0.0,0.0,-0.2417,-0.3791,-0.3791,-0.3791,-0.3791,-0.3791,-0.2551,-0.1914,-0.1881,-0.0605,0.0,0.0,0.0,0.0,0.0,0.0,0.0,0.0,0.0,0.0,0.0,0.0,0.0,0.0,0.0,0.0,0.0,0.0,0.0,0.0,0.0,0.0,0.0,0.0,0.3506,0.1879,0.0216,0.0,0.0,0.0,0.0,0.0,0.0,0.0,0.0,0.0,0.0,0.0,0.0,0.0,0.0,0.0,0.0,0.0,0.0,0.0,0.0,0.0,0.0,0.0,0.0,0.0,0.0,0.0,0.0,0.0,0.0,0.0,0.0,0.0,0.0,0.0,0.0,0.0,0.0,0.0,0.0,0.0,0.0,0.0,0.0,0.0,0.0,0.0,0.0,0.0,0.0,0.0,0.0,0.0,0.0,-0.0034,-0.1411,-0.2719,-0.2719,-0.4138,-0.5428,-0.5568,-0.5608,-0.5647,-0.5758,-0.4177,-0.293,-0.2928,-0.125,-0.0036,0.0,0.0,0.0,0.0,0.0,0.0,0.0,0.0,0.0,0.0,-0.0034,-0.0067,-0.0067,-0.0067,-0.0067,-0.0067,-0.0034,-0.0034,-0.0034,0.0,0.0,0.0,0.0,0.0,0.0,0.0,0.0,0.0,0.0,0.0,0.0,0.0,0.0,0.0,0.0,0.0,0.0,0.0,0.0,0.0,0.0,0.0,0.0,0.0,0.3537,0.191,0.0216,0.0,0.0,0.0,0.0,0.0,0.0,0.0,0.0,0.0,0.0,0.0,0.0,0.0,0.0,0.0,0.0,0.0,0.0,0.0,0.0,0.0,0.0,0.0,0.0,0.0,0.0,0.0,0.0,0.0,0.0,0.0,0.0,0.0,0.0,0.0,0.0,0.0,0.0,0.0,0.0,0.0,0.0,0.0,0.0,0.0,0.0,0.0,0.0,0.0,0.0,0.0,0.0,0.0,0.0,0.0,-0.0437,-0.084,-0.084,-0.1325,-0.1722,-0.178,-0.1769,-0.1793,-0.1817,-0.1311,-0.091,-0.0906,-0.0399,0.0,0.0,0.0,0.0,0.0,0.0,0.0,0.0,0.0,0.0,0.0,0.0,0.0,0.0,0.0,0.0,0.0,0.0,0.0,0.0,0.0,0.0,0.0,0.0,0.0,0.0,0.0,0.0,0.0,0.0,0.0,0.0,0.0,0.0,0.0,0.0,0.0,0.0,0.0,0.0,0.0,0.0,0.0,0.0,0.0,0.4455,0.28,0.1171,0.0401,0.0,0.0,0.0,0.0,0.0,0.0,0.0,0.0,0.0,0.0,0.0,0.0,0.0,0.0,0.0,0.0,0.0,0.0,0.0,0.0,0.0,0.0,0.0,0.0,0.0,0.0,0.0,0.0,0.0,0.0,0.0,0.0,0.0,0.0,0.0,0.0,0.0,0.0,0.0,0.0,0.0,0.0,0.0,0.0,0.0,0.0,0.0,0.0,0.0,0.0,0.0,0.0,0.0,0.0,0.0,0.0,0.0,0.0,0.0,0.0,0.0,0.0,0.0,0.0,0.0,0.0,0.0,0.0,0.0,0.0,0.0,0.0,0.0,0.0,0.0,0.0,0.0,0.0,0.0,0.0,0.0,0.0,0.0,0.0,0.0,0.0,0.0,0.0,0.0,0.0,0.0,0.0,0.0,0.0,0.0,0.0,0.0,0.0,0.0,0.0,0.0,0.0,0.0,0.0,0.0,0.0,0.0,0.0,0.0,0.0,0.0,0.0,0.0,0.0,0.0,0.1141,0.0123,0.0,0.0,0.0,0.0,0.0,0.0,0.0,0.0,0.0,0.0,0.0,0.0,0.0,0.0,0.0,0.0,0.0,0.0,0.0,0.0,0.0,0.0,0.0,0.0,0.0,0.0,0.0,0.0,0.0,0.0,0.0,0.0,0.0,0.0,0.0,0.0,0.0,0.0,0.0,0.0,0.0,0.0,0.0,0.0,0.0,0.0,0.0,0.0,0.0,0.0,0.0,0.0,0.0,0.0,0.0,0.0,0.0,0.0,0.0,0.0,0.0,0.0,0.0,0.0,0.0,0.0,0.0,0.0,0.0,0.0,0.0,0.0,0.0,0.0,0.0,0.0,0.0,0.0,0.0,0.0,0.0,0.0,0.0,0.0,0.0,0.0,0.0,0.0,0.0,0.0,0.0,0.0,0.0,0.0,0.0,0.0,0.0,0.0,0.0,0.0,0.0,0.0,0.0,0.0,0.0,0.0,0.0,0.0,0.0,0.0,0.0,0.0,0.0,0.0,0.0,0.1417,0.0154,0.0,0.0,0.0,0.0,0.0,0.0,0.0,0.0,0.0,0.0,0.0,0.0,0.0,0.0,0.0,0.0,0.0,0.0,0.0,0.0,0.0,0.0,0.0,0.0,0.0,0.0,0.0,0.0,0.0,0.0,0.0,0.0,0.0,0.0,0.0,0.0,0.0,0.0,0.0,0.0,0.0,0.0,0.0,0.0,0.0,0.0,0.0,0.0,0.0,0.0,0.0,0.0,0.0,0.0,0.0,0.0,0.0,0.0,0.0,0.0,0.0,0.0,0.0,0.0,0.0,0.0,0.0,0.0,0.0,0.0,0.0,0.0,0.0,0.0,0.0,0.0,0.0,0.0,0.0,0.0,0.0,0.0,0.0,0.0,0.0,0.0,0.0,0.0,0.0,0.0,0.0,0.0,0.0,0.0,0.0,0.0,0.0,0.0,0.0,0.0,0.0,0.0,0.0,0.0,0.0,0.0,0.0,0.0,0.0,0.0,0.0,0.0,0.0,0.0,0.0,0.0,0.0,0.0,0.0,0.0,0.0,0.0,0.0,0.0,0.0,0.0,0.0,0.0,0.0,0.0,0.0,0.0,0.0,0.0,0.0,0.0,0.0,0.0,0.0,0.0,0.0,0.0,0.0,0.0,0.0,0.0,0.0,0.0,0.0,0.0,0.0,0.0,0.0,0.0,0.0,0.0,0.0,0.0,0.0,0.0,0.0,0.0,0.0,0.0,0.0,0.0,0.0,0.0,0.0,0.0,0.0,0.0,0.0,0.0,0.0,0.0,0.0,0.0,0.0,0.0,0.0,0.0,0.0,0.0,0.0,0.0,0.0,0.0,0.0,0.0,0.0,0.0,0.0,0.0,0.0,0.0,0.0,0.0,0.0,0.0,0.0,0.0,0.0,0.0,0.0,0.0,0.0,0.0,0.0,0.0,0.0,0.0,0.0,0.0,0.0,0.0,0.0,0.0,0.0,0.0,0.0,0.0,0.0,0.0,0.0,0.0,0.0,0.0,0.0,0.0,0.0,0.0,0.0,0.0,0.0,0.0,0.0,0.0,0.0,0.0,0.0,0.0,0.0,0.0,0.0,0.0,0.0,0.0,0.0,0.0,0.0,0.0,0.0,0.0,0.0,0.0,0.0,0.0,0.0,0.0,0.0,0.0,0.0,0.0,0.0,0.0,0.0,0.0,0.0,0.0,0.0,0.0,0.0,0.0,0.0,0.0,0.0,0.0,0.0202,0.0337,0.0067,0.0,0.0,0.0,0.0,0.0,0.0,0.0,0.0073,0.0401,0.0182,0.0109,0.0401,0.0182,0.0,0.0,0.0,0.0,0.0,0.0,0.0,0.0,0.0,0.0,0.0,0.0,0.0,0.0,0.0,0.0,0.0,0.0,0.0,0.0,0.0,0.0,0.0,0.0,0.0,0.0,0.0,0.0,0.0,0.0,0.0,0.0,0.0,0.0,0.0,0.0,0.0,0.0,0.0,0.0,0.0034,0.0,0.0,0.0,0.0,0.0,0.0,0.0,0.0,0.0,0.0,0.0,0.0,0.0,0.0,0.0,0.0,0.0,0.0,0.0,0.0,0.0,0.0,0.0,0.0,0.0,0.0,0.0,0.0,0.0,0.0,0.0,0.0,0.0,0.0,0.0,0.0,0.0,0.0,0.0,0.0,0.0,0.0,0.0,0.0,0.0,0.0,0.0,0.0,0.0,0.0,0.0,0.0,0.0,0.0,0.0,0.0,0.0,0.0,0.0,0.1109,0.192,0.0376,0.0,0.0,0.0,0.0,0.0,0.0,0.0,0.051,0.2147,0.1093,0.0547,0.2182,0.1056,0.0,0.0,0.0,0.0,0.0,0.0,0.0,0.0,0.0,0.0,0.0,0.0,0.0,0.0,0.0,0.0,0.0,0.0,0.0,0.0,0.0,0.0,0.0,0.0,0.0,0.0,0.0,0.0,0.0,0.0,0.0,0.0,0.0,0.0,0.0,0.0,0.0,0.0,0.0,0.0,0.024,0.0,0.0,0.0,0.0,0.0,0.0,0.0,0.0,0.0,0.0,0.0,0.0,0.0,0.0,0.0,0.0,0.0,0.0,0.0,0.0,0.0,0.0,0.0,0.0,0.0,0.0,0.0,0.0,0.0,0.0,0.0,0.0,0.0,0.0,0.0,0.0,0.0,0.0,0.0,0.0,0.0,0.0,0.0,0.0,0.0,0.0,0.0,0.0,0.0,0.0,0.2283,0.1445,0.1445,0.0,0.0,0.0,0.0,0.0,0.0,0.136,0.2593,0.1778,0.2299,0.3029,0.3124,0.3119,0.2853,0.1781,0.1566,0.1856,0.2727,0.2183,0.2219,0.4141,0.0,0.3127,0.3127,0.2219,0.1965,0.0,0.0,0.0,0.0,0.0,0.0,0.0,0.0,0.0,0.0073,0.0,0.0,0.0,0.0,0.0,0.0,0.0,0.0,0.0,0.0,0.0,0.0,0.0,0.0,0.0,0.0,0.0,0.007,0.1121,0.1576,0.168,0.2709,0.3151,0.3148,0.3129,0.3134,0.3257,0.0,0.0,0.0,0.0,0.0,0.0,0.0,0.0,0.0,0.0,0.0,0.0,0.0,0.0,0.0,0.0,0.0,0.0,0.0,0.0,0.0,0.0,0.0,0.0,0.0,0.0,0.0,0.0,0.0,0.0,0.0,0.0,0.0,0.0,0.0,0.0,0.0,0.0,0.0,0.0034,0.0,0.0,0.0,0.0,0.0,0.0,0.0,0.0,0.0,0.0,0.0,0.0,0.0,0.0,0.0,0.1277,0.1277,0.1281,0.1299,0.2707,0.4169,0.4245,0.4945,0.5663,0.5777,0.5803,0.5373,0.3887,0.3597,0.3705,0.4176,0.4248,0.4611,0.5627,0.581,0.581,0.581,0.4504,0.4141,0.0,0.0,0.0,0.0,0.0,0.0,0.0,0.0,0.0,0.0765,0.1093,0.1348,0.1348,0.1348,0.1348,0.1348,0.1348,0.1118,0.0672,0.0672,0.0919,0.1343,0.1343,0.1343,0.1343,0.1343,0.1343,0.1484,0.2965,0.3565,0.3739,0.5232,0.5808,0.5794,0.5813,0.6098,0.6486,0.0,0.0,0.0,0.0,0.0,0.0,0.0,0.0,0.0,0.0,0.0,0.0,0.0,0.0,0.0,0.0,0.0,0.0,0.0,0.0,0.0,0.0,0.0,0.0,0.0,0.0,0.0,0.0,0.0,0.0,0.0,0.0,0.0,0.0,0.0,0.0,0.0,0.0,0.0,0.0135,0.1813,0.0,0.0,0.0,0.0,0.0,0.0,0.0,0.0,0.0,0.0,0.0,0.0,0.0,0.4996,0.4996,0.4996,0.5044,0.5179,0.6528,0.7981,0.8231,0.7037,0.5779,0.5784,0.5805,0.5772,0.5627,0.5591,0.6134,0.7941,0.8268,0.7724,0.6062,0.581,0.581,0.581,0.0,0.0,0.0,0.0,0.0,0.0,0.0,0.0,0.0,0.0,0.0,0.2799,0.4395,0.5375,0.5375,0.5375,0.5375,0.5375,0.5375,0.4463,0.2683,0.2683,0.3623,0.5395,0.5395,0.5395,0.5395,0.5395,0.5395,0.5395,0.554,0.5576,0.5606,0.5752,0.5785,0.5801,0.5803,0.6927,0.85,0.0,0.0,0.0,0.0,0.0,0.0,0.0,0.0,0.0,0.0,0.0,0.0,0.0,0.0,0.0,0.0,0.0,0.0,0.0,0.0618,0.0,0.0,0.0,0.0,0.0,0.0,0.0,0.0,0.0,0.0,0.0,0.0,0.0,0.0,0.0,0.0639,0.168,0.168,0.2317,0.3422,0.4092,0.4393,0.0,0.0,0.0,0.0,0.0,0.0,0.0,0.0,0.7936,0.7029,0.7029,0.6264,0.5397,0.5397,0.5462,0.5547,0.5588,0.7033,0.8586,0.867,0.9074,0.9413,0.9424,0.9399,0.9069,0.7835,0.7616,0.7835,0.8557,0.9684,1.0269,0.9543,0.9399,0.9399,0.9399,0.8379,0.0,0.0,0.0,0.0,0.0,0.0,0.0,0.0,0.0,0.0,0.4794,0.541,0.581,0.581,0.581,0.581,0.581,0.581,0.6025,0.6492,0.5263,0.5084,0.581,0.581,0.581,0.581,0.581,0.581,0.5882,0.711,0.7616,0.7722,0.895,0.941,0.9409,0.9421,0.987,1.0489,0.0,0.0,0.0,0.0,0.0,0.0,0.0,0.0,0.0,0.0,0.0,0.0,0.0,0.0,0.0,0.0,0.0,0.0,0.2738,0.1548,0.0597,0.0033,0.0,0.0,0.0,0.0,0.0,0.0,0.0,0.0,0.0,0.0,0.0303,0.084,0.084,0.1847,0.3556,0.3556,0.4258,0.5462,0.5997,0.6231,0.0,0.0,0.0,0.0,0.0,0.0,0.0,0.0,0.9878,0.8837,0.8837,0.8035,0.7067,0.7067,0.7145,0.7226,0.7323,0.8423,0.951,0.9606,1.0632,1.1584,1.1584,1.1584,1.1217,0.9903,0.9612,0.9612,0.9612,1.0704,1.1584,0.0,1.1584,1.1584,1.1584,1.0449,0.0,0.0,0.0,0.0,0.0,0.0,0.0,0.0,0.0,0.0,0.0,0.7295,0.7621,0.7621,0.7621,0.7621,0.7621,0.7621,0.8307,0.9612,0.8273,0.7621,0.7621,0.7621,0.7621,0.7621,0.7621,0.7621,0.7729,0.9069,0.9612,0.9757,1.107,1.1584,1.1584,1.1584,1.1584,1.1584,0.0,0.0,0.0,0.0,0.0,0.0,0.0,0.0,0.0,0.0,0.0,0.0,0.0,0.0,0.0,0.0,0.0,0.0,0.2853,0.2685,0.1881,0.0067,0.0,0.0,0.0,0.0034,0.0034,0.0,0.0,0.0,0.0,0.0034,0.0975,0.2685,0.2719,0.3724,0.5431,0.5431,0.5431,0.5598,0.7331,0.803,0.823,0.0,0.0,0.0,0.0,0.0,0.0,0.0,1.0688,1.0688,1.0688,1.0688,1.0688,1.0688,1.0691,1.0789,1.1118,1.12,1.1274,1.1545,1.1584,1.1584,1.1584,1.1584,1.1584,1.1584,1.1584,1.1584,1.1584,1.1584,0.0,1.1584,1.1584,1.1584,1.1584,0.0,0.0,0.0,0.0,0.0,0.0,0.0,0.0,0.0,0.0,0.0,0.0,1.056,1.1584,1.1584,1.1584,1.1584,1.1584,1.1584,1.1584,1.1584,1.1584,1.1584,1.1584,1.1584,1.1584,1.1584,1.1584,1.1584,1.1584,1.1584,1.1584,1.1584,1.1584,1.1584,1.1584,1.1584,1.1584,1.1584,0.0,0.0,0.0,0.0,0.0,0.0,0.0,0.0,0.0,0.0,0.0,0.0,0.0,0.0,0.0,0.0,0.0,0.0,0.4628,0.2216,0.0572,0.0034,0.0,0.0,0.0,0.1243,0.1277,0.0,0.0,0.0,0.0034,0.1311,0.2183,0.2752,0.4024,0.5561,0.7231,0.7231,0.7966,0.9175,0.9676,0.9911,0.0,0.0,0.0,0.0,0.0,0.0,0.0,0.0,0.0,0.0,1.0688,1.0688,1.0708,1.0816,1.0951,1.1073,1.1305,1.1402,1.1504,1.1596,1.1584,1.1584,1.1584,1.1584,1.1584,1.1584,1.1584,1.1584,1.1584,1.1584,0.0,1.1584,1.1584,0.0,0.0,0.0,0.0,0.0,0.0,0.0,0.0,0.0,0.0,0.0,0.0,0.0,0.0,1.1289,1.1584,1.1584,1.1584,1.1584,1.1584,1.1584,1.1584,1.1584,1.1584,1.1584,1.1584,1.1584,1.1584,1.1584,1.1584,1.1584,1.1584,1.1584,1.1584,1.1584,1.1584,1.1584,1.1584,1.1584,1.1584,1.1584,0.0,0.0,0.0,0.0,0.0,0.0,0.0,0.0,0.0,0.0,1.0688,1.0416,0.0,0.0,0.0,0.0,0.0,0.0,0.0,0.2283,0.074,0.0034,0.0673,0.1411,0.2116,0.3221,0.3254,0.2149,0.2149,0.2149,0.2183,0.3254,0.4158,0.4857,0.5962,0.7431,0.9072,0.9072,0.9709,1.0688,1.0688,1.0688,1.0688,0.0,0.0,0.0,0.0,0.0,0.0,0.0,0.0,0.0,1.0688,1.0688,1.0704,1.0796,1.0921,1.1033,1.1243,1.1369,1.1467,1.1553,1.1584,1.1584,1.1584,1.1584,1.1584,1.1584,1.1584,1.1584,1.1584,1.1584,0.0,1.1584,0.0,0.0,0.0,0.0,0.0,0.0,0.0,0.0,0.0,0.0,0.0,0.0,0.0,0.0,0.0,1.1584,1.1584,1.1584,1.1584,1.1584,1.1584,1.1584,1.1584,1.1584,1.1584,1.1584,1.1584,1.1584,1.1584,1.1584,1.1584,1.1584,1.1584,1.1584,1.1584,1.1584,1.1584,1.1584,1.1584,1.1584,1.1584,1.1584,0.0,0.0,0.0,0.0,0.0,0.0,0.0,0.0,0.0,0.0,1.0552,0.9842,0.0,0.0,0.0,0.0,0.0,0.0,0.0,0.0,0.178,0.0303,0.1981,0.3722,0.5364,0.5563,0.5629,0.5629,0.5464,0.5397,0.5397,0.5563,0.6498,0.7997,0.8166,0.9172,1.0688,1.0688,1.0688,1.0688,1.0688,1.0688,1.0688,1.0688,0.0,0.0,0.0,0.0,0.0,0.0,0.0,0.0,1.0688,1.0688,1.0724,1.0751,1.0718,1.0775,1.1155,1.123,1.1288,1.1545,1.1584,1.1584,1.1584,1.1584,1.1584,1.1584,1.1584,1.1584,1.1584,1.1584,1.1584,1.1584,0.0,0.0,0.0,0.0,0.0,0.0,0.0,0.0,0.0,0.0,0.0,0.0,0.0,0.0,0.0,1.1584,1.1584,1.1584,1.1584,1.1584,1.1584,1.1584,1.1584,0.0,1.1584,1.1584,1.1584,1.1584,1.1584,1.1584,1.1584,1.1584,1.1584,1.1584,1.1584,1.1584,1.1584,1.1584,1.1584,1.1584,1.1584,1.1584,0.0,0.0,0.0,0.0,0.0,0.0,0.0,0.0,0.0,0.0,0.0,0.0,0.0,0.0,0.0,0.0,0.0,0.0,0.0,0.0,0.1042,0.2082,0.3856,0.4996,0.5397,0.6731,0.7429,0.7429,0.6064,0.5397,0.5431,0.6798,0.7631,0.8064,0.9474,1.0349,1.0688,1.0688,1.0688,1.0688,1.0688,1.0688,1.0688,1.0688,1.0688,0.0,0.0,0.0,0.0,0.0,0.0,0.0,1.0688,1.0688,1.0765,1.1033,1.0989,1.0958,1.1374,1.1433,1.1385,1.1572,1.1584,1.1584,1.1584,1.1584,1.1584,1.1584,1.1584,1.1584,1.1584,1.1584,1.1584,1.1584,0.0,0.0,0.0,0.0,0.0,0.0,0.0,0.0,0.0,0.0,0.0,0.0,0.0,0.0,1.1584,1.1584,1.1584,1.1584,1.1584,1.1584,1.1584,1.1584,1.1584,0.0,1.1584,1.1584,1.1584,1.1584,1.1584,1.1584,1.1584,1.1584,1.1584,1.1584,1.1584,1.1584,1.1584,1.1584,1.1584,1.1584,1.1584,1.1584,0.0,0.0,0.0,0.0,0.0,0.0,0.0,0.0,0.0,0.0,0.0,0.0,0.0,0.0,0.0,0.0,0.0,0.0,0.0,0.0,0.2483,0.5125,0.6129,0.7067,0.7902,0.8839,0.9305,0.9305,0.8371,0.7938,0.7971,0.887,0.9305,0.9338,1.0283,1.0688,1.0688,1.0688,1.0688,1.0688,1.0688,1.0688,1.0688,1.0688,1.0688,1.0688,1.0688,0.0,0.0,0.0,0.0,0.0,0.0,0.0,1.0718,1.0907,1.0914,1.0965,1.1198,1.1341,1.1426,1.1582,1.1584,1.1584,1.1584,1.1584,1.1584,1.1584,1.1584,1.1584,1.1584,1.1584,1.1584,0.0,0.0,0.0,0.0,0.0,0.0,0.0,0.0,0.0,0.0,0.0,0.0,0.0,0.0,1.1584,1.1584,1.1584,1.1584,1.1584,1.1584,1.1584,1.1584,1.1584,1.1584,1.1584,1.1584,1.1584,1.1584,1.1584,1.1584,1.1584,1.1584,1.1584,1.1584,1.1584,1.1584,1.1584,1.1584,1.1584,1.1584,1.1584,1.1584,1.1584,0.0,0.0,0.0,0.0,0.0,0.0,0.0,0.0,0.0,0.0,0.0,0.0,0.0,0.0,0.0,0.0,0.0,0.0,0.0,0.0,0.0,0.7864,0.8299,0.9172,1.0688,1.0688,1.0688,1.0688,1.0688,1.0688,1.0688,1.0688,1.0688,1.0688,1.0688,1.0688,1.0688,1.0688,1.0688,1.0688,1.0688,1.0688,1.0688,1.0688,1.0688,1.0688,1.0688,1.0688,1.0688,1.0688,0.0,0.0,0.0,0.0,1.0691,1.0718,1.0796,1.089,1.0968,1.1223,1.1453,1.1555,1.1563,1.1584,1.1584,1.1584,1.1584,1.1584,1.1584,1.1584,1.1584,1.1584,1.1584,0.0,0.0,0.0,0.0,0.0,0.0,0.0,0.0,0.0,0.0,0.0,0.0,0.0,0.0,1.1584,1.1584,1.1584,1.1584,1.1584,1.1584,1.1584,1.1584,1.1584,1.1584,1.1584,1.1584,1.1584,1.1584,1.1584,1.1584,1.1584,1.1584,1.1584,1.1584,1.1584,1.1584,1.1584,1.1584,1.1584,1.1584,1.1584,1.1584,1.1584,0.0,0.0,0.0,0.0,0.0,0.0,0.0,0.0,0.0,0.0,0.4024,0.0,0.0,0.0,0.0,0.0,0.0,0.0,0.4559,0.0,0.0,0.7964,0.9507,1.0452,1.0688,1.0688,1.0688,1.0688,1.0688,1.0688,1.0688,1.0688,1.0688,1.0688,1.0688,1.0688,1.0688,1.0688,1.0688,1.0688,1.0688,1.0688,1.0688,1.0688,1.0688,1.0688,1.0688,1.0688,1.0688,1.0688,1.0688,0.0,0.0,0.0,1.0715,1.0843,1.0803,1.0836,1.1226,1.1457,1.1562,1.145,1.1521,1.1584,1.1584,1.1584,1.1584,1.1584,1.1584,1.1584,1.1584,1.1584,1.1584,0.0,0.0,0.0,0.0,0.0,0.0,0.0,0.0,0.0,0.0,0.0,0.0,0.0,1.1584,1.1584,1.1584,1.1584,1.1584,1.1584,1.1584,1.1584,1.1584,1.1584,1.1584,1.1584,1.1584,1.1584,1.1584,1.1584,1.1584,1.1584,1.1584,1.1584,1.1584,1.1584,1.1584,1.1584,1.1584,1.1584,1.1584,1.1584,1.1584,1.1584,0.0,0.0,0.0,0.0,0.0,0.0,0.0,0.0,0.0,0.0,0.0,0.1176,0.0,0.0,0.0,0.2618,0.3623,0.4961,0.6729,0.7564,0.8468,0.9474,1.0283,1.0688,1.0688,1.0688,1.0688,1.0688,1.0688,1.0688,1.0688,1.0688,1.0688,1.0688,1.0688,1.0688,1.0688,1.0688,1.0688,1.0688,1.0688,1.0688,1.0688,1.0688,1.0688,1.0688,0.0,0.0,1.0688,1.0688,1.0688,1.0688,1.0688,0.0,0.0,0.0,1.0799,1.0874,1.1185,1.1253,1.1232,1.1365,1.1443,1.1514,1.1563,1.1584,1.1584,1.1584,1.1584,1.1584,1.1584,1.1584,0.0,0.0,0.0,0.0,0.0,0.0,0.0,0.0,0.0,0.0,0.0,0.0,0.0,0.0,1.1584,1.1584,1.1584,1.1584,1.1584,1.1584,1.1584,1.1584,1.1584,1.1584,1.1584,1.1584,1.1584,1.1584,1.1584,1.1584,1.1584,1.1584,1.1584,1.1584,1.1584,1.1584,1.1584,1.1584,1.1584,1.1584,1.1584,1.1584,1.1584,1.1584,0.0,0.0,0.0,0.0,0.0,0.0,0.0,0.0,0.0,0.0,0.0,0.0,0.0,0.0,0.0,0.0,0.5028,0.6798,0.8568,0.8701,0.9305,1.0651,1.0688,1.0688,1.0688,1.0688,1.0688,1.0688,1.0688,1.0688,1.0688,1.0688,1.0688,1.0688,1.0688,1.0688,1.0688,1.0688,1.0688,1.0688,1.0688,1.0688,1.0688,1.0688,1.0688,1.0688,0.0,0.0,0.0,0.0,0.0,0.0,0.0,1.0688,0.0,0.0,0.0,1.1594,1.1704,1.1697,1.1684,1.1882,1.165,1.1362,1.1477,1.1535,1.1562,0.0,1.1592,1.1584,1.1584,1.1584,0.0,0.0,0.0,0.0,0.0,0.0,0.0,0.0,0.0,0.0,0.0,0.0,0.0,0.0,1.1584,1.1584,1.1584,1.1584,1.1584,1.1584,1.1584,1.1584,1.1584,1.1584,1.1584,1.1584,1.1584,1.1584,1.1584,1.1584,1.1584,1.1584,1.1584,1.1584,1.1584,1.1584,1.1584,1.1584,1.1584,1.1584,1.1584,1.1584,1.1584,1.1584,0.0,0.0,0.0,0.0,0.0,0.0,0.0,0.0,0.0,0.0,0.0,0.0,0.0,0.1613,0.3388,0.5095,0.6862,0.8634,1.0452,1.0552,1.0585,1.0688,1.0688,0.0,1.0688,1.0688,1.0688,1.0688,1.0688,1.0688,1.0688,1.0688,1.0688,1.0688,1.0688,1.0688,1.0688,1.0688,1.0688,1.0688,1.0688,1.0688,1.0688,1.0688,0.0,0.0,0.0,0.0,0.0,0.0,0.0,0.0,0.0,0.0,1.0688,0.0,0.0,0.0,1.3236,1.3436,1.3619,1.344,1.2285,1.121,1.122,1.1332,1.1402,1.1402,1.1518,1.1584,1.1584,1.1584,0.0,0.0,0.0,0.0,0.0,0.0,0.0,0.0,0.0,0.0,0.0,0.0,0.0,0.0,1.1584,1.1584,1.1584,1.1584,1.1584,1.1584,1.1584,1.1584,1.1584,1.1584,1.1584,1.1584,1.1584,1.1584,1.1584,1.1584,1.1584,1.1584,1.1584,1.1584,1.1584,1.1584,1.1584,1.1584,1.1584,1.1584,1.1584,1.1584,1.1584,1.1584,0.0,0.0,0.0,0.0,0.0,0.0,0.0,0.0,0.0,0.0,0.0,0.0,0.0,0.1613,0.3422,0.523,0.8069,1.0011,1.0651,1.0688,1.0688,1.0688,1.0688,1.0688,1.0688,1.0688,1.0688,1.0688,1.0688,1.0688,1.0688,1.0688,1.0688,1.0688,1.0688,1.0688,1.0688,1.0688,1.0688,1.0688,1.0688,0.0,1.0688,0.0,0.0,0.0,0.0,0.0,0.0,0.0,0.0,0.0,0.0,0.0,0.0,1.4036,1.4511,1.5039,1.4963,1.5053,1.5148,1.5177,1.3919,1.2693,1.2833,1.2026,1.1305,1.1369,1.1436,1.1504,1.1567,1.1584,0.0,0.0,0.0,0.0,0.0,0.0,0.0,0.0,0.0,0.0,0.0,0.0,0.0,0.0,0.0,1.1584,1.1584,1.1584,1.1584,1.1584,1.1584,1.1584,1.1584,1.1584,1.1584,1.1584,1.1584,1.1584,1.1584,1.1584,1.1584,1.1584,1.1584,1.1584,1.1584,1.1584,1.1584,1.1584,1.1584,1.1584,1.1584,1.1584,1.1584,1.1584,0.0,0.0,0.0,0.0,0.0,0.0,0.0,0.0,0.0,0.0,0.0,0.0,0.0,0.0,0.3655,0.6064,0.8972,1.0688,1.0688,1.0688,1.0688,1.0688,1.0688,1.0688,1.0688,1.0688,1.0688,1.0688,1.0688,1.0688,1.0688,1.0688,1.0688,1.0688,1.0688,1.0688,1.0688,1.0688,1.0688,1.0688,0.0,0.0,1.0688,0.0,0.0,0.0,0.0,0.0,0.0,0.0,0.0,0.0,0.0,0.0,0.0,0.0,0.0,1.6759,1.6759,1.6759,1.6796,1.6885,1.5614,1.4334,1.4459,1.3202,1.1999,1.2075,1.1734,1.1423,1.1525,1.1586,0.0,0.0,0.0,0.0,0.0,0.0,0.0,0.0,0.0,0.0,0.0,0.0,0.0,0.0,0.0,0.0,1.1584,1.1584,1.1584,1.1584,1.1584,1.1584,1.1584,1.1584,1.1584,1.1584,1.1584,1.1584,1.1584,1.1584,1.1584,1.1584,1.1584,1.1584,1.1584,1.1584,1.1584,1.1584,1.1584,1.1584,1.1584,1.1584,1.1584,1.1584,0.0,0.0,0.0,0.0,0.0,0.0,0.0,0.0,0.0,0.0,0.0,0.0,0.0,0.0,0.0,0.7631,0.9643,1.0688,1.0688,1.0688,1.0688,1.0688,1.0688,1.0688,1.0688,1.0688,1.0688,1.0688,1.0688,1.0688,1.0688,1.0688,1.0688,1.0688,1.0688,1.0688,1.0688,1.0688,1.0688,1.0688,0.0,1.0688,1.0688,0.0,0.0,0.0,1.0688,1.0721,0.0,0.0,0.0,0.0,0.0,0.0,0.0,0.0,0.0,0.0,0.0,0.0,0.0,1.857,1.7275,1.5978,1.5978,1.4743,1.3566,1.3503,1.2433,1.1519,1.1488,1.1579,0.0,0.0,0.0,0.0,0.0,0.0,0.0,0.0,0.0,0.0,0.0,0.0,0.0,0.0,1.1584,1.1584,1.1584,1.1584,1.1584,1.1584,1.1584,1.1584,1.1584,1.1584,1.1584,1.1584,1.1584,1.1584,1.1584,1.1584,1.1584,1.1584,1.1584,1.1584,1.1584,1.1584,1.1584,1.1584,1.1584,1.1584,1.1584,1.1584,1.1584,1.1584,0.0,0.0,0.0,0.0,0.0,0.0,0.0,0.0,0.0,0.0,0.0,0.0,0.0,0.2786,0.5061,0.603,0.8939,1.0688,1.0688,1.0688,1.0688,1.0688,1.0688,1.0688,1.0688,1.0688,1.0688,1.0688,1.0688,1.0688,1.0688,1.0688,1.0688,1.0688,1.0688,1.0688,1.0688,1.0688,0.0,1.0688,1.0688,1.0688,0.0,0.0,0.0,0.0,0.0,1.1501,0.0,0.0,1.5627,1.7275,0.0,0.0,0.0,0.0,0.0,0.0,2.0392,0.0,0.0,0.0,0.0,0.0,0.0,1.6451,1.4913,1.3741,1.4188,1.4472,1.335,1.325,0.0,0.0,0.0,0.0,0.0,0.0,0.0,0.0,0.0,0.0,0.0,0.0,0.0,0.0,1.1584,1.1584,1.1584,1.1584,1.1584,1.1584,1.1584,1.1584,1.1584,1.1584,1.1584,1.1584,1.1584,1.1584,1.1584,1.1584,1.1584,1.1584,1.1584,1.1584,1.1584,1.1584,1.1584,1.1584,1.1584,1.1584,1.1584,1.1584,1.1584,1.1597,0.0,0.0,0.0,0.0,0.0,0.0,0.0,0.0,0.0,0.0,0.0,0.0,0.0,0.3221,0.5095,0.4325,0.8205,1.0382,0.9609,1.0283,1.0688,1.0688,1.0688,1.0688,1.0688,1.0688,1.0688,1.0688,1.0688,1.0688,1.0688,1.0688,1.0688,1.0688,1.0688,1.0688,1.0688,1.0688,0.0,0.0,1.0688,0.0,0.0,1.0688,1.0688,0.0,0.0,0.0,1.3451,1.4456,1.6463,0.0,0.0,0.0,0.0,0.0,0.0,0.0,0.0,0.0,0.0,0.0,0.0,0.0,1.9578,1.825,1.6732,0.0,1.5857,1.5828,1.4915,1.4898,0.0,0.0,0.0,0.0,0.0,0.0,0.0,0.0,0.0,0.0,0.0,1.1584,1.1584,1.1584,1.1584,1.1584,1.1584,1.1584,1.1584,1.1584,1.1584,1.1584,1.1584,1.1584,1.1584,1.1584,1.1584,1.1584,1.1584,1.1584,1.1584,1.1584,1.1584,1.1584,1.1584,1.1584,1.1584,1.1584,1.1584,1.1584,1.1584,1.1584,1.1657,1.1682,0.0,0.0,0.0,0.0,0.0,0.0,0.0,0.0,0.0,0.0,0.0,0.0,0.0,0.3053,0.4459,0.2853,0.7431,0.9709,0.8097,0.9709,0.0,0.0,0.0,0.0,1.0688,1.0688,1.0688,1.0688,1.0688,1.0688,1.0688,1.0688,1.0688,1.0688,1.0688,1.0688,1.0688,1.0688,0.0,1.0688,1.0688,1.0688,0.0,0.0,1.0688,0.0,1.0916,1.2121,1.3648,1.4036,1.6237,0.0,0.0,0.0,0.0,0.0,2.1109,0.0,0.0,0.0,0.0,0.0,0.0,0.0,2.1109,1.9903,1.8736,0.0,1.7516,1.6612,1.6415,1.6527,0.0,0.0,0.0,0.0,0.0,0.0,0.0,0.0,0.0,0.0,1.1619,1.1584,1.1584,1.1584,1.1584,1.1584,1.1584,1.1584,1.1584,1.1584,1.1584,1.1584,1.1584,1.1584,1.1584,1.1584,1.1584,1.1584,1.1619,1.1832,1.19,1.1936,1.2115,1.2219,1.2219,1.2219,1.2112,1.19,1.19,1.2043,1.2223,1.2273,1.2225,1.2126,0.0,0.0,0.0,0.0,0.0,0.0,0.0,0.0,0.0,0.0,0.0,0.0,0.0,0.1914,0.3087,0.2719,0.626,0.8366,0.803,0.9709,1.0688,0.0,0.0,0.0,1.0688,1.0688,1.0688,1.0688,1.0688,1.0688,1.0688,1.0688,1.0688,1.0688,1.0688,1.0688,1.0688,0.0,0.0,1.0688,1.0688,0.0,1.0688,1.0688,1.0688,1.0883,1.2281,1.3905,1.5816,0.0,2.0036,2.0652,0.0,0.0,0.0,0.0,0.0,0.0,0.0,0.0,0.0,0.0,0.0,0.0,2.1109,2.0849,2.0195,0.0,1.936,1.9691,1.8293,1.8137,1.8258,0.0,0.0,0.0,0.0,0.0,0.0,0.0,0.0,0.0,1.176,1.1584,1.1584,1.1584,1.1584,1.1584,1.1584,1.1584,1.1584,1.1584,1.1584,1.1584,1.1584,1.1584,1.1584,1.1584,1.1584,1.1584,1.1655,1.3167,1.3836,1.3943,1.546,1.6091,1.6091,1.6091,1.5212,1.3836,1.3836,1.4787,1.615,1.6423,1.5511,1.418,0.0,0.0,0.0,0.0,0.0,0.0,0.0,0.0,0.0,0.0,0.0,0.0,0.0,0.1613,0.2685,0.2685,0.596,0.7997,0.0,0.0,0.0,0.0,0.0,0.0,0.0,1.0688,1.0688,1.0688,1.0688,1.0688,1.0688,1.0688,1.0688,1.0688,1.0688,1.0688,1.0688,1.0688,1.0688,1.0688,1.0688,0.0,1.0688,1.0688,1.124,1.2121,1.2997,1.4977,1.7597,2.0227,2.1109,0.0,0.0,2.1109,2.1109,0.0,2.1109,2.1109,0.0,0.0,0.0,2.1109,0.0,0.0,0.0,2.1109,2.0849,1.9966,2.0487,2.0817,1.9973,0.0,1.9962,0.0,0.0,0.0,0.0,0.0,0.0,0.0,0.0,0.0,1.3167,1.384,1.4018,1.3063,1.2992,1.2606,1.1655,1.1584,1.2043,1.2956,1.2992,1.3452,1.4369,1.4405,1.4405,1.4405,1.4405,1.4405,1.4405,1.5385,1.5804,1.5844,1.6791,1.7218,1.7218,1.7218,1.7314,1.7324,1.623,1.6471,1.747,1.7653,1.7181,1.6512,0.0,0.0,0.0,0.0,0.0,0.0,0.0,0.0,0.0,0.0,0.0,0.0135,0.0471,0.1813,0.2853,0.3187,0.616,0.0,0.0,0.0,0.0,0.0,0.0,1.0688,0.0,1.0688,1.0688,1.0688,1.0688,1.0688,1.0688,1.0688,1.0688,1.0688,1.0688,1.0688,1.0688,1.0688,0.0,1.0688,0.0,1.0688,1.0688,1.0688,1.1795,1.339,1.4068,1.6339,1.9221,2.0621,0.0,2.1109,2.1109,2.1109,0.0,0.0,0.0,0.0,0.0,0.0,0.0,0.0,0.0,2.1109,0.0,0.0,0.0,2.1109,2.1109,0.0,0.0,0.0,0.0,0.0,0.0,0.0,0.0,0.0,0.0,0.0,0.0,0.0,0.0,1.6298,1.6585,1.5066,1.4924,1.4294,1.2749,1.2678,1.3381,1.4889,1.4924,1.5663,1.7183,1.7218,1.7218,1.7218,1.7218,1.7218,1.7218,1.7604,1.7744,1.7779,1.8129,1.8304,1.8304,1.8352,1.9443,2.0815,1.8655,1.8266,1.8876,1.8925,1.8919,1.8869,0.0,0.0,0.0,0.0,0.0,0.0,0.0,0.0,0.0,0.0,0.0,0.0605,0.2216,0.0,0.0,0.0,0.0,0.0,0.7997,0.0,0.0,0.0,0.0,0.0,1.0688,0.0,1.0688,1.0688,1.0688,1.0688,1.0688,1.0688,1.0688,1.0688,1.0688,1.0688,1.0688,0.0,1.0688,0.0,1.0688,1.0688,0.0,1.0688,1.1795,1.3713,1.6791,1.9158,2.0817,0.0,2.1109,2.1109,0.0,2.1109,0.0,0.0,0.0,0.0,0.0,0.0,0.0,0.0,2.1109,0.0,0.0,0.0,2.1109,2.1109,0.0,0.0,0.0,0.0,0.0,0.0,0.0,0.0,0.0,0.0,0.0,0.0,0.0,0.0,0.0,1.7077,1.7112,1.6901,1.6866,1.6796,1.6585,1.6549,1.6655,1.6866,1.6866,1.6967,1.7218,1.7218,1.7218,1.7218,1.7218,1.7218,1.7253,1.8967,1.9773,1.9843,2.1527,2.2263,2.2282,2.2521,2.2756,2.2782,2.0874,2.1349,2.3129,2.3376,2.2354,2.0912,0.0,0.0,0.0,0.0,0.0,0.0,0.0,0.0,0.0,0.0,0.0,0.0303,0.0,0.0,0.0,0.0,0.0,0.8432,0.0,0.0,0.0,0.0,0.0,0.0,0.0,0.0,0.0,1.0688,1.0688,1.0688,1.0688,1.0688,1.0688,1.0688,1.0688,0.0,1.0688,0.0,1.0688,0.0,0.0,0.0,0.0,1.0688,1.2413,1.5269,1.8768,2.0494,2.1109,0.0,2.1109,0.0,0.0,0.0,0.0,0.0,0.0,0.0,0.0,0.0,0.0,0.0,0.0,0.0,0.0,0.0,2.1109,0.0,0.0,0.0,0.0,0.0,0.0,0.0,2.1189,0.0,0.0,0.0,0.0,0.0,0.0,0.0,0.0,0.0,0.0,0.0,1.8863,1.8374,1.7253,1.7218,1.7709,1.8868,1.8863,1.9426,2.0507,2.0507,2.0507,2.0507,2.0507,2.0507,2.0542,2.1349,2.1706,2.1775,2.2544,2.3,2.314,2.3238,2.3492,2.3727,2.295,2.3207,2.4035,2.4162,2.3748,2.3187,0.0,0.0,0.0,0.0,0.0,0.0,0.0,0.0,0.0,0.0,0.0,0.0,0.0673,0.2351,0.0,0.0,0.7733,0.9305,0.0,0.0,1.0688,0.0,0.0,0.0,0.0,0.0,0.0,1.0688,1.0688,1.0688,1.0688,1.0688,1.0688,1.0688,0.0,1.0688,1.0688,0.0,1.0688,1.0688,1.0688,1.0979,1.1468,1.1927,1.3713,1.6372,1.9839,2.1109,2.1109,2.1109,2.1109,0.0,2.1109,0.0,0.0,0.0,0.0,0.0,2.1109,0.0,0.0,0.0,0.0,0.0,0.0,0.0,0.0,0.0,0.0,0.0,0.0,0.0,0.0,0.0,0.0,2.1136,0.0,0.0,0.0,0.0,0.0,0.0,0.0,0.0,0.0,0.0,0.0,2.0265,1.8828,1.8758,1.942,2.0825,2.0859,2.1527,2.2893,2.2893,2.2893,2.2893,2.2893,2.2893,2.2893,2.2893,2.294,2.3027,2.3027,2.3166,2.3454,2.3534,2.3785,2.4209,2.4289,2.4322,2.4322,2.4322,2.4419,2.4599,0.0,0.0,0.0,0.0,0.0,0.0,0.0,0.0,0.0,0.0,0.0,0.0,0.0,0.0,0.0,0.0,0.0,1.0651,1.0688,0.0,1.0688,0.0,0.0,1.0688,0.0,0.0,0.0,0.0,1.0688,1.0688,1.0688,1.0688,1.0688,1.0688,1.0688,1.0688,1.0688,1.0688,1.0688,1.0688,1.0688,1.1699,1.3386,0.0,1.5789,1.6372,1.9839,0.0,0.0,2.1109,2.1109,0.0,0.0,0.0,0.0,0.0,0.0,0.0,0.0,0.0,0.0,2.1109,0.0,0.0,0.0,0.0,2.1109,0.0,0.0,0.0,0.0,0.0,0.0,0.0,0.0,0.0,0.0,0.0,0.0,0.0,0.0,0.0,0.0,0.0,0.0,0.0,0.0,0.0,2.2722,2.2722,2.2756,2.2791,2.2791,2.2825,2.2893,2.2893,2.2893,2.2893,2.2893,2.2893,2.2893,2.2893,2.3026,2.3278,2.3278,2.348,2.381,2.4062,2.4182,2.4235,2.4479,2.4586,2.4586,2.4586,2.4592,2.4599,0.0,0.0,0.0,0.0,0.0,0.0,0.0,0.0,0.0,0.0,0.0,0.0,0.0,0.5359,0.7362,0.0,0.0,1.0688,1.0688,1.0688,0.0,0.0,0.0,1.0688,0.0,0.0,0.0,0.0,0.0,1.0688,1.0688,1.0688,1.0688,1.0688,0.0,1.0688,0.0,0.0,0.0,0.0,0.0,1.1729,1.3484,0.0,0.0,1.7923,2.0265,2.1109,0.0,2.1109,2.1109,2.1109,2.1109,2.1109,2.1109,2.1109,2.1109,0.0,0.0,0.0,2.1109,2.1109,0.0,0.0,0.0,0.0,0.0,0.0,0.0,0.0,0.0,0.0,0.0,0.0,0.0,0.0,0.0,0.0,0.0,0.0,0.0,0.0,0.0,0.0,0.0,0.0,2.2893,0.0,0.0,2.2893,2.2893,2.2893,2.2893,2.2893,2.2893,2.2893,2.2893,2.2893,2.2893,2.2893,2.2907,2.3073,2.3227,2.3305,2.3534,2.3788,2.4068,2.4162,2.4315,2.4459,2.4559,2.4599,2.4599,2.4599,2.4599,2.4599,0.0,0.0,0.0,0.0,0.0,0.0,0.0,0.0,0.0,0.0,0.1981,0.0,0.359,0.0,0.7997,0.0,0.9643,1.0711,1.0765,1.0718,0.0,1.0765,1.0718,0.0,0.0,0.0,0.0,0.0,0.0,1.0688,1.0688,1.0688,1.0688,1.0688,1.0688,1.0688,1.0688,1.0688,1.0688,0.0,0.0,1.2672,0.0,0.0,1.7532,1.8736,0.0,2.0684,2.0259,2.0881,2.0684,2.0297,2.0912,2.1109,2.1109,2.1109,2.1109,2.1109,2.1109,2.1109,0.0,2.1109,2.1109,0.0,2.1109,0.0,0.0,0.0,0.0,0.0,0.0,0.0,0.0,0.0,0.0,0.0,0.0,2.1109,0.0,0.0,0.0,0.0,0.0,0.0,0.0,2.2873,2.2893,0.0,0.0,0.0,2.2893,2.2893,2.2893,2.2893,2.2893,2.2893,2.2893,2.2893,2.2893,2.2954,2.3033,2.3233,2.3405,2.3612,2.3841,2.4088,2.4356,2.4356,2.4432,2.4599,2.4599,2.4599,2.4599,2.4599,2.4599,2.4599,0.0,0.0,0.0,0.0,0.0,0.0,0.0,0.0,0.0639,0.0,0.2785,0.3523,0.5335,0.7105,0.8141,0.8148,0.9731,0.0,1.0917,1.0789,0.0,0.0,1.0775,1.0694,1.0688,0.0,0.0,0.0,0.0,0.0,1.0688,1.0688,1.0688,1.0688,1.0688,0.0,1.0688,1.0688,1.0754,1.0982,1.2639,1.439,1.621,1.7903,1.8524,1.8754,2.0513,1.9966,1.8676,2.0533,1.9979,1.8836,2.0596,2.1149,2.1149,2.1149,2.1149,2.1149,2.1149,2.1149,2.1149,2.1149,0.0,0.0,0.0,0.0,2.1109,0.0,0.0,0.0,0.0,0.0,0.0,0.0,0.0,0.0,0.0,0.0,0.0,0.0,0.0,0.0,0.0,0.0,0.0,2.2873,2.2893,2.2893,0.0,0.0,2.2893,2.2893,2.2893,2.2893,2.2893,2.2893,2.2893,2.2893,2.2914,2.304,2.3292,2.3319,2.3674,2.4202,2.4215,2.4346,2.4599,2.4599,2.4599,2.4599,2.4599,2.4599,2.4599,2.4599,2.4599,2.4599,0.0,0.0,0.0,0.0,0.0,0.0,0.0,0.0,0.0,0.0,0.3856,0.5451,0.7337,0.9115,1.0211,1.0381,1.0807,0.0,0.0,0.0,0.0,1.0917,1.0877,1.0803,1.0688,1.0688,0.0,1.0688,0.0,0.0,1.0688,1.0688,1.0688,1.0688,1.0688,1.0688,1.0688,1.0688,1.1439,1.2672,1.3128,1.5107,0.0,0.0,1.8762,1.8897,2.078,1.9512,1.7442,2.0685,2.0554,1.9358,2.1195,2.1757,2.1757,2.1757,2.1757,2.1757,2.1757,2.1757,2.1757,2.1757,2.1629,2.1468,0.0,0.0,0.0,0.0,0.0,0.0,0.0,0.0,0.0,0.0,0.0,0.0,0.0,0.0,0.0,0.0,0.0,0.0,0.0,0.0,2.2311,2.2853,2.2893,2.2893,0.0,0.0,0.0,2.2893,2.2893,2.2893,2.2893,2.2893,2.2893,2.29,2.31,2.3212,2.3305,2.3745,2.4062,2.4215,2.4392,2.4532,2.4599,2.4599,2.4599,2.4599,2.4599,2.4599,2.4599,2.4599,2.4599,2.4599,0.0,0.0,0.0,0.0,0.0,0.0,0.0,0.0,0.0,0.362,0.4861,0.0,0.9268,1.0452,1.1077,1.1189,1.1196,0.0,0.0,0.0,0.0,1.111,1.1043,1.0938,1.0789,1.0786,0.0,1.0688,0.0,0.0,1.0688,1.0688,1.0688,1.0688,1.0688,1.0688,1.0754,1.1501,1.2836,1.4432,1.4491,0.0,0.0,1.8065,1.8366,1.9235,2.0315,1.8919,1.7053,2.0762,2.0802,1.9587,2.1443,2.1984,2.1984,2.1984,2.1984,2.1984,2.1984,2.1984,2.1984,2.1984,2.1897,2.177,2.177,2.1642,2.149,0.0,0.0,0.0,0.0,0.0,0.0,0.0,0.0,0.0,0.0,0.0,0.0,0.0,0.0,0.0,0.0,0.0,2.2365,2.286,2.2893,0.0,0.0,0.0,0.0,2.2893,2.2893,2.2893,2.2893,2.2893,2.2893,2.29,2.318,2.3394,2.3534,2.3995,2.4269,2.4366,2.4526,2.4599,2.4599,2.4599,2.4599,2.4599,2.4599,2.4599,2.4599,2.4599,2.4599,2.4599,0.0,0.0,0.0,0.0,0.0,0.0,0.0,0.0375,0.0,0.5128,0.0,0.7328,1.0839,1.1227,1.1237,1.1254,0.0,1.1312,1.1413,1.1332,1.1308,1.1385,1.1298,1.1124,1.0945,1.0945,0.0,0.0,0.0,0.0,1.0688,1.0688,1.0688,1.0688,1.0688,0.0,0.0,1.2437,1.4109,1.5914,1.5843,1.6955,1.8505,1.7006,1.7627,1.926,1.9568,1.8381,1.7248,2.0876,2.0943,1.9783,2.1554,2.2131,2.2131,2.2131,2.2131,2.2131,2.2131,2.2131,2.2131,2.2131,2.2071,2.2044,2.2044,2.2017,2.1984,2.1984,2.1984,2.1984,0.0,0.0,0.0,0.0,0.0,0.0,0.0,0.0,0.0,0.0,0.0,0.0,0.0,0.0,0.0,2.2873,2.2893,0.0,0.0,0.0,0.0,2.2893,2.2893,2.2893,2.2893,0.0,2.292,2.296,2.3233,2.3541,2.387,2.4128,2.4396,2.4599,2.4599,2.4599,2.4599,2.4599,2.4599,2.4599,2.4599,2.4599,2.4599,2.4599,2.4599,2.4599,0.0,0.0,0.0,0.0,0.0,0.0547,0.2153,0.2397,0.3151,0.5333,0.6988,0.8863,1.1124,1.1352,1.1402,1.1528,1.1538,0.0,0.0,0.0,0.0,1.1396,1.1365,1.1315,1.1162,1.1159,1.1053,0.0,0.0,0.0,1.0688,1.0688,1.0688,1.0688,0.0,0.0,1.2779,1.1747,0.0,1.5952,1.4726,1.5272,1.6843,1.6763,1.6972,1.7549,1.9352,1.8774,1.7659,2.1485,2.152,2.03,2.2154,2.274,2.274,2.274,2.274,2.274,2.274,2.274,2.274,2.274,2.2525,2.2345,2.2345,2.2158,2.1984,2.1984,2.1984,2.1984,2.1984,0.0,0.0,0.0,0.0,0.0,0.0,0.0,0.0,0.0,0.0,0.0,0.0,0.0,0.0,0.0,0.0,0.0,0.0,0.0,0.0,0.0,2.2893,0.0,0.0,0.0,2.3027,2.3212,2.3547,2.3848,2.4142,2.4429,2.4552,2.4599,2.4599,2.4599,2.4599,2.4599,2.4599,2.4599,2.4599,2.4599,2.4599,2.4599,2.4599,2.4599,0.0,0.0,0.0,0.0,0.0,0.0,0.0,0.4627,0.0,0.7083,0.7134,0.8211,1.1177,1.1508,1.1538,1.1577,1.1584,1.1584,1.1584,1.1584,1.1586,1.1511,1.1508,0.0,1.1319,1.1315,1.1209,1.106,0.0,0.0,0.0,1.084,1.0803,1.0803,0.0,1.184,0.0,0.0,0.0,1.6104,1.4524,1.5556,1.7868,1.6198,1.7389,1.9978,2.0079,2.0126,2.0438,2.2297,2.2297,2.1706,2.2613,2.2893,2.2893,2.2893,2.2893,2.2893,2.2893,2.2893,2.2893,2.2893,2.2786,2.2645,2.2645,2.2572,2.2472,2.2472,2.2472,2.2392,2.2238,2.2211,0.0,0.0,0.0,0.0,0.0,0.0,0.0,0.0,0.0,0.0,0.0,0.0,0.0,0.0,0.0,0.0,0.0,0.0,0.0,0.0,0.0,0.0,0.0,0.0,0.0,2.3292,2.3627,2.3921,2.4215,2.4466,2.4599,2.4599,2.4599,2.4599,2.4599,2.4599,2.4599,2.4599,2.4599,2.4599,2.4599,2.4599,2.4599,2.4599,0.0,0.0,0.0,0.0,0.1603,0.0,0.3441,0.613,0.8241,0.8644,0.7735,0.8201,1.1257,1.1584,1.1584,1.1584,1.1584,1.1584,1.1584,1.1584,1.1584,1.1584,1.1584,1.1562,1.1443,1.144,1.1365,0.0,0.0,0.0,0.0,0.0,0.0,0.0,0.0,0.0,0.0,0.0,1.5121,1.6938,1.5346,1.6466,1.8804,1.6025,1.8049,2.2125,2.0617,2.1321,2.2893,2.2893,2.2893,2.2893,2.2893,2.2893,2.2893,2.2893,2.2893,2.2893,2.2893,2.2893,2.2893,2.2893,2.2893,2.2893,2.2893,2.2893,2.2893,2.2893,2.2893,2.2827,2.2552,2.2512,0.0,0.0,0.0,0.0,0.0,0.0,0.0,0.0,0.0,0.0,0.0,0.0,0.0,0.0,0.0,0.0,0.0,0.0,0.0,0.0,0.0,2.2893,2.2893,0.0,2.312,0.0,2.3721,2.4015,2.4302,2.4492,2.4599,2.4599,2.4599,2.4599,2.4599,2.4599,2.4599,2.4599,2.4599,2.4599,2.4599,2.4599,2.4599,2.4599,0.0,0.0,0.0,0.0,0.0,0.0,0.0,0.5822,0.6707,0.8477,1.0078,1.1217,1.1548,1.1584,1.1584,1.1584,1.1584,1.1584,1.1584,1.1584,1.1584,1.1584,1.1584,1.1577,1.1563,1.1563,1.1525,0.0,0.0,0.0,0.0,0.0,0.0,0.0,0.0,0.0,0.0,1.4772,1.6151,1.9175,1.7544,1.7117,1.7398,1.7067,1.8369,2.0334,2.0161,2.1321,2.2893,2.2893,2.2893,2.2893,2.2893,2.2893,2.2893,2.2893,2.2893,2.2893,2.2893,2.2893,2.2893,2.2893,2.2893,2.2893,2.2893,2.2893,2.2893,2.2893,2.2893,2.2887,2.286,2.2853,2.2847,0.0,0.0,0.0,0.0,0.0,0.0,0.0,0.0,0.0,0.0,0.0,0.0,0.0,0.0,0.0,0.0,0.0,0.0,2.2893,0.0,2.2893,2.2893,2.314,2.3434,2.377,2.4022,2.4315,2.4559,2.4586,2.4599,2.4599,2.4599,2.4599,2.4599,2.4599,2.4599,2.4599,2.4599,2.4599,2.4599,2.4599,2.4599,2.4599,0.0,0.0,0.0,0.0,0.0,0.0,0.0,0.8534,0.9562,1.034,1.009,1.0305,1.1472,1.1584,1.1584,1.1584,1.1584,1.1584,1.1584,1.1584,1.1584,1.1584,1.1584,1.1584,1.1584,1.1584,1.1553,0.0,0.0,0.0,0.0,0.0,0.0,0.0,0.0,1.3864,1.5324,1.5787,1.6833,1.8101,1.7458,1.7884,1.8932,1.8932,2.0126,2.1775,2.1775,2.2263,2.2893,2.2893,2.2893,2.2893,2.2893,2.2893,2.2893,2.2893,2.2893,2.2893,2.2893,2.2893,2.2893,2.2893,2.2893,2.2893,2.2893,2.2893,2.2893,2.2893,2.2893,2.2893,2.2893,2.2893,2.2893,0.0,0.0,0.0,0.0,0.0,0.0,0.0,0.0,0.0,0.0,0.0,0.0,0.0,0.0,0.0,0.0,0.0,0.0,2.2893,0.0,2.2987,2.314,2.3267,2.3567,2.4028,2.4148,2.4356,2.4599,2.4599,2.4599,2.4599,2.4599,2.4599,2.4599,2.4599,2.4599,2.4599,2.4599,2.4599,2.4599,2.4599,2.4599,2.4599,0.0,0.0,0.1293,0.0,0.4979,0.711,0.8485,1.0341,1.1584,1.1584,1.0413,1.0086,1.1436,1.1584,1.1584,1.1584,1.1584,1.1584,1.1584,1.1584,1.1584,1.1584,1.1584,0.0,1.1584,1.1584,1.1584,1.1584,1.1584,0.0,0.0,0.0,0.0,0.0,1.3435,1.4622,1.5349,1.7248,1.8374,1.8863,1.8863,1.9704,2.0928,2.0928,2.1741,2.2893,2.2893,2.2893,2.2893,2.2893,2.2893,2.2893,2.2893,2.2893,2.2893,2.2893,2.2893,2.2893,2.2893,2.2893,2.2893,2.2893,2.2893,2.2893,2.2893,2.2893,2.2893,2.2893,2.2893,2.2893,2.2893,2.2893,2.2893,2.2893,0.0,0.0,0.0,0.0,0.0,0.0,0.0,2.2893,2.2893,0.0,0.0,0.0,0.0,0.0,0.0,0.0,0.0,0.0,0.0,0.0,0.0,2.3465,2.3794,2.4202,2.4289,2.4436,2.4599,2.4599,2.4599,2.4599,2.4599,2.4599,2.4599,2.4599,2.4599,2.4599,2.4599,2.4599,2.4599,2.4599,2.4599,2.4599,0.0,0.1551,0.2871,0.2907,0.6094,0.8665,0.8701,1.0341,1.1584,1.1584,1.1584,1.1584,1.1584,1.1584,1.1584,1.1584,1.1584,1.1584,1.1584,1.1584,1.1584,0.0,0.0,1.1584,1.1584,1.1584,1.1584,1.1584,0.0,0.0,1.1396,0.0,1.147,1.1688,1.3551,1.5416,1.7288,1.9252,2.1142,2.2825,2.2825,2.2866,2.2859,2.2859,2.2866,2.2893,2.2893,2.2893,2.2893,2.2893,2.2893,2.2893,2.2893,2.2893,2.2893,2.2893,2.2893,2.2893,2.2893,2.2893,2.2893,2.2893,2.2893,2.2893,2.2893,2.2893,2.2893,2.2893,2.2893,2.2893,2.2893,2.2893,2.2893,2.2893,0.0,0.0,0.0,0.0,0.0,0.0,2.2893,2.2893,2.2893,0.0,0.0,0.0,0.0,0.0,0.0,0.0,0.0,2.2893,2.316,0.0,2.3292,2.3901,2.4195,2.4209,2.4459,2.4599,2.4599,2.4599,2.4599,2.4599,2.4599,2.4599,2.4599,2.4599,2.4599,2.4599,2.4599,2.4599,2.4599,2.4599,2.4599,2.4599,0.1713,0.2487,0.3742,0.6383,0.7869,0.9139,1.0485,1.1217,1.1584,1.1584,1.1584,1.1584,1.1584,1.1584,1.1584,0.0,1.1584,1.1584,0.0,1.1584,1.1584,1.1584,1.1584,1.1584,1.1584,1.1584,1.1584,1.1584,0.0,0.0,0.0,1.2841,1.3464,1.3662,1.6856,1.8613,1.9286,2.1211,2.2338,2.2893,2.2893,2.2893,2.2893,2.2893,2.2893,2.2893,2.2893,2.2893,2.2893,2.2893,2.2893,2.2893,2.2893,2.2893,2.2893,2.2893,2.2893,2.2893,2.2893,2.2893,2.2893,2.2893,2.2893,2.2893,2.2893,2.2893,2.2893,2.2893,2.2893,2.2893,2.2893,2.2893,2.2893,2.2893,2.2893,0.0,0.0,0.0,0.0,0.0,2.2893,2.2893,0.0,2.2893,0.0,0.0,0.0,0.0,0.0,0.0,0.0,0.0,2.3166,0.0,2.3627,2.4008,2.4302,2.4459,2.4559,2.4599,2.4599,2.4599,2.4599,2.4599,2.4599,2.4599,2.4599,2.4599,2.4599,2.4599,2.4599,2.4599,2.4599,2.4599,2.4599,2.4599,0.2657,0.4081,0.5841,0.8268,0.9321,1.0194,1.14,1.1584,1.1584,1.1584,1.1584,1.1584,1.1584,1.1584,0.0,1.1584,1.1584,1.1584,1.1584,1.1584,1.1584,1.1584,1.1584,1.1584,1.1584,0.0,0.0,1.1584,1.1584,1.1972,1.2674,1.3836,1.4783,1.5592,1.8718,2.0091,2.023,2.2091,2.2893,2.2893,2.2893,2.2893,2.2893,2.2893,2.2893,2.2893,2.2893,2.2893,2.2893,2.2893,2.2893,2.2893,2.2893,2.2893,2.2893,2.2893,2.2893,2.2893,2.2893,2.2893,2.2893,2.2893,2.2893,2.2893,2.2893,2.2893,2.2893,2.2893,2.2893,2.2893,2.2893,2.2893,2.2893,2.2893,2.2893,2.2893,0.0,0.0,0.0,0.0,0.0,0.0,0.0,2.2893,0.0,0.0,0.0,0.0,0.0,0.0,0.0,2.3033,2.3333,0.0,2.3964,2.4222,2.4419,2.4599,2.4599,2.4599,2.4599,2.4599,2.4599,2.4599,2.4599,2.4599,2.4599,2.4599,2.4599,2.4599,2.4599,2.4599,2.4599,2.4599,2.4599,2.4599,0.3234,0.6203,0.0,0.0,1.0413,0.0,1.1584,1.1584,1.1584,1.1584,1.1584,1.1584,1.1584,1.1584,1.1584,1.1584,0.0,0.0,0.0,1.1584,1.1584,1.1584,1.1584,1.1584,1.1584,1.1584,1.1584,1.1584,1.1724,1.2674,1.4397,1.4676,1.5734,1.7499,1.9426,2.03,2.0403,2.216,2.2893,2.2893,2.2893,2.2893,2.2893,2.2893,2.2893,2.2893,2.2893,2.2893,2.2893,2.2893,2.2893,2.2893,2.2893,2.2893,2.2893,2.2893,2.2893,2.2893,2.2893,2.2893,2.2893,2.2893,2.2893,2.2893,2.2893,2.2893,2.2893,2.2893,2.2893,2.2893,2.2893,2.2893,2.2893,2.2893,2.2893,2.2893,2.2893,0.0,0.0,0.0,0.0,0.0,0.0,2.2893,2.2893,0.0,0.0,0.0,0.0,0.0,2.3094,2.3312,2.3647,2.3964,2.4202,2.4452,2.4599,2.4599,2.4599,2.4599,2.4599,2.4599,2.4599,2.4599,2.4599,2.4599,2.4599,2.4599,2.4599,2.4599,2.4599,2.4599,2.4599,2.4599,2.4599,2.4599,0.0,0.0,0.9175,1.0632,1.1289,1.1584,1.1584,1.1584,1.1584,1.1584,1.1584,1.1584,1.1584,1.1584,1.1584,1.1584,1.1584,1.1584,1.1584,1.1584,1.1584,1.1584,1.1584,1.1584,1.1584,1.1584,1.1584,1.1584,1.3028,1.3974,1.4463,1.7383,1.9002,1.9495,2.139,2.2229,2.2263,2.2722,2.2893,2.2893,2.2893,2.2893,2.2893,2.2893,2.2893,2.2893,2.2893,2.2893,2.2893,2.2893,2.2893,2.2893,2.2893,2.2893,2.2893,2.2893,2.2893,2.2893,2.2893,2.2893,2.2893,2.2893,2.2893,2.2893,2.2893,2.2893,2.2893,2.2893,2.2893,2.2893,2.2893,2.2893,2.2893,2.2893,2.2893,2.2893,2.2893,2.2893,0.0,0.0,2.2893,2.2893,2.2893,2.2893,2.2893,0.0,0.0,0.0,0.0,2.3474,2.3623,2.3661,2.3948,2.4135,2.4202,2.4452,2.4599,2.4599,2.4599,2.4599,2.4599,2.4599,2.4599,2.4599,2.4599,2.4599,2.4599,2.4599,2.4599,2.4599,2.4599,2.4599,2.4599,2.4599,2.4599,2.4599,0.8268,0.943,1.0377,1.1436,1.1584,1.1584,1.1584,1.1584,1.1584,1.1584,1.1584,1.1584,1.1584,1.1584,1.1584,1.1584,1.1584,1.1584,1.1584,1.1584,1.1584,1.1584,1.1584,1.1584,1.1584,1.1584,1.1584,1.1584,1.3484,1.4853,1.5734,1.8718,2.0548,2.1424,2.2441,2.2893,2.2893,2.2893,2.2893,2.2893,2.2893,2.2893,2.2893,2.2893,2.2893,2.2893,2.2893,2.2893,2.2893,2.2893,2.2893,2.2893,2.2893,2.2893,2.2893,2.2893,2.2893,2.2893,2.2893,2.2893,2.2893,2.2893,2.2893,2.2893,2.2893,2.2893,2.2893,2.2893,2.2893,2.2893,2.2893,2.2893,2.2893,2.2893,2.2893,2.2893,2.2893,2.2893,0.0,2.2893,2.2893,2.2954,2.306,2.3073,2.3168,2.3302,0.0,0.0,2.3685,2.3881,2.3968,2.3968,2.4122,2.4269,2.4396,2.4519,2.4599,2.4599,2.4599,2.4599,2.4599,2.4599,2.4599,2.4599,2.4599,2.4599,2.4599,2.4599,2.4599,2.4599,2.4599,2.4599,2.4599,2.4599,2.4599,2.4599,0.9067,1.0485,1.1584,1.1584,1.1584,1.1584,1.1584,1.1584,1.1584,1.1584,1.1584,1.1584,1.1584,1.1584,1.1584,1.1584,1.1584,1.1584,1.1584,1.1584,1.1584,1.1584,1.1584,1.1584,1.1584,1.1584,1.1724,1.2008,1.3907,1.5804,1.7674,1.9634,2.1355,2.2893,2.2893,2.2893,2.2893,2.2893,2.2893,2.2893,2.2893,2.2893,2.2893,2.2893,2.2893,2.2893,2.2893,2.2893,2.2893,2.2893,2.2893,2.2893,2.2893,2.2893,2.2893,2.2893,2.2893,2.2893,2.2893,2.2893,2.2893,2.2893,2.2893,2.2893,2.2893,2.2893,2.2893,2.2893,2.2893,2.2893,2.2893,2.2893,2.2893,2.2893,2.2893,2.2893,2.2893,0.0,2.2967,2.2967,2.3007,2.3141,2.3332,2.3394,2.3494,2.379,2.3843,2.3941,0.0,2.4249,2.4269,2.4269,2.4269,2.4389,2.4599,2.4599,2.4599,2.4599,2.4599,2.4599,2.4599,2.4599,2.4599,2.4599,2.4599,2.4599,2.4599,2.4599,2.4599,2.4599,2.4599,2.4599,2.4599,2.4599,2.4599,2.4599,1.0815,1.14,1.1584,1.1584,1.1584,1.1584,1.1584,1.1584,1.1584,1.1584,1.1584,1.1584,1.1584,1.1584,1.1584,1.1584,1.1584,1.1584,1.1584,1.1584,1.1584,1.1584,1.1584,1.1584,1.1584,1.1584,1.2395,1.3974,1.5844,1.7774,1.9704,2.1562,2.2613,2.2893,2.2893,2.2893,2.2893,2.2893,2.2893,2.2893,2.2893,2.2893,2.2893,2.2893,2.2893,2.2893,2.2893,2.2893,2.2893,2.2893,2.2893,2.2893,2.2893,2.2893,2.2893,2.2893,2.2893,2.2893,2.2893,2.2893,2.2893,2.2893,2.2893,2.2893,2.2893,2.2893,2.2893,2.2893,2.2893,2.2893,2.2893,2.2893,2.2893,2.2893,2.2893,2.2893,2.2893,0.0,2.3253,2.3253,2.348,2.369,2.373,2.3736,2.3721,2.3803,2.3995,2.4155,2.4202,2.4399,2.4532,2.4532,2.4532,2.4552,2.4599,2.4599,2.4599,2.4599,2.4599,2.4599,2.4599,2.4599,2.4599,2.4599,2.4599,2.4599,2.4599,2.4599,2.4599,2.4599,2.4599,2.4599,2.4599,2.4599,2.4599,2.4599,1.1436,1.1584,1.1584,1.1584,1.1584,1.1584,1.1584,1.1584,1.1584,1.1584,1.1584,1.1584,1.1584,1.1584,1.1584,1.1584,1.1584,1.1584,1.1584,1.1584,1.1584,1.1584,1.1584,1.1584,1.1584,1.1584,1.2008,1.2885,1.5774,1.7674,1.8584,2.1527,2.2893,2.2893,2.2893,2.2893,2.2893,2.2893,2.2893,2.2893,2.2893,2.2893,2.2893,2.2893,2.2893,2.2893,2.2893,2.2893,2.2893,2.2893,2.2893,2.2893,2.2893,2.2893,2.2893,2.2893,2.2893,2.2893,2.2893,2.2893,2.2893,2.2893,2.2893,2.2893,2.2893,2.2893,2.2893,2.2893,2.2893,2.2893,2.2893,2.2893,2.2954,2.3086,2.3113,0.0,0.0,2.3474,2.3567,2.3567,2.3723,2.387,2.3988,2.4008,2.4068,2.4222,2.4362,2.4436,2.4436,2.4526,2.4599,2.4599,2.4599,2.4599,2.4599,2.4599,2.4599,2.4599,2.4599,2.4599,2.4599,2.4599,2.4599,2.4599,2.4599,2.4599,2.4599,2.4599,2.4599,2.4599,2.4599,2.4599,2.4599,2.4599,2.4599,2.4599,1.1584,1.1584,1.1584,1.1584,1.1584,1.1584,1.1584,1.1584,1.1584,1.1584,1.1584,1.1584,1.1584,1.1584,1.1584,1.1584,1.1584,1.1584,1.1584,1.1584,1.1584,1.1584,1.1584,1.1584,1.1584,1.1584,1.2043,1.2892,1.5778,1.7634,1.8584,2.1527,2.2893,2.2893,2.2893,2.2893,2.2893,2.2893,2.2893,2.2893,2.2893,2.2893,2.2893,2.2893,2.2893,2.2893,2.2893,2.2893,2.2893,2.2893,2.2893,2.2893,2.2893,2.2893,2.2893,2.2893,2.2893,2.2893,2.2893,2.2893,2.2893,2.2893,2.2893,2.2893,2.2893,2.2893,2.2893,2.2893,2.2893,2.292,2.2987,2.3,2.3108,2.338,0.0,0.0,0.0,2.3863,2.391,2.391,2.3964,2.4062,2.4282,2.4302,2.4396,2.4579,2.4599,2.4599,2.4599,2.4599,2.4599,2.4599,2.4599,2.4599,2.4599,2.4599,2.4599,2.4599,2.4599,2.4599,2.4599,2.4599,2.4599,2.4599,2.4599,2.4599,2.4599,2.4599,2.4599,2.4599,2.4599,2.4599,2.4599,2.4599,2.4599,2.4599,1.1584,1.1584,1.1584,1.1584,1.1584,1.1584,1.1584,1.1584,1.1584,1.1584,1.1584,1.1584,1.1584,1.1584,1.1584,1.1584,1.1584,1.1584,1.1584,1.1584,1.1584,1.1584,1.1584,1.1584,1.1584,1.1584,1.3313,1.6796,1.7077,1.9002,2.2475,2.2756,2.2893,2.2893,2.2893,2.2893,2.2893,2.2893,2.2893,2.2893,2.2893,2.2893,2.2893,2.2893,2.2893,2.2893,2.2893,2.2893,2.2893,2.2893,2.2893,2.2893,2.2893,2.2893,2.2893,2.2893,2.2893,2.2893,2.2893,2.2893,2.2893,2.2893,2.2893,2.2893,2.2893,2.2893,2.2893,2.2893,2.2893,2.2987,2.3205,2.3258,2.3394,2.3723,0.0,0.0,2.3803,2.4001,2.4168,2.4168,2.4372,2.4546,2.4566,2.4566,2.4579,2.4599,2.4599,2.4599,2.4599,2.4599,2.4599,2.4599,2.4599,2.4599,2.4599,2.4599,2.4599,2.4599,2.4599,2.4599,2.4599,2.4599,2.4599,2.4599,2.4599,2.4599,2.4599,2.4599,2.4599,2.4599,2.4599,2.4599,2.4599,2.4599,2.4599,2.4599,1.1584,1.1584,1.1584,1.1584,1.1584,1.1584,1.1584,1.1584,1.1584,1.1584,1.1584,1.1584,1.1584,1.1584,1.1584,1.1584,1.1584,1.1584,1.1584,1.1584,1.1584,1.1584,1.1584,1.1584,1.1584,1.2745,1.4049,1.5451,1.7844,1.9739,2.1176,2.2372,2.2893,2.2893,2.2893,2.2893,2.2893,2.2893,2.2893,2.2893,2.2893,2.2893,2.2893,2.2893,2.2893,2.2893,2.2893,2.2893,2.2893,2.2893,2.2893,2.2893,2.2893,2.2893,2.2893,2.2893,2.2893,2.2893,2.2893,2.2893,2.2893,2.2893,2.2893,2.2893,2.2893,2.2893,2.2954,2.3106,2.3153,2.324,2.3547,2.3601,2.3701,2.3988,0.0,2.4102,2.4282,2.4366,2.4432,2.4432,2.4532,2.4599,2.4599,2.4599,2.4599,2.4599,2.4599,2.4599,2.4599,2.4599,2.4599,2.4599,2.4599,2.4599,2.4599,2.4599,2.4599,2.4599,2.4599,2.4599,2.4599,2.4599,2.4599,2.4599,2.4599,2.4599,2.4599,2.4599,2.4599,2.4599,2.4599,2.4599,2.4599,2.4599,2.4599,2.4626,1.1584,1.1584,1.1584,1.1584,1.1584,1.1584,1.1584,1.1584,1.1584,1.1584,1.1584,1.1584,1.1584,1.1584,1.1584,1.1584,1.1584,1.1584,1.1584,1.1584,1.1584,1.1584,1.1584,1.1864,1.2463,1.3729,1.4995,1.6188,1.8828,2.0403,2.1004,2.2297,2.2893,2.2893,2.2893,2.2893,2.2893,2.2893,2.2893,2.2893,2.2893,2.2893,2.2893,2.2893,2.2893,2.2893,2.2893,2.2893,2.2893,2.2893,2.2893,2.2893,2.2893,2.2893,2.2893,2.2893,2.2893,2.2893,2.2893,2.2893,2.2893,2.2893,2.2893,2.292,2.3021,2.3041,2.3093,2.34,2.3467,2.3554,2.3855,2.3944,2.4001,2.4295,2.4342,2.4372,2.4572,2.4599,2.4599,2.4599,2.4599,2.4599,2.4599,2.4599,2.4599,2.4599,2.4599,2.4599,2.4599,2.4599,2.4599,2.4599,2.4599,2.4599,2.4599,2.4599,2.4599,2.4599,2.4599,2.4599,2.4599,2.4599,2.4599,2.4599,2.4599,2.4599,2.4599,2.4599,2.4599,2.4599,2.4599,2.4599,2.4599,2.4599,2.4599,2.4646,1.1584,1.1584,1.1584,1.1584,1.1584,1.1584,1.1584,1.1584,1.1584,1.1584,1.1584,1.1584,1.1584,1.1584,1.1584,1.1584,1.1584,1.1584,1.1584,1.1584,1.1619,1.1619,1.1619,1.2499,1.4361,1.4432,1.6293,2.0091,2.0091,2.1073,2.2893,2.2893,2.2893,2.2893,2.2893,2.2893,2.2893,2.2893,2.2893,2.2893,2.2893,2.2893,2.2893,2.2893,2.2893,2.2893,2.2893,2.2893,2.2893,2.2893,2.2893,2.2893,2.2893,2.2893,2.2893,2.2893,2.2893,2.2893,2.2893,2.2893,2.29,2.2893,2.29,2.298,2.3253,2.3292,2.3414,2.375,2.381,2.3904,2.4155,2.4209,2.4302,2.4552,2.4599,2.4599,2.4599,2.4599,2.4599,2.4599,2.4599,2.4599,2.4599,2.4599,2.4599,2.4599,2.4599,2.4599,2.4599,2.4599,2.4599,2.4599,2.4599,2.4599,2.4599,2.4599,2.4599,2.4599,2.4599,2.4599,2.4599,2.4599,2.4599,2.4599,2.4599,2.4599,2.4599,2.4599,2.4599,2.4599,2.4599,2.4599,2.4599,2.4599,2.4599,2.4646,1.1584,1.1584,1.1584,1.1584,1.1584,1.1584,1.1584,1.1584,1.1584,1.1584,1.1584,1.1584,1.1584,1.1584,1.1584,1.1584,1.1584,1.1584,1.1584,1.1584,1.2183,1.3519,1.3555,1.3836,1.4397,1.7032,1.8967,2.0091,2.1424,2.2338,2.2893,2.2893,2.2893,2.2893,2.2893,2.2893,2.2893,2.2893,2.2893,2.2893,2.2893,2.2893,2.2893,2.2893,2.2893,2.2893,2.2893,2.2893,2.2893,2.2893,2.2893,2.2893,2.2893,2.2893,2.2893,2.2893,2.2893,2.2893,2.2893,2.3026,2.314,2.2954,2.3026,2.3213,2.3272,2.3487,2.3721,2.4015,2.4075,2.4162,2.4412,2.4472,2.4499,2.4586,2.4599,2.4599,2.4599,2.4599,2.4599,2.4599,2.4599,2.4599,2.4599,2.4599,2.4599,2.4599,2.4599,2.4599,2.4599,2.4599,2.4599,2.4599,2.4599,2.4599,2.4599,2.4599,2.4599,2.4599,2.4599,2.4599,2.4599,2.4599,2.4599,2.4599,2.4599,2.4599,2.4599,2.4599,2.4599,2.4599,2.4599,2.4599,2.4599,2.4599,2.4733,2.499,1.1584,1.1584,1.1584,1.1584,1.1584,1.1584,1.1584,1.1584,1.1584,1.1584,1.1584,1.1584,1.1584,1.1584,1.1584,1.1584,1.1584,1.1584,1.1584,1.2287,1.3202,1.4361,1.5839,1.6645,1.6645,1.8932,2.0444,2.1211,2.2332,2.2893,2.2893,2.2893,2.2893,2.2893,2.2893,2.2893,2.2893,2.2893,2.2893,2.2893,2.2893,2.2893,2.2893,2.2893,2.2893,2.2893,2.2893,2.2893,2.2893,2.2893,2.2893,2.2893,2.2893,2.2893,2.2893,2.2893,2.298,2.3046,2.3046,2.3267,2.346,2.3302,2.3395,2.3534,2.3612,2.3814,2.4022,2.4315,2.4376,2.4429,2.4566,2.4599,2.4599,2.4599,2.4599,2.4599,2.4599,2.4599,2.4599,2.4599,2.4599,2.4599,2.4599,2.4599,2.4599,2.4599,2.4599,2.4599,2.4599,2.4599,2.4599,2.4599,2.4599,2.4599,2.4599,2.4599,2.4599,2.4599,2.4599,2.4599,2.4599,2.4599,2.4599,2.4599,2.4599,2.4599,2.4599,2.4599,2.4599,2.4599,2.4599,2.4599,2.4613,2.4733,2.4923,2.5175,1.1584,1.1584,1.1584,1.1584,1.1584,1.1584,1.1584,1.1584,1.1584,1.1584,1.1584,1.1584,1.1584,1.1584,1.1584,1.1584,1.176,1.1936,1.2079,1.3698,1.4712,1.4889,1.8229,2.0161,2.034,2.034,2.1176,2.2893,2.2893,2.2893,2.2893,2.2893,2.2893,2.2893,2.2893,2.2893,2.2893,2.2893,2.2893,2.2893,2.2893,2.2893,2.2893,2.2893,2.2893,2.2893,2.2893,2.2893,2.2893,2.2893,2.2893,2.2893,2.2893,2.2914,2.294,2.294,2.3126,2.3332,2.3332,2.3581,2.3843,2.3843,2.3863,2.395,2.4148,2.4222,2.4322,2.4546,2.4599,2.4599,2.4599,2.4599,2.4599,2.4599,2.4599,2.4599,2.4599,2.4599,2.4599,2.4599,2.4599,2.4599,2.4599,2.4599,2.4599,2.4599,2.4599,2.4599,2.4599,2.4599,2.4599,2.4599,2.4599,2.4599,2.4599,2.4599,2.4599,2.4599,2.4599,2.4599,2.4599,2.4599,2.4599,2.4599,2.4599,2.4599,2.4599,2.4599,2.4599,2.4599,2.4599,2.4599,2.4633,2.497,2.5135,2.5204,1.1584,1.1584,1.1584,1.1584,1.1584,1.1584,1.1584,1.1584,1.1584,1.1584,1.1584,1.1584,1.1584,1.1584,1.1584,1.1584,1.2956,1.4436,1.5884,1.6373,1.7283,1.8787,1.9669,2.079,2.2263,2.2297,2.2475,2.2893,2.2893,2.2893,2.2893,2.2893,2.2893,2.2893,2.2893,2.2893,2.2893,2.2893,2.2893,2.2893,2.2893,2.2893,2.2893,2.2893,2.2893,2.2893,2.2893,2.2893,2.2893,2.2893,2.2893,2.2893,2.2893,2.3033,2.3227,2.3227,2.344,2.3674,2.3674,2.3888,2.4108,2.4108,2.4282,2.4409,2.4242,2.4346,2.4526,2.4586,2.4599,2.4599,2.4599,2.4599,2.4599,2.4599,2.4599,2.4599,2.4599,2.4599,2.4599,2.4599,2.4599,2.4599,2.4599,2.4599,2.4599,2.4599,2.4599,2.4599,2.4599,2.4599,2.4599,2.4599,2.4599,2.4599,2.4599,2.4599,2.4599,2.4599,2.4599,2.4599,2.4599,2.4599,2.4599,2.4599,2.4599,2.4599,2.4599,2.4599,2.4599,2.4599,2.4599,2.4599,2.4633,2.497,2.5224,2.5504,1.1584,1.1584,1.1584,1.1584,1.1584,1.1584,1.1584,1.1584,1.1584,1.1584,1.1584,1.1584,1.1584,1.2395,1.3313,1.4192,1.5177,1.6157,1.7147,1.8059,1.9037,2.0057,2.0963,2.1913,2.2866,2.2893,2.2893,2.2893,2.2893,2.2893,2.2893,2.2893,2.2893,2.2893,2.2893,2.2893,2.2893,2.2893,2.2893,2.2893,2.2893,2.2893,2.2893,2.2893,2.2893,2.2893,2.2893,2.2893,2.2893,2.2893,2.3,2.3086,2.3086,2.3293,2.3541,2.3541,2.3748,2.3975,2.3975,2.4189,2.4372,2.4372,2.4486,2.4559,2.4406,2.4492,2.4599,2.4599,2.4599,2.4599,2.4599,2.4599,2.4599,2.4599,2.4599,2.4599,2.4599,2.4599,2.4599,2.4599,2.4599,2.4599,2.4599,2.4599,2.4599,2.4599,2.4599,2.4599,2.4599,2.4599,2.4599,2.4599,2.4599,2.4599,2.4599,2.4599,2.4599,2.4599,2.4599,2.4599,2.4599,2.4599,2.4599,2.4599,2.4599,2.4599,2.4599,2.4599,2.4599,2.4599,2.4599,2.4686,2.4883,2.5177,2.5558,2.5979,1.1584,1.1584,1.1584,1.1584,1.1584,1.1584,1.1584,1.1584,1.1584,1.1584,1.1584,1.1727,1.204,1.3765,1.5632,1.7534,1.7709,1.7844,1.8159,1.9669,2.0583,2.0583,2.2057,2.2893,2.2893,2.2893,2.2893,2.2893,2.2893,2.2893,2.2893,2.2893,2.2893,2.2893,2.2893,2.2893,2.2893,2.2893,2.2893,2.2893,2.2893,2.2893,2.2893,2.2893,2.2893,2.2893,2.2893,2.2893,2.2907,2.296,2.3113,2.3299,2.3387,2.3607,2.3884,2.3884,2.4048,2.4282,2.4282,2.4412,2.4599,2.4599,2.4599,2.4599,2.4599,2.4599,2.4599,2.4599,2.4599,2.4599,2.4599,2.4599,2.4599,2.4599,2.4599,2.4599,2.4599,2.4599,2.4599,2.4599,2.4599,2.4599,2.4599,2.4599,2.4599,2.4599,2.4599,2.4599,2.4599,2.4599,2.4599,2.4599,2.4599,2.4599,2.4599,2.4599,2.4599,2.4599,2.4599,2.4599,2.4599,2.4599,2.4599,2.4599,2.4599,2.4599,2.4599,2.4599,2.4626,2.4679,2.4679,2.4897,2.5191,2.5484,2.5932,2.6386,1.1584,1.1584,1.1584,1.1584,1.1584,1.1584,1.1584,1.1584,1.1584,1.1584,1.1584,1.2219,1.3836,1.5703,1.7599,1.953,1.9704,2.0403,2.2016,2.2372,2.251,2.251,2.2756,2.2893,2.2893,2.2893,2.2893,2.2893,2.2893,2.2893,2.2893,2.2893,2.2893,2.2893,2.2893,2.2893,2.2893,2.2893,2.2893,2.2893,2.2893,2.2893,2.2893,2.2893,2.2893,2.2893,2.2893,2.2893,2.294,2.3173,2.3258,2.3339,2.3627,2.3908,2.4148,2.4148,2.4349,2.4539,2.4539,2.4572,2.4599,2.4599,2.4599,2.4599,2.4599,2.4599,2.4599,2.4599,2.4599,2.4599,2.4599,2.4599,2.4599,2.4599,2.4599,2.4599,2.4599,2.4599,2.4599,2.4599,2.4599,2.4599,2.4599,2.4599,2.4599,2.4599,2.4599,2.4599,2.4599,2.4599,2.4599,2.4599,2.4599,2.4599,2.4599,2.4599,2.4599,2.4599,2.4599,2.4599,2.4599,2.4599,2.4599,2.4599,2.4599,2.4599,2.4599,2.4599,2.479,2.5024,2.5024,2.5197,2.5491,2.5824,2.6145,2.6386,1.1584,1.1584,1.1584,1.1584,1.1584,1.1584,1.1584,1.1584,1.1584,1.1584,1.2499,1.3484,1.4326,1.7032,1.96,2.1493,2.1665,2.2016,2.2866,2.2893,2.2893,2.2893,2.2893,2.2893,2.2893,2.2893,2.2893,2.2893,2.2893,2.2893,2.2893,2.2893,2.2893,2.2893,2.2893,2.2893,2.2893,2.2893,2.2893,2.2893,2.2893,2.2893,2.2893,2.2893,2.2893,2.292,2.306,2.312,2.3166,2.3474,2.3681,2.3841,2.3975,2.4209,2.4406,2.4406,2.4499,2.4599,2.4599,2.4599,2.4599,2.4599,2.4599,2.4599,2.4599,2.4599,2.4599,2.4599,2.4599,2.4599,2.4599,2.4599,2.4599,2.4599,2.4599,2.4599,2.4599,2.4599,2.4599,2.4599,2.4599,2.4599,2.4599,2.4599,2.4599,2.4599,2.4599,2.4599,2.4599,2.4599,2.4599,2.4599,2.4599,2.4599,2.4599,2.4599,2.4599,2.4599,2.4599,2.4599,2.4599,2.4599,2.4599,2.4599,2.4599,2.4599,2.4613,2.4816,2.4963,2.5097,2.5257,2.5498,2.5837,2.6125,2.6279,2.6386]},{"header":{"parameterUnit":"m.s-1","parameterCategory":1,"la1":30.6,"la2":28.766,"lo1":-90.7593,"lo2":-88.6598,"dy":0.0162,"dx":0.0183,"nx":116,"ny":114,"refTime":"2023-09-16T18:00:00:Z","depth":0,"parameterNumber":3,"parameterNumberName":"V-component_of_WINDS"},"data":[0.0,0.0,0.0,0.0,0.0,0.0,0.0,0.0,0.0,0.0,0.0,0.0,0.0,0.0,0.0,0.0,0.0,0.0,0.0,0.0,0.0,0.0,0.0,0.0,0.0,0.0,0.0,0.0,0.0,0.0,0.0,0.0,0.0,0.0,0.0,0.0,0.0,0.0,0.0,0.0,0.0,0.0,0.0,0.0,0.0,0.0,0.0,0.0,0.0,0.0,0.0,0.0,0.0,0.0,0.0,0.0,0.0,0.0,0.0,0.0,0.0,0.0,0.0,0.0,0.0,0.0,0.0,0.0,0.0,0.0,0.0,0.0,0.0,0.0,0.0,0.0,0.0,0.0,0.0,0.0,0.0,0.0,0.0,0.0,0.0,0.0,0.0,0.0,0.0,0.0,0.0,0.0,0.0,0.0,0.0,0.0,0.0,0.0,0.0,0.0,0.0,0.0,0.0,0.0,0.0,0.0,0.0,0.0,0.0,0.0,0.0,0.0,0.0,0.0,0.0,0.0,0.0,0.0,0.0,0.0,0.0,0.0,0.0,0.0,0.0,0.0,0.0,0.0,0.0,0.0,0.0,0.0,0.0,0.0,0.0,0.0,0.0,0.0,0.0,0.0,0.0,0.0,0.0,0.0,0.0,0.0,0.0,0.0,0.0,0.0,0.0,0.0,0.0,0.0,0.0,0.0,0.0,0.0,0.0,0.0,0.0,0.0,0.0,0.0,0.0,0.0,0.0,0.0,0.0,0.0,0.0,0.0,0.0,0.0,0.0,0.0,0.0,0.0,0.0,0.0,0.0,0.0,0.0,0.0,0.0,0.0,0.0,0.0,0.0,0.0,0.0,0.0,0.0,0.0,0.0,0.0,0.0,0.0,0.0,0.0,0.0,0.0,0.0,0.0,0.0,0.0,0.0,0.0,0.0,0.0,0.0,0.0,0.0,0.0,0.0,0.0,0.0,0.0,0.0,0.0,0.0,0.0,0.0,0.0,0.0,0.0,0.0,0.0,0.0,0.0,0.0,0.0,0.0,0.0,0.0,0.0,0.0,0.0,0.0,0.0,0.0,0.0,0.0,0.0,0.0,0.0,0.0,0.0,0.0,0.0,0.0,0.0,0.0,0.0,0.0,0.0,0.0,0.0,0.0,0.0,0.0,0.0,0.0,0.0,0.0,0.0,0.0,0.0,0.0,0.0,0.0,0.0,0.0,0.0,0.0,0.0,0.0,0.0,0.0,0.0,0.0,0.0,0.0,0.0,0.0,0.0,0.0,0.0,0.0,0.0,0.0,0.0,0.0,0.0,0.0,0.0,0.0,0.0,0.0,0.0,0.0,0.0,0.0,0.0,0.0,0.0,0.0,0.0,0.0,0.0,0.0,0.0,0.0,0.0,0.0,0.0,0.0,0.0,0.0,0.0,0.0,0.0,0.0,0.0,0.0,0.0,0.0,0.0,0.0,0.0,0.0,0.0,0.0,0.0,0.0,0.0,0.0,0.0,0.0,0.0,0.0,0.0,0.0,0.0,0.0,0.0,0.0,0.0,0.0,0.0,0.0,0.0,0.0,0.0,0.0,0.0,0.0,0.0,0.0,0.0,0.0,0.0,0.0,0.0,0.0,0.0,0.0,0.0,0.0,0.0,0.0,0.0,0.0,0.0,0.0,0.0,0.0,0.0,0.0,0.0,0.0,0.0,0.0,0.0,0.0,0.0,0.0,0.0,0.0,0.0,0.0,0.0,0.0,0.0,0.0,0.0,0.0,0.0,0.0,0.0,0.0,0.0,0.0,0.0,0.0,0.0,0.0,0.0,0.0,0.0,0.0,0.0,0.0,0.0,0.0,0.0,0.0,0.0,0.0,0.0,0.0,0.0,0.0,0.0,0.0,0.0,0.0,0.0,0.0,0.0,0.0,0.0,0.0,0.0,0.0,0.0,0.0,0.0,0.0,0.0,0.0,0.0,0.0,0.0,0.0,0.0,0.0,0.0,0.0,0.0,0.0,0.0,0.0,0.0,0.0,0.0,0.0,0.0,0.0,0.0,0.0,0.0,0.0,0.0,0.0,0.0,0.0,0.0,0.0,0.0,0.0,0.0,0.0,0.0,0.0,0.0,0.0,0.0,0.0,0.0,0.0,0.0,0.0,0.0,0.0,0.0,0.0,0.0,0.0,0.0,0.0,0.0,0.0,0.0,0.0,0.0,0.0,0.0,0.0,0.0,0.0,0.0,0.0,0.0,0.0,0.0,0.0,0.0,0.0,0.0,0.0,0.0,0.0,0.0,0.0,0.0,0.0,0.0,0.0,0.0,0.0,0.0,0.0,0.0,0.0,0.0,0.0,0.0,0.0,0.0,0.0,0.0,0.0,0.0,0.0,0.0,0.0,0.0,0.0,0.0,0.0,0.0,0.0,0.0,0.0,0.0,0.0,0.0,0.0,0.0,0.0,0.0,0.0,0.0,0.0,0.0,0.0,0.0,0.0,0.0,0.0,0.0,0.0,0.0,0.0,0.0,0.0,0.0,0.0,0.0,0.0,0.0,0.0,0.0,0.0,0.0,0.0,0.0,0.0,0.0,0.0,0.0,0.0,0.0,0.0,0.0,0.0,0.0,0.0,0.0,0.0,0.0,0.0,0.0,0.0,0.0,0.0,0.0,0.0,0.0,0.0,0.0,0.0,0.0,0.0,0.0,0.0,0.0,0.0,0.0,0.0,0.0,0.0,0.0,0.0,0.0,0.0,0.0,0.0,0.0,0.0,0.0,0.0,0.0,0.0,0.0,0.0,0.0,0.0,0.0,0.0,0.0,0.0,0.0,0.0,0.0,0.0,0.0,0.0,0.0,0.0,0.0,0.0,0.0,0.0,0.0,0.0,0.0,0.0,0.0,0.0,0.0,0.0,0.0,0.0,0.0,0.0,0.0,0.0,0.0,0.0,0.0,0.0,0.0,0.0,0.0,0.0,0.0,0.0,0.0,0.0,0.0,0.0,0.0,0.0,0.0,0.0,0.0,0.0,0.0,0.0,0.0,0.0,0.0,0.0,0.0,0.0,0.0,0.0,0.0,0.0,0.0,0.0,0.0,0.0,0.0,0.0,0.0,0.0,0.0,0.0,0.0,0.0,0.0,0.0,0.0,0.0,0.0,0.0,0.0,0.0,0.0,0.0,0.0,0.0,0.0,0.0,0.0,0.0,0.0,0.0,0.0,0.0,0.0,0.0,0.0,0.0,0.0,0.0,0.0,0.0,0.0,0.0,0.0,0.0,0.0,0.0,0.0,0.0,0.0,0.0,0.0,0.0,0.0,0.0,0.0,0.0,0.0,0.0,0.0,0.0,0.0,0.0,0.0,0.0,0.0,0.0,0.0,0.0,0.0,0.0,0.0,0.0,0.0,0.0,0.0,0.0,0.0,0.0,0.0,0.0,0.0,0.0,0.0,0.0,0.0,0.0,0.0,0.0,0.0,0.0,0.0,0.0,0.0,0.0,0.0,0.0,0.0,0.0,0.0,0.0,0.0,0.0,0.0,0.0,0.0,0.0,0.0,0.0,0.0,0.0,0.0,0.0,0.0,0.0,0.0,0.0,0.0,0.0,0.0,0.0,0.0,0.0,0.0,0.0,0.0,0.0,0.0,0.0,0.0,0.0,0.0,0.0,0.0,0.0,0.0,0.0,0.0,0.0,0.0,0.0,0.0,0.0,0.0,0.0,0.0,0.0,0.0,0.0,0.0,0.0,0.0,0.0,0.0,0.0,0.0,0.0,0.0,0.0,0.0,0.0,0.0,0.0,0.0,0.0,0.0,0.0,0.0,0.0,0.0,0.0,0.0,0.0,0.0,0.0,0.0,0.0,0.0,0.0,0.0,0.0,0.0,0.0,0.0,0.0,0.0,0.0,0.0,0.0,0.0,0.0,0.0,0.0,0.0,0.0,0.0,0.0,0.0,0.0,0.0,0.0,0.0,0.0,0.0,0.0,0.0,0.0,0.0,0.0,0.0,0.0,0.0,0.0,0.0,0.0,0.0,0.0,0.0,0.0,0.0,0.0,0.0,0.0,0.0,0.0,0.0,0.0,0.0,0.0,0.0,0.0,0.0,0.0,0.0,0.0,0.0,0.0,0.0,0.0,0.0,0.0,0.0,0.0,0.0,0.0,0.0,0.0,0.0,0.0,0.0,0.0,0.0,0.0,0.0,0.0,0.0,0.0,0.0,0.0,0.0,0.0,0.0,0.0,0.0,0.0,0.0,0.0,0.0,0.0,0.0,0.0,0.0,0.0,0.0,0.0,0.0,0.0,0.0,0.0,0.0,0.0,0.0,0.0,0.0,0.0,0.0,0.0,0.0,0.0,0.0,0.0,0.0,0.0,0.0,0.0,0.0,0.0,0.0,0.0,0.0,0.0,0.0,0.0,0.0,0.0,0.0,0.0,0.0,0.0,0.0,0.0,0.0,0.0,0.0,0.0,0.0,0.0,0.0,0.0,0.0,0.0,0.0,0.0,0.0,0.0,0.0,0.0,0.0,0.0,0.0,0.0,0.0,0.0,0.0,0.0,0.0,0.0,0.0,0.0,0.0,0.0,0.0,0.0,0.0,0.0,0.0,0.0,0.0,0.0,0.0,0.0,0.0,0.0,0.0,0.0,0.0,0.0,0.0,0.0,0.0,0.0,0.0,0.0,0.0,0.0,0.0,0.0,0.0,0.0,0.0,0.0,0.0,0.0,0.0,0.0,0.0,0.0,0.0,0.0,0.0,0.0,0.0,0.0,0.0,0.0,0.0,0.0,0.0,0.0,0.0,0.0,0.0,0.0,0.0,0.0,0.0,0.0,0.0,0.0,0.0,0.0,0.0,0.0,0.0,0.0,0.0,0.0,0.0,0.0,0.0,0.0,0.0,0.0,0.0,0.0,0.0,0.0,0.0,0.0,0.0,0.0,0.0,0.0,0.0,0.0,0.0,0.0,0.0,0.0,0.0,0.0,0.0,0.0,0.0,0.0,0.0,0.0,0.0,0.0,0.0,0.0,0.0,0.0,0.0,0.0,0.0,0.0,0.0,0.0,0.0,0.0,0.0,0.0,0.0,0.0,0.0,0.0,0.0,0.0,0.0,0.0,0.0,0.0,0.0,0.0,0.0,0.0,0.0,0.0,0.0,0.0,0.0,0.0,0.0,0.0,0.0,0.0,0.0,0.0,0.0,0.0,0.0,0.0,0.0,0.0,0.0,0.0,0.0,0.0,0.0,0.0,0.0,0.0,0.0,0.0,0.0,0.0,0.0,0.0,0.0,0.0,0.0,0.0,0.0,0.0,0.0,0.0,0.0,0.0,0.0,0.0,0.0,0.0,0.0,0.0,0.0,0.0,0.0,0.0,0.0,0.0,0.0,0.0,0.0,0.0,0.0,0.0,0.0,0.0,0.0,0.0,0.0,0.0,0.0,0.0,0.0,0.0,0.0,0.0,0.0,0.0,0.0,0.0,0.0,0.0,0.0,0.0,0.0,0.0,0.0,0.0,0.0,0.0,0.0,0.0,0.0,0.0,0.0,0.0,0.0,0.0,0.0,0.0,0.0,0.0,0.0,0.0,0.0,0.0,0.0,0.0,0.0,0.0,0.0,0.0,0.0,0.0,0.0,0.0,0.0,0.0,0.0,0.0,0.0,0.0,0.0,0.0,0.0,0.0,0.0,0.0,0.0,0.0,0.0,0.0,0.0,0.0,0.0,0.0,0.0,0.0,0.0,0.0,0.0,0.0,0.0,0.0,0.0,0.0,0.0,0.0,0.0,0.0,0.0,0.0,0.0,0.0,0.0,0.0,0.0,0.0,0.0,0.0,0.0,0.0,0.0,0.0,0.0,0.0,0.0,0.0,0.0,0.0,0.0,0.0,0.0,0.0,0.0,0.0,0.0,0.0,0.0,0.0,0.0,0.0,0.0,0.0,0.0,0.0,0.0,0.0,0.0,0.0,0.0,0.0,0.0,0.0,0.0,0.0,0.0,0.0,0.0,0.0,0.0,0.0,0.0,0.0,0.0,0.0,0.0,0.0,0.0,0.0,0.0,0.0,0.0,0.0,0.0,0.0,0.0,0.0,0.0,0.0,0.0,0.0,0.0,0.0,0.0,0.0,0.0,5.4753,0.0,0.0,0.0,0.0,0.0,0.0,0.0,0.0,0.0,0.0,0.0,0.0,0.0,0.0,0.0,0.0,0.0,0.0,0.0,0.0,0.0,0.0,0.0,0.0,0.0,0.0,0.0,0.0,0.0,0.0,0.0,0.0,0.0,0.0,0.0,0.0,0.0,0.0,4.904,4.9448,4.9648,4.9658,4.9553,4.9499,4.9499,0.0,0.0,0.0,0.0,0.0,0.0,0.0,0.0,0.0,0.0,0.0,0.0,0.0,0.0,0.0,0.0,0.0,0.0,0.0,0.0,0.0,0.0,0.0,0.0,0.0,0.0,0.0,0.0,0.0,0.0,0.0,0.0,0.0,0.0,0.0,0.0,0.0,0.0,0.0,0.0,0.0,0.0,0.0,0.0,0.0,0.0,0.0,0.0,0.0,0.0,0.0,0.0,0.0,0.0,0.0,0.0,0.0,0.0,0.0,0.0,0.0,0.0,0.0,0.0,0.0,0.0,0.0,0.0,0.0,0.0,0.0,5.5712,0.0,0.0,0.0,0.0,0.0,0.0,0.0,0.0,0.0,0.0,0.0,0.0,0.0,0.0,0.0,0.0,0.0,0.0,0.0,0.0,0.0,0.0,0.0,4.8296,4.8296,4.8296,4.8296,4.8296,0.0,0.0,0.0,0.0,0.0,0.0,4.9784,4.9695,4.9966,5.0633,5.0779,5.0967,5.1214,5.1214,5.1214,5.1206,5.093,0.0,0.0,0.0,0.0,0.0,0.0,0.0,0.0,0.0,0.0,0.0,0.0,0.0,0.0,0.0,0.0,0.0,0.0,0.0,0.0,0.0,0.0,0.0,0.0,0.0,0.0,0.0,0.0,0.0,0.0,0.0,0.0,0.0,0.0,0.0,0.0,0.0,0.0,0.0,0.0,0.0,0.0,0.0,0.0,0.0,0.0,0.0,0.0,0.0,0.0,0.0,0.0,0.0,0.0,0.0,0.0,0.0,0.0,0.0,0.0,0.0,0.0,0.0,5.6045,5.61,5.61,5.61,5.6474,5.7078,5.7078,5.7437,5.7997,0.0,0.0,0.0,0.0,0.0,0.0,0.0,0.0,0.0,0.0,0.0,0.0,0.0,0.0,0.0,0.0,0.0,0.0,0.0,0.0,0.0,0.0,4.8296,4.8296,4.8296,4.8296,4.8296,4.8296,0.0,0.0,0.0,0.0,0.0,5.0618,5.0063,4.9832,4.9923,5.0633,5.1621,5.2884,5.2884,5.2884,5.2829,5.1426,5.0802,5.0802,0.0,0.0,0.0,0.0,0.0,0.0,0.0,0.0,0.0,0.0,0.0,0.0,0.0,0.0,0.0,0.0,0.0,0.0,0.0,0.0,0.0,0.0,0.0,0.0,0.0,0.0,0.0,0.0,0.0,0.0,0.0,0.0,0.0,0.0,0.0,0.0,0.0,0.0,0.0,0.0,0.0,5.4323,5.4562,0.0,0.0,0.0,0.0,0.0,0.0,0.0,0.0,0.0,0.0,0.0,0.0,0.0,5.5592,5.5692,5.6394,5.6752,5.6752,5.7395,5.7696,5.7696,5.7696,5.7743,5.7862,5.7862,0.0,5.7997,5.7997,0.0,0.0,0.0,0.0,0.0,0.0,0.0,0.0,0.0,0.0,0.0,0.0,0.0,0.0,0.0,0.0,0.0,0.0,0.0,0.0,0.0,4.8296,4.8296,4.8296,4.8296,4.8296,4.8296,4.8765,0.0,0.0,0.0,5.0637,5.1463,5.119,5.1256,5.1701,5.2058,5.2579,5.3196,5.3196,5.3196,5.3177,5.2462,5.215,5.2113,5.1665,0.0,0.0,0.0,0.0,0.0,0.0,0.0,0.0,0.0,0.0,0.0,0.0,0.0,0.0,0.0,0.0,0.0,0.0,0.0,0.0,0.0,0.0,0.0,0.0,0.0,0.0,0.0,0.0,0.0,0.0,0.0,0.0,0.0,0.0,0.0,0.0,0.0,0.0,0.0,5.4526,5.4835,5.5736,5.4784,5.4122,0.0,0.0,0.0,0.0,0.0,0.0,0.0,0.0,0.0,5.6353,5.6367,5.6567,5.7004,5.7346,5.7528,5.7528,5.7851,5.7997,5.7997,5.7997,5.7997,5.7997,5.7997,5.7997,5.7997,5.7997,5.7997,5.7997,0.0,0.0,0.0,0.0,5.7997,5.7886,0.0,0.0,0.0,0.0,0.0,0.0,0.0,0.0,0.0,0.0,0.0,0.0,4.8658,4.8604,4.8706,4.8918,4.8827,4.8863,4.9085,4.9605,5.0004,5.0206,5.0794,5.1481,5.2289,5.2307,5.2601,5.3196,5.3196,5.3196,5.3196,5.3196,5.3196,5.3196,5.3196,5.3196,5.3159,5.2564,5.2307,5.2252,0.0,0.0,0.0,0.0,0.0,0.0,0.0,0.0,0.0,0.0,0.0,0.0,0.0,0.0,0.0,0.0,0.0,0.0,0.0,0.0,0.0,0.0,0.0,0.0,0.0,0.0,0.0,0.0,0.0,0.0,0.0,0.0,0.0,0.0,0.0,0.0,0.0,5.5474,5.5648,5.6949,5.5961,5.5404,0.0,0.0,0.0,0.0,0.0,0.0,5.6022,5.6022,5.6367,5.7159,5.7184,5.7437,5.7997,5.7997,5.7997,5.7997,5.7997,5.7997,5.7997,5.7997,5.7997,5.7997,5.7997,5.7997,5.7997,5.7997,5.7997,5.7997,5.7997,5.7997,5.7997,5.7997,5.7997,5.7905,0.0,0.0,0.0,0.0,0.0,0.0,0.0,0.0,0.0,0.0,0.0,4.9891,4.9475,4.9438,4.9766,5.0598,5.0262,5.0362,5.1197,5.0922,5.1077,5.1858,5.1914,5.2325,5.3122,5.3141,5.3159,5.3196,5.3196,5.3196,5.3196,5.3196,5.3196,5.3196,5.3196,5.3196,5.3196,5.3159,5.3141,5.3141,5.3104,0.0,0.0,0.0,0.0,0.0,0.0,0.0,0.0,0.0,0.0,0.0,0.0,0.0,0.0,0.0,0.0,0.0,0.0,0.0,0.0,0.0,0.0,0.0,0.0,0.0,0.0,0.0,0.0,0.0,0.0,0.0,0.0,0.0,0.0,0.0,0.0,0.0,0.0,5.785,5.7254,0.0,0.0,0.0,0.0,5.5692,5.6398,5.683,5.683,5.683,5.7184,5.7909,5.7932,5.7962,5.7997,5.7997,5.7997,5.7997,5.7997,5.7997,5.7997,5.7997,5.7997,5.7997,5.7997,5.7997,5.7997,5.7997,5.7997,5.7997,5.7997,5.7997,5.7997,5.7997,5.7997,5.7997,0.0,0.0,0.0,0.0,0.0,0.0,0.0,0.0,5.038,5.0141,5.0092,5.0158,5.0316,5.0348,5.0677,5.1492,5.1178,5.1075,5.1382,5.1514,5.1712,5.1987,5.2509,5.2902,5.3196,5.3196,5.3196,5.3196,5.3196,5.3196,5.3196,5.3196,5.3196,5.3196,5.3196,5.3196,5.3196,5.3196,5.3196,5.3196,5.3196,5.3196,0.0,0.0,0.0,0.0,0.0,0.0,0.0,0.0,0.0,0.0,0.0,0.0,0.0,0.0,0.0,0.0,0.0,0.0,0.0,0.0,0.0,0.0,0.0,0.0,0.0,0.0,0.0,0.0,0.0,0.0,0.0,0.0,0.0,0.0,0.0,0.0,0.0,5.796,5.7762,0.0,5.6938,5.7339,5.7296,5.6532,5.7179,5.7601,5.7601,5.7601,5.7726,5.7997,5.7997,5.7997,5.7997,5.7997,5.7997,5.7997,5.7997,5.7997,5.7997,5.7997,5.7997,5.7997,5.7997,5.7997,5.7997,5.7997,5.7997,5.7997,5.7997,5.7997,5.7997,5.7997,5.7997,5.7997,0.0,0.0,0.0,0.0,0.0,0.0,0.0,0.0,5.1449,5.1178,5.1155,5.127,5.1572,5.1603,5.1933,5.2764,5.2458,5.2341,5.2632,5.2624,5.26,5.26,5.2988,5.3196,5.3196,5.3196,5.3196,5.3196,5.3196,5.3196,5.3196,5.3196,5.3196,5.3196,5.3196,5.3343,5.3599,5.3599,5.3453,5.3196,5.3196,5.3196,5.3196,0.0,0.0,0.0,0.0,0.0,0.0,0.0,0.0,0.0,0.0,0.0,0.0,0.0,0.0,0.0,0.0,0.0,0.0,0.0,0.0,0.0,0.0,0.0,0.0,0.0,0.0,0.0,0.0,0.0,0.0,0.0,0.0,0.0,0.0,0.0,5.7997,5.7997,5.7997,5.7815,5.7327,5.7714,5.7804,5.7314,5.7726,5.7997,5.7997,5.7997,5.7997,5.7997,5.7997,5.7997,5.7997,5.7997,5.7997,5.7997,5.7997,5.7997,5.7997,5.7997,5.7997,5.7997,5.7997,5.7997,5.7997,5.7997,5.7997,5.7997,5.7997,5.7997,5.7997,5.7997,5.7997,5.7997,0.0,0.0,0.0,0.0,0.0,0.0,0.0,5.3197,5.3197,5.3197,5.3197,5.3217,5.3236,5.3236,5.3587,5.4453,5.4113,5.4204,5.5031,5.4311,5.3823,5.3823,5.3462,5.322,5.3227,5.3217,5.3217,5.3196,5.3196,5.3196,5.3196,5.3232,5.3232,5.3232,5.3269,5.371,5.4436,5.4436,5.3995,5.3269,5.3269,5.3269,5.3269,0.0,0.0,0.0,0.0,0.0,0.0,0.0,0.0,0.0,0.0,0.0,0.0,0.0,0.0,0.0,0.0,0.0,0.0,0.0,0.0,0.0,0.0,0.0,0.0,0.0,0.0,0.0,0.0,0.0,0.0,0.0,0.0,0.0,5.7997,5.7997,5.7997,5.7997,5.7997,5.7997,5.7997,5.7997,5.7997,5.7997,5.7997,5.7997,5.7997,5.7997,5.7997,5.7997,5.7997,5.7997,5.7997,5.7997,5.7997,5.7997,5.7997,5.7997,5.7997,5.7997,5.7997,5.7997,5.7997,5.7997,5.7997,5.7997,5.7997,5.7997,5.7997,5.7997,5.7997,5.7997,5.7997,5.7997,0.0,0.0,0.0,0.0,0.0,0.0,5.3197,5.3197,5.3197,5.3197,5.3197,5.3433,5.4068,5.4145,5.4472,5.5304,5.4981,5.484,5.5069,5.4591,5.4305,5.4305,5.4206,5.3988,5.3644,5.3634,5.3485,5.3196,5.3196,5.3196,5.3214,5.3801,5.4069,5.4106,5.4675,5.5071,5.5273,5.5273,5.5144,5.4932,5.4932,5.4932,5.4932,0.0,0.0,0.0,0.0,0.0,0.0,0.0,0.0,0.0,0.0,0.0,0.0,0.0,0.0,0.0,0.0,0.0,0.0,0.0,0.0,0.0,0.0,0.0,0.0,0.0,0.0,0.0,0.0,0.0,0.0,0.0,0.0,5.7997,5.7997,5.7997,5.7997,5.7997,5.7997,5.7997,5.7997,5.7997,5.7997,5.7997,5.7997,5.7997,5.7997,5.7997,5.7997,5.7997,5.7997,5.7997,5.7997,5.7997,5.7997,5.7997,5.7997,5.7997,5.7997,5.7997,5.7997,5.7997,5.7997,5.7997,5.7997,5.7997,5.7997,5.7997,5.7997,5.7997,5.7997,5.7997,5.7997,5.7997,0.0,0.0,0.0,0.0,0.0,0.0,5.4257,5.4241,5.4241,5.4241,5.4241,5.4434,5.4953,5.4991,5.5189,5.567,5.5489,5.5343,5.5343,5.4979,5.4689,5.4511,5.4503,5.4363,5.4101,5.3887,5.3701,5.3444,5.3624,5.3691,5.371,5.4528,5.4895,5.4924,5.5383,5.5787,5.6106,5.6106,5.6301,5.6613,5.6613,5.6209,5.5603,5.5603,5.5603,5.5603,5.5603,5.5824,5.6106,5.6106,0.0,0.0,0.0,0.0,0.0,0.0,0.0,0.0,0.0,0.0,0.0,0.0,0.0,0.0,0.0,0.0,0.0,0.0,0.0,0.0,0.0,0.0,0.0,0.0,5.7997,5.7997,5.7997,5.7997,5.7997,5.7997,5.7997,5.7997,5.7997,5.7997,5.7997,5.7997,5.7997,5.7997,5.7997,5.7997,5.7997,5.7997,5.7997,5.7997,5.7997,5.7997,5.7997,5.7997,5.7997,5.7997,5.7997,5.7997,5.7997,0.0,5.7997,5.7997,5.7997,5.7997,5.7997,0.0,0.0,0.0,0.0,0.0,5.7997,5.7997,0.0,0.0,0.0,0.0,0.0,0.0,5.5779,5.5763,5.5763,5.5763,5.5763,5.5748,5.5737,5.5712,5.5721,5.5708,5.5708,5.5708,5.5708,5.5375,5.5007,5.464,5.4644,5.4602,5.4574,5.417,5.3961,5.4009,5.4366,5.4602,5.4712,5.5533,5.5859,5.5812,5.5904,5.632,5.6939,5.6939,5.7354,5.7997,5.7997,5.7134,5.5879,5.5879,5.5879,5.5879,5.5879,5.6326,5.6939,5.6939,0.0,0.0,0.0,0.0,0.0,0.0,0.0,0.0,0.0,0.0,0.0,0.0,0.0,0.0,0.0,0.0,0.0,0.0,0.0,0.0,0.0,0.0,0.0,0.0,5.7997,5.7997,5.7997,5.7997,5.7997,5.7997,5.7997,5.7997,5.7997,5.7997,5.7997,5.7997,5.7997,5.7997,5.7997,0.0,0.0,0.0,0.0,5.7997,5.7997,5.7997,5.7997,5.7997,5.7997,5.7997,5.7997,5.7997,5.7997,5.7997,5.7997,5.7997,5.7997,5.7997,5.7997,5.7997,5.7997,5.7997,5.7997,5.7997,5.8024,5.8081,0.0,0.0,0.0,0.0,0.0,0.0,5.6107,5.6104,5.6104,5.6104,5.6104,5.6047,5.5874,5.5857,5.5821,5.5705,5.5708,5.5708,5.5708,5.5635,5.556,5.5477,5.5477,5.5313,5.4993,5.4897,5.5011,5.5329,5.5406,5.5813,5.6507,5.7326,5.7492,5.7158,5.7808,5.7973,5.7776,5.7776,5.785,5.7997,5.7997,5.7813,5.7538,5.7538,5.7538,5.7538,5.7538,5.7629,5.7776,5.7776,5.7868,5.7997,5.7997,5.7997,0.0,0.0,0.0,0.0,0.0,0.0,0.0,0.0,0.0,0.0,0.0,0.0,0.0,0.0,0.0,0.0,0.0,0.0,0.0,5.7997,5.7997,5.7997,5.7997,5.7997,5.7997,5.7997,5.7997,5.7997,5.7997,5.7997,5.7997,5.7997,5.7997,5.7997,5.7997,5.7997,5.7997,5.7997,5.7997,5.7997,5.7997,5.7997,5.7997,5.7997,0.0,0.0,5.7997,5.7997,5.7997,5.7997,5.7997,5.7997,5.7997,5.7997,5.7997,5.7997,5.7997,5.7997,5.7997,5.7997,5.8238,5.856,0.0,0.0,0.0,0.0,0.0,0.0,5.6205,5.6194,5.6194,5.6194,5.6194,5.6164,5.6061,5.6051,5.5974,5.5807,5.5748,5.5708,5.5708,5.5708,5.5708,5.5708,5.5708,5.5618,5.5405,5.5199,5.5407,5.6053,5.6228,5.6754,5.762,5.8415,5.8672,5.8475,5.8869,5.8932,5.8694,5.8694,5.8694,5.8674,5.8431,5.8484,5.8652,5.8179,5.7997,5.7997,5.7997,5.7997,5.7997,5.7997,5.7997,5.7997,5.7997,5.7997,5.7997,0.0,0.0,0.0,0.0,0.0,0.0,0.0,0.0,0.0,0.0,0.0,0.0,0.0,0.0,5.8351,0.0,0.0,5.8632,5.8386,5.8557,5.8621,5.8375,5.8539,5.8526,5.8058,5.7997,5.7997,5.7997,5.7997,5.7997,5.7997,5.7997,5.8097,5.834,5.813,5.8108,5.834,5.8119,5.7997,5.7997,5.7997,5.7997,5.7997,5.7997,5.7997,5.7997,5.7997,5.7997,5.802,5.8249,5.8224,5.802,5.8249,5.8484,5.8694,5.8694,5.8568,5.8375,5.8611,5.8845,5.9047,0.0,0.0,0.0,0.0,0.0,0.0,0.0,5.6288,5.6288,5.6288,5.6288,5.6279,5.6235,5.6232,5.6156,5.5977,5.5861,5.5784,5.5734,5.5748,5.5722,5.5708,5.5708,5.5708,5.5708,5.554,5.5906,5.6772,5.7194,5.7858,5.8726,5.9374,5.9628,5.9545,5.9545,5.9494,5.9389,5.9389,5.9389,5.9363,5.8981,5.9065,5.9329,5.8549,5.8271,5.8271,5.8271,5.8271,5.826,5.8175,5.8142,5.8142,5.8142,5.8142,5.8142,5.8142,5.8142,0.0,0.0,0.0,0.0,0.0,0.0,0.0,0.0,0.0,5.8271,5.8271,5.857,5.8835,5.8835,5.9149,5.9285,5.8903,5.9158,5.9276,5.8894,5.9167,5.9121,5.8362,5.819,5.8142,5.8142,5.8142,5.8168,5.826,5.8271,5.8439,5.8815,5.8492,5.845,5.8815,5.8482,5.8271,5.8271,5.8271,5.8271,5.8271,5.8271,5.8271,5.8271,5.8271,5.8271,5.8286,5.8664,5.8621,5.8297,5.8674,5.9056,5.9398,5.9492,5.9302,5.9,5.9284,5.9468,5.9545,0.0,0.0,0.0,0.0,0.0,0.0,0.0,0.0,5.656,5.656,5.656,5.6512,5.6385,5.6377,5.6322,5.6181,5.6152,5.6078,5.5895,5.5883,5.581,5.5719,5.5708,5.5708,5.5708,5.6407,5.7216,5.8095,5.8847,5.9655,6.0506,6.0602,6.0417,6.0025,6.0025,5.9781,5.9389,5.9389,5.9389,5.9408,5.9337,5.9346,5.9381,5.9275,5.9239,5.9239,5.9239,5.9239,5.9186,5.8765,5.8621,5.8621,5.8621,5.8621,5.8621,5.8621,5.8621,5.8537,5.8108,5.8297,5.8725,5.9149,5.9275,5.9302,0.0,0.0,5.9239,5.9239,5.9294,5.931,5.931,5.9354,5.9381,5.9319,5.9373,5.9372,5.9319,5.9363,5.9354,5.9267,5.8874,5.8621,5.8621,5.8621,5.8786,5.9203,5.9239,5.9276,5.931,5.9266,5.9276,5.931,5.9266,5.9239,5.9239,5.9239,5.9239,5.9239,5.9239,5.9239,5.9239,5.9239,5.9239,5.9258,5.9293,5.9284,5.9258,5.9293,5.9346,5.9432,5.9862,5.9996,5.9901,5.9526,5.9669,6.0025,0.0,0.0,0.0,0.0,0.0,0.0,0.0,0.0,0.0,5.6601,5.6601,5.6581,5.6515,5.6452,5.6377,5.632,5.6257,5.6167,5.6078,5.5966,5.5878,5.5821,5.5734,5.5708,5.5708,5.6555,5.744,5.8294,5.9108,5.9954,6.0806,6.0806,6.0696,6.0502,6.0502,6.0404,6.0203,6.0203,6.0203,6.0182,5.9916,5.9962,6.0182,5.9908,5.9988,6.0146,5.9603,5.9389,0.0,5.9158,5.9112,5.9112,5.9112,5.9112,5.9112,5.9112,5.9112,5.9065,5.8864,5.9167,5.9511,5.9415,5.9611,5.9733,5.9458,5.9389,5.9389,5.9389,5.962,5.9816,5.9816,6.0033,6.0132,0.0,6.0033,6.0125,5.9855,6.004,6.0118,5.9847,5.9636,5.9398,5.914,5.9112,5.9195,5.9399,5.9389,5.9528,5.9789,5.9553,5.9536,5.9808,5.9534,5.9389,5.9389,5.9389,5.9389,5.9389,5.9389,5.9389,5.9389,5.9389,5.9553,5.9789,5.9528,5.9709,6.0182,5.9916,5.9981,6.0236,6.043,6.0502,6.0482,6.0297,6.0338,6.0502,0.0,0.0,0.0,0.0,0.0,0.0,0.0,0.0,0.0,0.0,5.6601,5.6601,5.6601,5.6513,5.6455,5.6455,5.6373,5.6281,5.6268,5.611,5.6019,5.5988,5.5834,5.5759,5.5759,5.6804,5.7671,5.8294,5.9358,6.0185,6.0806,6.0806,6.0806,6.0806,6.0806,6.0806,6.0806,6.0806,6.0806,6.0763,6.043,6.0495,6.0757,6.0424,6.0502,6.0702,6.0033,5.98,5.9757,5.9644,5.9584,5.9584,5.9584,5.9584,5.9584,5.9584,5.9492,5.9443,5.957,5.9847,6.0047,5.9847,6.004,6.0196,5.987,5.98,5.98,5.98,6.0055,6.0285,6.0285,6.0572,6.069,6.0345,6.0572,6.0684,6.0338,6.0597,6.0678,6.0331,6.0285,6.0154,5.9831,5.9669,5.9652,5.9773,5.98,5.9931,6.0271,5.9962,5.9931,6.0278,5.9954,5.98,5.98,5.98,5.98,5.98,5.98,5.98,5.98,5.98,5.9962,6.0271,5.9931,6.0168,6.0769,6.043,6.0495,6.0806,6.0806,6.0806,6.0806,6.0806,6.0806,6.0806,0.0,0.0,0.0,0.0,0.0,0.0,0.0,0.0,0.0,0.0,0.0,0.0,0.0,5.6601,5.6582,5.6582,5.6582,5.6537,5.6391,5.6385,5.6326,5.6191,5.6003,5.5888,5.5888,5.7451,5.828,5.8294,5.9954,6.0762,6.0806,6.0806,6.0806,6.0806,6.0806,6.0806,6.0806,6.0806,6.0806,6.0806,6.0775,6.0794,6.08,6.0775,6.0794,6.08,6.0763,6.0757,6.069,6.0236,6.0069,6.0069,6.0069,6.0069,6.0069,6.0069,5.9749,5.9492,5.9965,6.0096,6.0215,6.0641,6.0763,6.0788,6.0757,6.0757,6.0757,6.0757,6.0763,6.0788,6.0788,6.0794,6.08,6.0769,6.08,6.08,6.0769,6.08,6.0781,6.0769,6.0788,6.0769,0.0,6.0345,6.0264,6.0714,6.0757,6.0763,6.0788,6.0763,6.0763,6.0788,6.0763,6.0757,6.0757,6.0757,6.0757,6.0757,6.0757,6.0757,6.0757,6.0757,6.0763,6.0788,6.0763,6.0769,6.0806,6.0775,6.0794,6.0806,6.0806,6.0806,6.0806,6.0806,6.0806,6.0806,0.0,0.0,0.0,0.0,0.0,0.0,0.0,0.0,0.0,0.0,0.0,0.0,0.0,0.0,0.0,0.0,5.6601,5.6581,5.6537,5.6453,5.6379,5.633,5.6175,5.6094,5.6094,5.7081,5.7848,5.8428,5.9447,6.0223,6.0806,6.0806,6.0806,6.0806,6.0806,6.0806,6.0806,6.0806,6.0806,6.0806,6.0806,6.0806,6.0806,6.0806,6.0806,6.0806,0.0,6.0806,6.0788,6.0622,6.0565,6.0565,6.0565,6.0565,6.0565,6.0565,6.0443,6.0358,6.0514,6.0565,6.059,6.0757,6.0806,6.0806,6.0806,6.0806,6.0806,6.0806,6.0806,6.0806,6.0806,6.0806,6.0806,6.0806,6.0806,6.0806,6.0806,6.0806,6.0806,6.0806,6.0806,0.0,0.0,0.0,0.0,6.0794,6.0806,6.0806,6.0806,6.0806,6.0806,6.0806,6.0806,6.0806,6.0806,6.0806,6.0806,6.0806,6.0806,6.0806,6.0806,6.0806,6.0806,6.0806,6.0806,6.0806,6.0806,6.0806,6.0806,6.0806,6.0806,6.0806,6.0806,6.0806,6.0806,6.0806,0.0,0.0,0.0,0.0,0.0,0.0,0.0,0.0,0.0,0.0,0.0,0.0,0.0,0.0,0.0,0.0,0.0,5.6601,5.6601,5.6514,5.6462,5.6462,5.6337,5.6262,5.6262,5.6932,5.7694,5.8567,5.9316,6.0113,6.0988,6.0988,6.0988,6.0988,6.0988,6.0988,6.0988,6.0988,6.0934,6.0866,6.0866,6.0845,6.0806,6.0806,6.0806,0.0,6.0806,6.0806,6.0806,6.0806,6.0806,6.0806,6.0806,6.0806,6.0806,6.0806,6.0806,6.0806,6.0806,6.0806,6.0806,6.0806,6.0806,6.0806,6.0806,6.0806,6.0806,6.0806,6.0806,6.0806,6.0806,6.0806,6.0806,6.0806,6.0806,6.0806,6.0806,6.0806,6.0806,6.0806,6.0806,6.0806,0.0,0.0,0.0,6.0806,6.0806,6.0806,6.0806,6.0806,6.0806,6.0806,6.0806,6.0806,6.0806,6.0806,6.0806,6.0806,6.0806,6.0806,6.0806,6.0806,6.0806,6.0806,6.0806,6.0806,6.0806,6.0806,6.0806,6.0806,6.0806,6.0806,6.0806,6.0806,6.0806,6.0806,0.0,0.0,0.0,0.0,0.0,0.0,0.0,0.0,0.0,0.0,0.0,0.0,0.0,0.0,0.0,0.0,0.0,0.0,5.6601,5.6601,5.6601,5.6601,5.6484,5.6415,5.6415,5.7022,5.7776,5.8637,5.9516,6.0385,6.1228,6.1286,6.1306,6.1306,6.1306,6.1306,6.1306,6.1306,6.119,6.1001,6.1001,6.093,6.0806,6.0806,6.0806,6.0806,6.0806,6.0806,6.0806,6.0806,6.0806,6.0806,6.0806,6.0806,6.0806,6.0806,6.0806,6.0806,6.0806,6.0806,6.0806,6.0806,6.0806,6.0806,6.0806,6.0806,6.0806,6.0806,6.0806,6.0806,0.0,0.0,6.0806,6.0806,6.0806,6.0806,6.0806,6.0806,6.0806,0.0,0.0,0.0,0.0,0.0,0.0,6.0806,0.0,6.0806,6.0806,6.0806,6.0806,6.0806,6.0806,6.0806,6.0806,6.0806,6.0806,6.0806,6.0806,6.0806,6.0806,6.0806,6.0806,6.0806,6.0806,6.0806,6.0806,6.0806,6.0806,6.0806,6.0806,6.0806,6.0806,6.0806,6.0806,6.0806,0.0,0.0,0.0,0.0,0.0,0.0,0.0,0.0,0.0,0.0,0.0,0.0,0.0,0.0,0.0,0.0,0.0,0.0,5.6601,5.6601,5.6601,5.6601,5.6561,5.6559,5.6559,5.6614,5.7058,5.7874,5.8652,5.9474,6.0344,6.0991,6.1306,6.1306,6.1306,6.1306,6.1306,6.1306,6.119,6.1001,6.1001,6.093,6.0806,6.0806,6.0806,6.0806,6.0806,6.0806,6.0806,6.0806,6.0806,6.0806,6.0806,6.0806,6.0806,6.0806,6.0806,6.0806,6.0806,6.0806,6.0806,6.0806,6.0806,6.0806,6.0806,6.0806,6.0806,6.0806,6.0806,6.0806,0.0,0.0,0.0,6.0806,6.0806,0.0,6.0806,6.0806,0.0,6.0806,0.0,6.0806,6.0806,6.0806,0.0,0.0,6.0806,6.0806,6.0806,6.0806,6.0806,6.0806,6.0806,6.0806,6.0806,6.0806,6.0806,6.0806,6.0806,6.0806,6.0806,6.0806,6.0806,6.0806,6.0806,6.0806,6.0806,6.0806,6.0806,6.0806,6.0806,6.0806,6.0806,6.0806,6.0806,6.0806,0.0,0.0,0.0,0.0,0.0,0.0,0.0,0.0,0.0,0.0,0.0,0.0,0.0,0.0,0.0,0.0,0.0,0.0,0.0,5.6601,5.6601,5.6601,5.6601,5.6601,5.6601,5.6535,5.6896,5.7734,5.8153,5.897,6.0197,6.0687,6.1116,6.1488,6.1488,6.1488,6.1488,6.1488,6.137,0.0,0.0,6.1131,6.103,6.103,6.103,6.1016,6.0924,6.0856,6.0806,6.0806,6.0806,6.0806,6.0806,6.0806,6.0806,6.0806,6.0806,6.0806,6.0806,6.0806,6.0806,6.0806,6.0806,6.0806,6.0806,6.0806,6.0806,6.0806,6.0806,6.0806,6.0806,6.0806,6.0806,0.0,0.0,0.0,6.0806,6.0806,6.0806,0.0,6.0806,0.0,6.0806,6.0806,6.0806,0.0,6.0806,6.0806,6.0806,6.0806,6.0806,6.0806,6.0806,6.0806,6.0806,6.0806,6.0806,6.0806,6.0806,6.0806,6.0806,6.0806,6.0806,6.0806,0.0,6.0806,6.0806,6.0806,6.0806,6.0806,6.0806,6.0806,6.0806,6.0806,6.0806,6.0804,0.0,0.0,0.0,0.0,0.0,0.0,0.0,0.0,0.0,0.0,0.0,0.0,0.0,0.0,0.0,0.0,0.0,0.0,0.0,0.0,5.6601,5.6601,5.6601,5.6601,5.6601,5.6601,5.6973,5.7734,5.7832,5.8691,6.0234,6.0351,6.0879,6.1699,6.1699,6.1699,6.1699,6.1699,6.1612,6.1504,6.1504,6.1426,6.1306,0.0,6.1306,6.1288,6.1093,6.0968,6.0867,6.0867,6.0831,6.0806,6.0806,6.0806,6.0806,6.0806,6.0806,6.0806,6.0806,6.0806,6.0806,6.0806,6.0806,6.0806,6.0806,6.0806,6.0806,6.0806,6.0806,6.0806,6.0806,6.0806,6.0806,6.0806,0.0,6.0806,6.0806,6.0806,6.0806,6.0806,6.0806,6.0806,6.0806,6.0806,6.0806,6.0806,6.0806,6.0806,6.0806,6.0806,6.0806,6.0806,6.0806,6.0806,6.0806,6.0806,6.0806,6.0806,6.0806,6.0806,6.0806,6.0806,6.0806,6.0806,0.0,0.0,6.0806,6.0806,6.081,6.0825,6.0825,6.0828,6.0867,6.0867,6.0867,6.088,0.0,0.0,0.0,0.0,0.0,0.0,0.0,0.0,0.0,0.0,0.0,0.0,0.0,0.0,0.0,0.0,0.0,0.0,0.0,0.0,0.0,5.6601,5.6601,5.6601,5.6601,5.6601,5.668,5.6836,5.7558,5.8418,5.9414,6.0098,6.0879,6.1699,6.1699,6.1699,6.1699,6.1699,6.1612,6.1504,6.1504,6.1426,6.1306,6.1306,0.0,0.0,6.1256,6.1224,6.1216,6.1216,6.1024,6.0806,6.0806,6.0806,6.0806,6.0806,6.0806,6.0806,6.0806,6.0806,6.0806,6.0806,6.0806,6.0806,6.0806,6.0806,0.0,6.0806,6.0806,6.0806,6.0806,6.0806,6.0806,6.0806,6.0806,6.0806,6.0806,6.0806,6.0806,0.0,6.0806,6.0806,6.0806,6.0806,0.0,0.0,0.0,6.0806,6.0806,6.0806,6.0806,6.0806,6.0806,6.0806,6.0806,6.0806,6.0806,6.0806,6.0806,6.0806,6.0806,6.0806,6.0806,6.0806,6.0806,0.0,6.0806,6.0806,6.0874,6.0977,6.0977,6.1072,6.1216,6.1216,6.1216,6.1223,0.0,0.0,0.0,0.0,0.0,0.0,0.0,0.0,0.0,0.0,5.6601,5.6601,0.0,0.0,0.0,0.0,0.0,0.0,0.0,0.0,0.0,5.6601,5.6601,5.6601,5.6601,5.6601,5.6601,5.6601,0.0,5.7676,5.8535,5.9375,6.0215,6.1035,6.1504,6.1699,6.1699,6.1699,6.1658,6.1607,6.1607,6.1575,6.1508,0.0,0.0,0.0,6.1394,6.1352,6.1306,6.1306,6.1195,6.1068,6.1068,6.1068,6.1068,6.1068,6.1068,6.1068,6.1068,6.1068,6.1068,6.1068,6.1068,6.1037,6.093,0.0,0.0,6.0816,6.0806,6.0806,6.0806,6.1172,6.1479,6.1479,6.1479,6.1479,6.1479,6.1153,6.0895,6.0895,6.0992,6.1068,0.0,6.1068,0.0,0.0,0.0,6.0978,6.0804,6.0806,6.0806,6.0806,6.0806,6.0806,6.0806,6.086,6.0895,6.0919,6.101,6.1068,6.1068,6.1068,6.1068,6.1068,6.1068,0.0,6.1068,6.1068,6.1092,6.1165,6.1165,6.1217,6.1306,6.1306,6.1306,6.1317,0.0,0.0,0.0,0.0,0.0,0.0,0.0,5.6581,5.6601,5.6601,5.6601,5.6601,5.6601,5.6601,0.0,0.0,0.0,0.0,0.0,0.0,0.0,0.0,0.0,0.0,5.6601,0.0,0.0,5.6601,5.6601,0.0,0.0,0.0,0.0,0.0,6.1308,6.1699,6.1699,6.1699,6.1699,0.0,0.0,6.1699,0.0,0.0,0.0,0.0,0.0,6.1488,6.1395,6.1395,6.1395,6.1395,6.1395,6.1358,6.1306,6.1306,6.1306,6.1306,6.1306,6.1306,6.1306,6.1306,6.1306,6.1253,6.1109,6.1036,6.0967,6.085,6.0814,6.0864,6.1037,6.1633,6.2153,6.2326,6.2385,6.2353,6.2174,6.1679,6.1267,6.1073,6.1207,0.0,6.1306,6.1306,0.0,0.0,0.0,0.0,6.0918,6.0911,6.0911,6.0911,6.0911,6.0911,6.0911,6.0999,6.1053,6.1073,6.1224,6.1306,6.1306,6.1306,6.1306,6.1306,6.1306,0.0,0.0,6.1306,6.1326,6.1334,6.1334,6.1352,6.1395,6.1395,6.1395,6.1392,0.0,0.0,0.0,0.0,0.0,0.0,0.0,5.6515,5.6601,5.6601,5.6601,5.6601,5.6601,5.6601,0.0,0.0,0.0,0.0,0.0,0.0,0.0,0.0,0.0,0.0,0.0,0.0,0.0,5.6601,5.6601,0.0,0.0,0.0,0.0,0.0,0.0,6.1699,6.1699,6.1699,0.0,0.0,0.0,0.0,0.0,0.0,0.0,0.0,0.0,6.1678,6.1658,6.1658,6.1658,6.1658,6.1658,6.1501,6.1306,6.1306,6.1306,6.1306,6.1306,6.1306,6.1306,6.1306,6.1306,6.1303,6.1288,0.0,6.0997,6.0975,6.0878,6.1037,6.1826,6.2056,6.2345,6.3064,6.3347,6.3196,6.2389,6.2338,6.2088,6.1362,0.0,0.0,6.1306,6.1306,0.0,0.0,0.0,0.0,6.1263,6.124,6.124,6.124,6.124,6.124,6.124,6.1275,6.1265,6.1265,6.13,6.1306,6.1306,6.1306,6.1306,6.1306,6.1306,0.0,0.0,6.1306,6.1364,6.1472,6.1472,6.1551,6.1658,6.1658,6.1658,6.1678,0.0,0.0,0.0,0.0,0.0,0.0,0.0,5.6513,5.6601,5.6601,5.6601,5.6601,5.6601,5.6601,5.6601,0.0,0.0,0.0,0.0,0.0,0.0,0.0,0.0,0.0,0.0,0.0,5.6601,5.6601,5.6601,0.0,0.0,0.0,0.0,0.0,0.0,0.0,6.1699,6.1699,0.0,0.0,0.0,0.0,0.0,0.0,0.0,0.0,0.0,0.0,6.1699,6.1699,6.1699,6.1699,6.1699,6.1633,6.1544,6.1544,6.1544,6.1544,6.1544,6.1544,6.1544,6.1544,6.1544,6.1514,6.1442,0.0,6.127,6.121,6.1143,6.1375,6.2236,6.2798,6.3395,6.4253,6.4447,6.4383,6.403,6.367,6.315,6.2307,6.226,0.0,0.0,0.0,0.0,0.0,0.0,0.0,6.1544,6.1398,6.1306,6.1306,6.1306,6.1306,6.1306,6.1371,6.1426,6.1428,6.1504,6.1544,6.1544,6.1544,6.1544,6.1544,6.1544,0.0,0.0,6.1544,6.1578,6.1612,6.1612,6.1657,6.1699,6.1699,6.1699,6.1699,0.0,0.0,0.0,0.0,0.0,0.0,5.633,5.6455,5.656,5.6582,5.6601,5.6601,5.6601,5.6601,5.6601,5.6601,0.0,0.0,0.0,0.0,0.0,0.0,0.0,0.0,0.0,0.0,5.6601,5.6601,5.6601,5.6601,0.0,0.0,0.0,0.0,0.0,0.0,0.0,0.0,0.0,0.0,0.0,0.0,0.0,0.0,0.0,0.0,0.0,0.0,0.0,0.0,0.0,6.1699,6.1699,6.1699,6.1699,6.1699,6.1699,6.1699,6.1699,6.1699,6.1699,6.1699,6.1699,6.1679,0.0,0.0,6.1467,6.1371,6.1534,6.1931,6.279,6.3627,6.4464,6.5342,6.5517,6.545,6.5194,6.4808,6.423,6.335,0.0,6.3047,0.0,6.1855,0.0,0.0,0.0,0.0,6.1699,6.1515,6.1426,6.1426,6.1426,6.1426,6.1426,6.1509,6.1552,6.1553,6.1657,6.1699,6.1699,6.1699,6.1699,6.1699,0.0,0.0,0.0,6.1699,6.1699,6.1699,6.1699,6.1699,6.1699,6.1699,6.1699,6.1699,0.0,0.0,0.0,0.0,0.0,0.0,0.0,5.6317,5.6453,5.6581,5.6601,5.6601,5.6601,5.6601,5.6601,5.6601,0.0,0.0,0.0,0.0,0.0,0.0,0.0,0.0,0.0,0.0,5.6601,5.6601,5.6601,5.6601,5.664,5.8379,5.9199,0.0,0.0,0.0,0.0,0.0,0.0,0.0,0.0,0.0,0.0,0.0,0.0,0.0,0.0,0.0,0.0,0.0,0.0,0.0,0.0,6.1699,6.1699,6.1699,6.1699,6.1699,6.1699,6.1699,6.1699,6.1699,6.1699,6.1699,6.1699,6.1605,6.1502,6.1502,6.2089,6.2832,6.3643,6.4503,6.5362,6.6234,6.6509,6.6283,6.5423,6.5457,6.5254,0.0,0.0,6.3945,6.3066,6.2207,0.0,0.0,0.0,0.0,6.1699,6.1699,6.1699,6.1699,6.1699,6.1699,6.1699,6.1699,6.1699,6.1699,6.1699,6.1699,6.1699,6.1699,6.1699,0.0,0.0,0.0,0.0,6.1699,6.1699,6.1699,6.1699,6.1699,6.1699,6.1699,6.1699,6.1699,0.0,0.0,0.0,0.0,0.0,0.0,0.0,5.6315,5.6452,5.6581,5.6601,5.6601,5.6601,5.6601,5.6601,5.6601,0.0,0.0,0.0,0.0,0.0,0.0,0.0,0.0,0.0,0.0,5.6601,5.6601,5.6601,5.6601,5.664,5.8379,5.9199,5.9277,0.0,0.0,0.0,0.0,0.0,0.0,0.0,0.0,0.0,0.0,0.0,0.0,0.0,0.0,0.0,0.0,0.0,0.0,0.0,0.0,0.0,6.1699,6.1699,6.1699,6.1699,6.1699,6.1699,6.1699,6.1699,6.1699,6.1699,6.1678,6.1635,6.1635,6.229,6.3121,6.3979,6.4859,6.5737,6.6596,6.6784,6.6712,6.6439,6.6444,0.0,6.5293,6.4668,6.4199,0.0,0.0,0.0,0.0,0.0,0.0,6.1738,6.1699,6.1699,6.1699,6.1699,6.1699,6.1699,6.1699,6.1699,6.1699,6.1699,6.1699,6.1699,6.1699,0.0,0.0,0.0,0.0,0.0,6.1699,6.1699,6.1699,6.1699,6.1699,6.1699,6.1699,6.1699,6.1699,0.0,0.0,0.0,0.0,0.0,0.0,0.0,5.621,5.6376,5.6511,5.6561,5.6601,5.6601,5.6601,5.6601,5.6601,0.0,0.0,0.0,0.0,0.0,0.0,0.0,0.0,0.0,5.6601,5.6601,5.6601,5.6601,5.6777,5.7129,5.8535,5.9355,5.9707,6.1094,0.0,0.0,0.0,0.0,0.0,0.0,0.0,6.1699,0.0,0.0,0.0,0.0,0.0,0.0,0.0,0.0,0.0,0.0,0.0,0.0,0.0,6.1699,6.1699,6.1699,6.1699,6.1699,6.1699,6.1699,0.0,6.1699,6.1953,6.2187,6.2187,6.3144,6.414,6.4687,6.5508,6.6269,6.6816,6.6894,6.6894,6.6894,6.6894,0.0,6.6152,0.0,0.0,0.0,0.0,0.0,0.0,0.0,0.0,6.2246,6.2187,6.2031,6.1719,6.1699,6.1699,6.1699,6.1699,6.1699,6.1699,6.1699,6.1699,6.1699,6.1699,0.0,0.0,0.0,0.0,0.0,6.1699,6.1699,6.1699,6.1699,6.1699,6.1699,6.1699,6.1699,6.1699,0.0,0.0,0.0,0.0,0.0,0.0,0.0,0.0,0.0,0.0,5.6512,5.6582,5.6601,5.6601,0.0,0.0,0.0,0.0,0.0,0.0,0.0,0.0,0.0,0.0,5.6601,5.6601,5.6601,5.6601,5.666,5.7109,5.793,5.8848,5.9687,6.0449,6.1308,6.1699,0.0,0.0,0.0,0.0,6.1699,6.1699,0.0,0.0,0.0,0.0,0.0,0.0,0.0,0.0,0.0,0.0,0.0,0.0,0.0,0.0,0.0,0.0,0.0,6.1699,6.1699,6.1699,6.1699,6.1719,6.1777,6.2422,0.0,6.3086,6.4433,6.5605,6.5605,6.6308,6.6894,6.6894,6.6894,6.6894,6.6894,6.6894,0.0,0.0,6.6191,0.0,6.5683,0.0,0.0,0.0,0.0,0.0,6.3144,6.3086,6.2715,6.1914,6.1875,6.1836,6.1699,6.1699,6.1699,6.1699,6.1699,6.1699,6.1699,6.1699,0.0,0.0,0.0,0.0,0.0,6.1699,6.1699,6.1699,6.1699,6.1699,6.1699,6.1699,6.1699,6.1699,0.0,0.0,0.0,0.0,0.0,0.0,0.0,0.0,0.0,0.0,0.0,5.6486,5.6582,5.6601,0.0,0.0,0.0,0.0,0.0,0.0,0.0,0.0,0.0,0.0,5.6601,5.6601,5.6601,5.6601,5.7265,5.7695,5.793,5.9414,6.0215,6.0449,6.1308,6.1699,0.0,0.0,0.0,0.0,6.1699,6.1699,0.0,0.0,0.0,0.0,6.1699,6.1699,0.0,0.0,0.0,0.0,0.0,0.0,0.0,0.0,6.1699,6.1699,6.1699,0.0,6.1699,6.1699,6.1699,6.1875,0.0,6.2851,6.3183,6.3867,6.4844,6.5605,6.5605,6.6308,6.6894,6.6894,6.6894,6.6894,6.6894,6.6894,0.0,6.6894,6.6719,6.6582,6.6582,0.0,0.0,0.0,0.0,6.4902,6.4043,6.3984,6.3906,6.3691,6.3691,6.3047,6.1719,6.1699,6.1699,6.1699,6.1699,6.1699,6.1699,6.1699,0.0,0.0,0.0,0.0,6.1699,6.1699,6.1699,6.1699,6.1699,6.1699,6.1699,6.1699,6.1699,6.1699,0.0,0.0,0.0,0.0,0.0,0.0,0.0,0.0,0.0,0.0,0.0,0.0,0.0,0.0,0.0,0.0,0.0,0.0,0.0,0.0,0.0,0.0,0.0,5.6601,5.6601,5.6601,5.6797,5.7207,5.7676,5.8281,5.9062,5.998,6.0605,6.1015,6.1484,6.1699,0.0,0.0,0.0,0.0,6.1699,0.0,0.0,0.0,0.0,0.0,6.1699,6.1699,0.0,6.1699,6.1699,6.1699,0.0,0.0,0.0,0.0,6.1699,6.1699,6.1699,6.1699,6.1699,6.1699,6.1992,6.2422,6.289,6.3613,6.4336,6.4805,6.5586,6.6191,6.6191,6.6582,6.6894,6.6894,6.6894,6.6894,6.6894,6.6894,6.6894,6.6894,6.6894,6.6894,0.0,0.0,0.0,0.0,0.0,6.582,6.4941,6.4902,6.4707,6.4316,6.4297,6.3652,6.2305,6.2305,6.2109,6.1699,6.1699,6.1699,6.1699,6.1699,6.1699,0.0,0.0,0.0,6.1699,6.1699,6.1699,6.1699,6.1699,6.1699,6.1699,6.1699,6.1699,6.1699,0.0,0.0,0.0,0.0,0.0,0.0,0.0,0.0,0.0,0.0,0.0,0.0,0.0,0.0,0.0,0.0,0.0,0.0,0.0,0.0,0.0,0.0,0.0,5.6601,5.6601,5.6738,5.7168,5.789,5.8164,5.9004,6.039,6.0547,6.0996,6.1699,6.1699,6.1699,0.0,0.0,0.0,0.0,6.1699,0.0,0.0,0.0,0.0,0.0,0.0,0.0,0.0,6.1699,6.1699,6.1699,6.1699,0.0,0.0,0.0,0.0,0.0,6.1699,6.1699,6.1718,6.1855,6.2441,6.3066,6.334,6.4531,6.5644,6.5762,6.6387,6.6894,6.6854,6.6875,6.6894,6.6854,6.6875,6.6894,6.6894,6.6894,6.6894,6.6894,6.6894,0.0,0.0,0.0,0.0,0.0,0.0,6.6582,6.584,6.5801,6.5469,6.4726,6.4707,6.4277,6.3418,6.3262,6.2832,6.2109,6.2109,6.2109,6.2109,6.2109,6.2109,0.0,0.0,0.0,6.2109,6.2109,6.2109,6.207,6.1953,6.1894,6.1875,6.1758,6.1777,6.1914,0.0,0.0,0.0,0.0,0.0,0.0,0.0,0.0,0.0,0.0,0.0,0.0,0.0,0.0,0.0,0.0,0.0,0.0,0.0,0.0,0.0,5.6601,5.6601,5.6601,5.6601,5.7324,5.7773,5.789,5.9316,6.0156,6.043,6.1152,6.1562,6.1699,6.1699,6.1699,6.1699,0.0,0.0,6.1699,6.1699,0.0,0.0,0.0,0.0,0.0,0.0,0.0,0.0,6.1699,6.1699,6.1699,6.1699,0.0,0.0,0.0,0.0,0.0,6.1699,6.1611,6.1747,6.2596,6.289,6.3398,6.4863,6.541,6.5801,6.6543,6.6816,6.6853,6.6684,6.6788,6.6834,6.6663,6.6788,6.6894,0.0,0.0,6.6894,6.6894,0.0,6.6894,0.0,0.0,0.0,0.0,0.0,6.6836,6.6719,6.6699,6.664,6.6504,6.6504,6.6074,6.5215,6.4473,6.4023,6.3906,6.3906,6.3906,6.3906,6.3906,6.3906,0.0,0.0,6.3906,6.3906,6.3906,6.3906,6.3828,6.3086,6.2793,6.2715,6.1973,6.2168,6.289,0.0,0.0,0.0,0.0,0.0,0.0,0.0,0.0,0.0,0.0,0.0,0.0,0.0,0.0,0.0,0.0,0.0,0.0,0.0,0.0,0.0,5.7305,5.7754,5.7773,5.7305,5.8164,5.8828,5.9258,6.0019,6.0644,6.1113,6.1504,6.1699,6.1699,6.1699,6.1699,6.1699,6.1699,6.1699,6.1699,0.0,0.0,0.0,0.0,0.0,0.0,0.0,0.0,0.0,0.0,6.152,6.1584,6.1584,0.0,0.0,0.0,0.0,0.0,6.2265,6.2309,6.2524,6.3901,6.3826,6.3776,6.5042,6.5688,6.6169,6.6636,6.6739,6.6712,6.6624,6.6683,6.6682,6.6512,0.0,6.6626,6.6626,6.6682,6.6709,0.0,0.0,0.0,0.0,0.0,0.0,0.0,0.0,0.0,6.6894,6.6894,6.6894,6.6894,6.6894,6.6719,6.6308,6.5918,6.5234,6.4297,6.4297,6.4297,6.4297,6.4297,6.4297,6.4297,0.0,6.4297,6.4297,6.4228,6.4199,6.4138,6.3634,6.3437,6.3379,6.2989,6.3086,6.3471,0.0,0.0,0.0,0.0,0.0,0.0,0.0,0.0,0.0,0.0,0.0,0.0,0.0,0.0,0.0,0.0,0.0,0.0,0.0,0.0,5.8203,5.8203,5.9023,5.9082,5.8223,5.9043,5.9785,6.039,6.0605,6.1055,6.1699,6.1699,6.1699,6.1699,6.1699,6.1699,6.1699,6.1699,6.1699,6.1699,0.0,0.0,0.0,0.0,0.0,0.0,0.0,0.0,0.0,0.0,0.0,0.0,0.0,0.0,0.0,6.1608,6.1608,6.1783,6.2643,6.2793,6.3085,6.4763,6.4635,6.4321,6.5213,6.5917,6.6423,6.6527,6.6543,6.6537,6.649,6.6485,6.6461,6.6402,6.6406,6.6406,6.6406,6.6488,6.6512,0.0,0.0,0.0,0.0,0.0,0.0,0.0,0.0,0.0,6.6812,6.6807,6.6783,6.6783,6.6783,6.6783,6.6783,6.6783,6.6123,6.484,6.484,6.4818,6.4791,6.4791,6.4791,6.4791,6.4791,6.4791,6.4788,6.4678,6.4648,6.4599,6.424,6.3975,6.3819,6.4033,6.4066,6.4067,0.0,0.0,0.0,0.0,0.0,0.0,0.0,0.0,0.0,0.0,0.0,0.0,0.0,0.0,0.0,0.0,0.0,0.0,0.0,0.0,5.9101,5.9101,5.9883,5.9922,5.9121,5.9902,6.0332,6.039,6.1211,6.164,6.1699,6.1699,6.1699,6.1699,6.1699,6.1699,6.1699,6.1699,6.1699,6.1699,6.1555,0.0,0.0,0.0,0.0,0.0,0.0,0.0,0.0,0.0,0.0,0.0,0.0,0.0,6.134,6.134,6.134,6.1512,6.2324,6.2433,6.2736,6.4418,6.4912,6.5233,6.6114,6.6348,6.639,6.6402,6.6406,6.6358,6.6166,6.6145,6.6191,6.6364,6.6406,6.6406,6.6406,0.0,0.0,0.0,0.0,0.0,0.0,0.0,0.0,0.0,0.0,0.0,6.6601,6.6495,6.6443,6.6443,6.6443,6.6443,6.6443,6.6443,6.6432,6.643,6.643,6.6366,6.6245,6.6245,6.6245,6.6245,6.6245,6.6245,6.6245,6.6233,6.623,6.6149,6.5333,6.4507,6.3897,6.4701,6.4885,6.4836,0.0,0.0,0.0,0.0,0.0,0.0,0.0,0.0,0.0,0.0,0.0,0.0,0.0,0.0,0.0,0.0,0.0,0.0,0.0,5.9606,5.9941,5.9941,6.0762,6.1074,6.0762,6.1055,6.1211,6.1211,6.1543,6.1699,6.1699,6.1699,6.1699,6.1699,6.1699,6.1657,6.1579,6.1579,6.1538,6.1448,6.1407,6.1386,0.0,0.0,0.0,0.0,0.0,0.0,0.0,0.0,6.1049,6.1101,6.1101,6.1204,6.1306,6.1306,6.1653,6.2234,6.3073,6.3577,6.4135,6.5306,6.5606,6.5676,6.601,6.6093,6.6099,6.6198,6.6204,6.6198,6.6109,6.6032,6.6003,6.6072,6.6093,6.6093,6.6093,6.6151,0.0,0.0,0.0,0.0,0.0,0.0,0.0,0.0,0.0,0.0,6.6468,6.6421,6.6406,6.6406,6.6406,6.6406,6.6406,6.6406,6.6368,6.6284,6.6413,6.6446,6.6406,6.6406,6.6406,6.6406,6.6406,6.6406,6.64,6.626,6.6204,6.6172,6.5761,6.5401,6.5144,6.5478,6.555,6.5533,0.0,0.0,0.0,0.0,0.0,0.0,0.0,0.0,0.0,0.0,0.0,0.0,0.0,0.0,0.0,0.0,0.0,0.0,5.9722,6.0371,6.0778,6.0801,6.1387,6.1699,6.1699,6.1699,6.1699,6.1699,6.1699,6.1699,6.1699,6.1699,6.1679,6.1635,6.1635,6.1554,6.144,6.144,6.1376,6.128,6.123,6.1207,0.0,0.0,0.0,0.0,0.0,0.0,0.0,0.0,6.0864,6.0945,6.0945,6.1036,6.1136,6.1136,6.152,6.2218,6.3348,6.3979,6.4597,6.5747,6.5965,6.5904,6.5904,6.5904,6.5927,6.6019,6.6042,6.6042,6.6042,6.5953,6.5904,0.0,6.5904,6.5904,6.5904,6.5974,0.0,0.0,0.0,0.0,0.0,0.0,0.0,0.0,0.0,0.0,0.0,6.6279,6.6243,6.6243,6.6243,6.6243,6.6243,6.6243,6.616,6.6042,6.6184,6.6243,6.6243,6.6243,6.6243,6.6243,6.6243,6.6243,6.623,6.6099,6.6042,6.6021,6.5932,6.5904,6.5904,6.5904,6.5904,6.5904,0.0,0.0,0.0,0.0,0.0,0.0,0.0,0.0,0.0,0.0,0.0,0.0,0.0,0.0,0.0,0.0,0.0,0.0,6.1496,6.1504,6.1553,6.1699,6.1699,6.1699,6.1699,6.1699,6.1699,6.1699,6.1699,6.1699,6.1699,6.1699,6.1633,6.1504,6.1502,6.143,6.1303,6.1303,6.1303,6.1288,6.1085,6.0997,6.097,0.0,0.0,0.0,0.0,0.0,0.0,0.0,6.0806,6.0806,6.0806,6.0806,6.0806,6.0806,6.0825,6.1185,6.2852,6.3314,6.3737,6.5474,6.5904,6.5904,6.5904,6.5904,6.5904,6.5904,6.5904,6.5904,6.5904,6.5904,0.0,6.5904,6.5904,6.5904,6.5904,0.0,0.0,0.0,0.0,0.0,0.0,0.0,0.0,0.0,0.0,0.0,0.0,6.5976,6.5904,6.5904,6.5904,6.5904,6.5904,6.5904,6.5904,6.5904,6.5904,6.5904,6.5904,6.5904,6.5904,6.5904,6.5904,6.5904,6.5904,6.5904,6.5904,6.5904,6.5904,6.5904,6.5904,6.5904,6.5904,6.5904,0.0,0.0,0.0,0.0,0.0,0.0,0.0,0.0,0.0,0.0,0.0,0.0,0.0,0.0,0.0,0.0,0.0,0.0,6.1369,6.1542,6.1657,6.1699,6.1699,6.1699,6.1699,6.1608,6.1608,6.1699,6.1699,6.1699,6.1699,6.1607,6.1543,6.1501,6.1392,6.1252,6.1097,6.1097,6.1025,6.0934,6.0876,6.0858,0.0,0.0,0.0,0.0,0.0,0.0,0.0,0.0,0.0,0.0,6.0806,6.0806,6.0921,6.1537,6.2108,6.2801,6.391,6.4666,6.5243,6.5763,6.5904,6.5904,6.5904,6.5904,6.5904,6.5904,6.5904,6.5904,6.5904,6.5904,0.0,6.5904,6.5904,0.0,0.0,0.0,0.0,0.0,0.0,0.0,0.0,0.0,0.0,0.0,0.0,0.0,0.0,6.5915,6.5904,6.5904,6.5904,6.5904,6.5904,6.5904,6.5904,6.5904,6.5904,6.5904,6.5904,6.5904,6.5904,6.5904,6.5904,6.5904,6.5904,6.5904,6.5904,6.5904,6.5904,6.5904,6.5904,6.5904,6.5904,6.5904,0.0,0.0,0.0,0.0,0.0,0.0,0.0,0.0,0.0,0.0,6.0806,6.0814,0.0,0.0,0.0,0.0,0.0,0.0,0.0,6.154,6.1636,6.1699,6.1656,6.1605,6.1546,6.1458,6.1457,6.1544,6.1544,6.1544,6.1543,6.1457,6.1383,6.1292,6.1214,6.1073,6.093,6.093,6.0871,6.0806,6.0806,6.0806,6.0806,0.0,0.0,0.0,0.0,0.0,0.0,0.0,0.0,0.0,6.0806,6.0806,6.0902,6.1422,6.1935,6.257,6.3762,6.4474,6.5032,6.5731,6.5904,6.5904,6.5904,6.5904,6.5904,6.5904,6.5904,6.5904,6.5904,6.5904,0.0,6.5904,0.0,0.0,0.0,0.0,0.0,0.0,0.0,0.0,0.0,0.0,0.0,0.0,0.0,0.0,0.0,6.5904,6.5904,6.5904,6.5904,6.5904,6.5904,6.5904,6.5904,6.5904,6.5904,6.5904,6.5904,6.5904,6.5904,6.5904,6.5904,6.5904,6.5904,6.5904,6.5904,6.5904,6.5904,6.5904,6.5904,6.5904,6.5904,6.5904,0.0,0.0,0.0,0.0,0.0,0.0,0.0,0.0,0.0,0.0,6.081,6.085,0.0,0.0,0.0,0.0,0.0,0.0,0.0,0.0,6.1576,6.1679,6.155,6.1411,6.1309,6.1271,6.1265,6.1265,6.13,6.1306,6.1306,6.1271,6.1179,6.1001,6.0999,6.0915,6.0806,6.0806,6.0806,6.0806,6.0806,6.0806,6.0806,6.0806,0.0,0.0,0.0,0.0,0.0,0.0,0.0,0.0,6.0806,6.0806,6.0819,6.0973,6.0979,6.1306,6.3064,6.3487,6.3814,6.5474,6.5904,6.5904,6.5904,6.5904,6.5904,6.5904,6.5904,6.5904,6.5904,6.5904,6.5904,6.5904,0.0,0.0,0.0,0.0,0.0,0.0,0.0,0.0,0.0,0.0,0.0,0.0,0.0,0.0,0.0,6.5904,6.5904,6.5904,6.5904,6.5904,6.5904,6.5904,6.5904,0.0,6.5904,6.5904,6.5904,6.5904,6.5904,6.5904,6.5904,6.5904,6.5904,6.5904,6.5904,6.5904,6.5904,6.5904,6.5904,6.5904,6.5904,6.5904,0.0,0.0,0.0,0.0,0.0,0.0,0.0,0.0,0.0,0.0,0.0,0.0,0.0,0.0,0.0,0.0,0.0,0.0,0.0,0.0,6.1612,6.1547,6.1402,6.134,6.1306,6.1154,6.1053,6.1053,6.1224,6.1306,6.1303,6.1147,6.1048,6.0993,6.0888,6.0825,6.0806,6.0806,6.0806,6.0806,6.0806,6.0806,6.0806,6.0806,6.0806,0.0,0.0,0.0,0.0,0.0,0.0,0.0,6.0806,6.0806,6.105,6.2371,6.232,6.2345,6.4711,6.4839,6.457,6.5628,6.5904,6.5904,6.5904,6.5904,6.5904,6.5904,6.5904,6.5904,6.5904,6.5904,6.5904,6.5904,0.0,0.0,0.0,0.0,0.0,0.0,0.0,0.0,0.0,0.0,0.0,0.0,0.0,0.0,6.5904,6.5904,6.5904,6.5904,6.5904,6.5904,6.5904,6.5904,6.5904,0.0,6.5904,6.5904,6.5904,6.5904,6.5904,6.5904,6.5904,6.5904,6.5904,6.5904,6.5904,6.5904,6.5904,6.5904,6.5904,6.5904,6.5904,6.5904,0.0,0.0,0.0,0.0,0.0,0.0,0.0,0.0,0.0,0.0,0.0,0.0,0.0,0.0,0.0,0.0,0.0,0.0,0.0,0.0,6.1493,6.127,6.1198,6.1136,6.1053,6.0964,6.0895,6.0895,6.101,6.1068,6.1064,6.094,6.0895,6.089,6.0836,6.0806,6.0806,6.0806,6.0806,6.0806,6.0806,6.0806,6.0806,6.0806,6.0806,6.0806,6.0806,0.0,0.0,0.0,0.0,0.0,0.0,0.0,6.0979,6.1858,6.2095,6.2383,6.3711,6.432,6.4801,6.5686,6.5904,6.5904,6.5904,6.5904,6.5904,6.5904,6.5904,6.5904,6.5904,6.5904,6.5904,0.0,0.0,0.0,0.0,0.0,0.0,0.0,0.0,0.0,0.0,0.0,0.0,0.0,0.0,6.5904,6.5904,6.5904,6.5904,6.5904,6.5904,6.5904,6.5904,6.5904,6.5904,6.5904,6.5904,6.5904,6.5904,6.5904,6.5904,6.5904,6.5904,6.5904,6.5904,6.5904,6.5904,6.5904,6.5904,6.5904,6.5904,6.5904,6.5904,6.5904,0.0,0.0,0.0,0.0,0.0,0.0,0.0,0.0,0.0,0.0,0.0,0.0,0.0,0.0,0.0,0.0,0.0,0.0,0.0,0.0,0.0,6.1019,6.0981,6.0915,6.0806,6.0806,6.0806,6.0806,6.0806,6.0806,6.0806,6.0806,6.0806,6.0806,6.0806,6.0806,6.0806,6.0806,6.0806,6.0806,6.0806,6.0806,6.0806,6.0806,6.0806,6.0806,6.0806,6.0806,6.0806,6.0806,0.0,0.0,0.0,0.0,6.0825,6.0979,6.1422,6.196,6.2403,6.3647,6.4955,6.5532,6.5788,6.5904,6.5904,6.5904,6.5904,6.5904,6.5904,6.5904,6.5904,6.5904,6.5904,0.0,0.0,0.0,0.0,0.0,0.0,0.0,0.0,0.0,0.0,0.0,0.0,0.0,0.0,6.5904,6.5904,6.5904,6.5904,6.5904,6.5904,6.5904,6.5904,6.5904,6.5904,6.5904,6.5904,6.5904,6.5904,6.5904,6.5904,6.5904,6.5904,6.5904,6.5904,6.5904,6.5904,6.5904,6.5904,6.5904,6.5904,6.5904,6.5904,6.5904,0.0,0.0,0.0,0.0,0.0,0.0,0.0,0.0,0.0,0.0,6.1392,0.0,0.0,0.0,0.0,0.0,0.0,0.0,6.1354,0.0,0.0,6.1006,6.0883,6.0827,6.0806,6.0806,6.0806,6.0806,6.0806,6.0806,6.0806,6.0806,6.0806,6.0806,6.0806,6.0806,6.0806,6.0806,6.0806,6.0806,6.0806,6.0806,6.0806,6.0806,6.0806,6.0806,6.0806,6.0806,6.0806,6.0806,6.0806,0.0,0.0,0.0,6.096,6.1691,6.146,6.1454,6.3666,6.4974,6.557,6.4936,6.534,6.5904,6.5904,6.5904,6.5904,6.5904,6.5904,6.5904,6.5904,6.5904,6.5904,0.0,0.0,0.0,0.0,0.0,0.0,0.0,0.0,0.0,0.0,0.0,0.0,0.0,6.5904,6.5904,6.5904,6.5904,6.5904,6.5904,6.5904,6.5904,6.5904,6.5904,6.5904,6.5904,6.5904,6.5904,6.5904,6.5904,6.5904,6.5904,6.5904,6.5904,6.5904,6.5904,6.5904,6.5904,6.5904,6.5904,6.5904,6.5904,6.5904,6.5904,0.0,0.0,0.0,0.0,0.0,0.0,0.0,0.0,0.0,0.0,0.0,6.161,0.0,0.0,0.0,6.1507,6.1436,6.1323,6.1135,6.1056,6.0977,6.0888,6.0836,6.0806,6.0806,6.0806,6.0806,6.0806,6.0806,6.0806,6.0806,6.0806,6.0806,6.0806,6.0806,6.0806,6.0806,6.0806,6.0806,6.0806,6.0806,6.0806,6.0806,6.0806,6.0806,6.0806,0.0,0.0,6.0806,6.0806,6.0806,6.0806,6.0806,0.0,0.0,0.0,6.1441,6.1864,6.3435,6.382,6.3903,6.4455,6.4897,6.5301,6.5788,6.5904,6.5904,6.5904,6.5904,6.5904,6.5904,6.5904,0.0,0.0,0.0,0.0,0.0,0.0,0.0,0.0,0.0,0.0,0.0,0.0,0.0,0.0,6.5904,6.5904,6.5904,6.5904,6.5904,6.5904,6.5904,6.5904,6.5904,6.5904,6.5904,6.5904,6.5904,6.5904,6.5904,6.5904,6.5904,6.5904,6.5904,6.5904,6.5904,6.5904,6.5904,6.5904,6.5904,6.5904,6.5904,6.5904,6.5904,6.5904,0.0,0.0,0.0,0.0,0.0,0.0,0.0,0.0,0.0,0.0,0.0,0.0,0.0,0.0,0.0,0.0,6.1318,6.1147,6.0963,6.0944,6.0895,6.0793,6.0806,6.0806,6.0806,6.0806,6.0806,6.0806,6.0806,6.0806,6.0806,6.0806,6.0806,6.0806,6.0806,6.0806,6.0806,6.0806,6.0806,6.0806,6.0806,6.0806,6.0806,6.0806,6.0806,6.0806,0.0,0.0,0.0,0.0,0.0,0.0,0.0,6.0806,0.0,0.0,0.0,6.1991,6.2388,6.235,6.2471,6.3527,6.4027,6.4436,6.5089,6.5416,6.557,0.0,6.5743,6.5904,6.5904,6.5904,0.0,0.0,0.0,0.0,0.0,0.0,0.0,0.0,0.0,0.0,0.0,0.0,0.0,0.0,6.5904,6.5904,6.5904,6.5904,6.5904,6.5904,6.5904,6.5904,6.5904,6.5904,6.5904,6.5904,6.5904,6.5904,6.5904,6.5904,6.5904,6.5904,6.5904,6.5904,6.5904,6.5904,6.5904,6.5904,6.5904,6.5904,6.5904,6.5904,6.5904,6.5904,0.0,0.0,0.0,0.0,0.0,0.0,0.0,0.0,0.0,0.0,0.0,0.0,6.1699,6.158,6.1449,6.1312,6.112,6.0954,6.0827,6.081,6.0804,6.0806,6.0806,0.0,6.0806,6.0806,6.0806,6.0806,6.0806,6.0806,6.0806,6.0806,6.0806,6.0806,6.0806,6.0806,6.0806,6.0806,6.0806,6.0806,6.0806,6.0806,6.0806,6.0806,0.0,0.0,0.0,0.0,0.0,0.0,0.0,0.0,0.0,0.0,6.0806,0.0,0.0,0.0,6.0483,6.1398,6.2398,6.1738,6.2475,6.3372,6.3429,6.4064,6.4666,6.4666,6.532,6.5904,6.5904,6.5904,0.0,0.0,0.0,0.0,0.0,0.0,0.0,0.0,0.0,0.0,0.0,0.0,0.0,0.0,6.5904,6.5904,6.5904,6.5904,6.5904,6.5904,6.5904,6.5904,6.5904,6.5904,6.5904,6.5904,6.5904,6.5904,6.5904,6.5904,6.5904,6.5904,6.5904,6.5904,6.5904,6.5904,6.5904,6.5904,6.5904,6.5904,6.5904,6.5904,6.5904,6.5904,0.0,0.0,0.0,0.0,0.0,0.0,0.0,0.0,0.0,0.0,0.0,0.0,0.0,6.158,6.1448,6.132,6.1031,6.0842,6.0793,6.0806,6.0806,6.0806,6.0806,6.0806,6.0806,6.0806,6.0806,6.0806,6.0806,6.0806,6.0806,6.0806,6.0806,6.0806,6.0806,6.0806,6.0806,6.0806,6.0806,6.0806,6.0806,0.0,6.0806,0.0,0.0,0.0,0.0,0.0,0.0,0.0,0.0,0.0,0.0,0.0,0.0,5.9901,6.0009,6.0039,5.9736,6.0096,6.0616,6.0871,6.1511,6.2214,6.2724,6.3341,6.391,6.4474,6.4859,6.5243,6.5807,6.5904,0.0,0.0,0.0,0.0,0.0,0.0,0.0,0.0,0.0,0.0,0.0,0.0,0.0,0.0,0.0,6.5904,6.5904,6.5904,6.5904,6.5904,6.5904,6.5904,6.5904,6.5904,6.5904,6.5904,6.5904,6.5904,6.5904,6.5904,6.5904,6.5904,6.5904,6.5904,6.5904,6.5904,6.5904,6.5904,6.5904,6.5904,6.5904,6.5904,6.5904,6.5904,0.0,0.0,0.0,0.0,0.0,0.0,0.0,0.0,0.0,6.1699,0.0,0.0,0.0,0.0,6.1415,6.1224,6.0945,6.0806,6.0806,6.0806,6.0806,6.0806,6.0806,6.0806,6.0806,6.0806,6.0806,6.0806,6.0806,6.0806,6.0806,6.0806,6.0806,6.0806,6.0806,6.0806,6.0806,6.0806,6.0806,6.0806,0.0,0.0,6.0806,0.0,0.0,0.0,0.0,0.0,0.0,0.0,0.0,0.0,0.0,0.0,0.0,0.0,0.0,5.9176,5.9176,5.9176,5.9308,5.9871,6.0377,6.0874,6.1406,6.2108,6.2829,6.3411,6.4091,6.4782,6.5359,6.5705,0.0,0.0,0.0,0.0,0.0,0.0,0.0,0.0,0.0,0.0,0.0,0.0,0.0,0.0,0.0,0.0,6.5904,6.5904,6.5904,6.5904,6.5904,6.5904,6.5904,6.5904,6.5904,6.5904,6.5904,6.5904,6.5904,6.5904,6.5904,6.5904,6.5904,6.5904,6.5904,6.5904,6.5904,6.5904,6.5904,6.5904,6.5904,6.5904,6.5904,6.5904,0.0,0.0,0.0,0.0,0.0,0.0,0.0,0.0,0.0,6.1699,0.0,0.0,0.0,0.0,0.0,6.1048,6.0882,6.0806,6.0806,6.0806,6.0806,6.0806,6.0806,6.0806,6.0806,6.0806,6.0806,6.0806,6.0806,6.0806,6.0806,6.0806,6.0806,6.0806,6.0806,6.0806,6.0806,6.0806,6.0806,6.0806,0.0,6.0806,6.0806,0.0,0.0,0.0,6.0806,6.08,0.0,0.0,0.0,0.0,0.0,0.0,0.0,0.0,0.0,0.0,0.0,0.0,0.0,5.8674,5.9028,5.9372,5.9372,6.0394,6.135,6.1384,6.3043,6.4507,6.4532,6.525,0.0,0.0,0.0,0.0,0.0,0.0,0.0,0.0,0.0,0.0,0.0,0.0,0.0,0.0,6.5904,6.5904,6.5904,6.5904,6.5904,6.5904,6.5904,6.5904,6.5904,6.5904,6.5904,6.5904,6.5904,6.5904,6.5904,6.5904,6.5904,6.5904,6.5904,6.5904,6.5904,6.5904,6.5904,6.5904,6.5904,6.5904,6.5904,6.5904,6.5904,6.5904,0.0,0.0,0.0,0.0,0.0,0.0,0.0,0.0,6.1699,0.0,0.0,0.0,6.1699,6.1499,6.1315,6.1227,6.0949,6.0806,6.0806,6.0806,6.0806,6.0806,6.0806,6.0806,6.0806,6.0806,6.0806,6.0806,6.0806,6.0806,6.0806,6.0806,6.0806,6.0806,6.0806,6.0806,6.0806,6.0806,0.0,6.0806,6.0806,6.0806,0.0,0.0,0.0,0.0,0.0,6.0578,0.0,0.0,5.9485,5.9028,0.0,0.0,0.0,0.0,0.0,0.0,5.819,0.0,0.0,0.0,0.0,0.0,0.0,5.9445,6.0232,6.1191,6.161,6.2065,6.2975,6.3875,0.0,0.0,0.0,0.0,0.0,0.0,0.0,0.0,0.0,0.0,0.0,0.0,0.0,0.0,6.5904,6.5904,6.5904,6.5904,6.5904,6.5904,6.5904,6.5904,6.5904,6.5904,6.5904,6.5904,6.5904,6.5904,6.5904,6.5904,6.5904,6.5904,6.5904,6.5904,6.5904,6.5904,6.5904,6.5904,6.5904,6.5904,6.5904,6.5904,6.5904,6.5981,0.0,0.0,0.0,0.0,0.0,0.0,0.0,6.1699,6.1699,0.0,0.0,0.0,6.1699,6.1458,6.1312,6.1371,6.1033,6.0819,6.0887,6.0836,6.0806,6.0806,6.0806,6.0806,6.0806,6.0806,6.0806,6.0806,6.0806,6.0806,6.0806,6.0806,6.0806,6.0806,6.0806,6.0806,6.0806,6.0806,0.0,0.0,6.0806,0.0,0.0,6.0806,6.0806,0.0,0.0,0.0,6.0055,5.9781,5.9239,0.0,0.0,0.0,0.0,0.0,0.0,0.0,0.0,0.0,0.0,0.0,0.0,0.0,5.8407,5.8775,5.9326,0.0,6.0495,6.0927,6.1679,6.2507,0.0,0.0,0.0,0.0,0.0,0.0,0.0,0.0,0.0,0.0,0.0,6.5904,6.5904,6.5904,6.5904,6.5904,6.5904,6.5904,6.5904,6.5904,6.5904,6.5904,6.5904,6.5904,6.5904,6.5904,6.5904,6.5904,6.5904,6.5904,6.5904,6.5904,6.5904,6.5904,6.5904,6.5904,6.5904,6.5904,6.5904,6.5904,6.5904,6.5904,6.6109,6.6462,0.0,0.0,0.0,0.0,0.0,0.0,0.0,6.1699,0.0,0.0,6.1699,6.1699,6.1699,6.1467,6.1361,6.1496,6.1073,6.0871,6.0988,6.0871,0.0,0.0,0.0,0.0,6.0806,6.0806,6.0806,6.0806,6.0806,6.0806,6.0806,6.0806,6.0806,6.0806,6.0806,6.0806,6.0806,6.0806,0.0,6.0806,6.0806,6.0806,0.0,0.0,6.0806,0.0,6.0746,6.0417,6.001,5.9901,5.9302,0.0,0.0,0.0,0.0,0.0,5.7997,0.0,0.0,0.0,0.0,0.0,0.0,0.0,5.7997,5.8318,5.8642,0.0,5.9609,6.0414,6.0468,6.1146,0.0,0.0,0.0,0.0,0.0,0.0,0.0,0.0,0.0,0.0,6.5897,6.5904,6.5904,6.5904,6.5904,6.5904,6.5904,6.5904,6.5904,6.5904,6.5904,6.5904,6.5904,6.5904,6.5904,6.5904,6.5904,6.5904,6.5897,6.584,6.5808,6.5801,6.5768,6.5729,6.5729,6.5729,6.5749,6.5808,6.5808,6.5781,6.5748,6.5818,6.6364,6.7057,0.0,0.0,0.0,0.0,0.0,0.0,0.0,6.1699,6.1699,6.1699,6.1699,6.1699,6.1699,6.1552,6.1465,6.1502,6.1165,6.0972,6.0997,6.0871,6.0806,0.0,0.0,0.0,6.0806,6.0806,6.0806,6.0806,6.0806,6.0806,6.0806,6.0806,6.0806,6.0806,6.0806,6.0806,6.0806,0.0,0.0,6.0806,6.0806,0.0,6.0806,6.0806,6.0806,6.0752,6.0365,5.9931,5.9415,0.0,5.8293,5.8119,0.0,0.0,0.0,0.0,0.0,0.0,0.0,0.0,0.0,0.0,0.0,0.0,5.7997,5.807,5.8238,0.0,5.8604,5.8637,5.9027,5.979,6.0427,0.0,0.0,0.0,0.0,0.0,0.0,0.0,0.0,0.0,6.5853,6.5904,6.5904,6.5904,6.5904,6.5904,6.5904,6.5904,6.5904,6.5904,6.5904,6.5904,6.5904,6.5904,6.5904,6.5904,6.5904,6.5904,6.5891,6.5446,6.5268,6.5245,6.4863,6.4689,6.4689,6.4689,6.4921,6.5268,6.5268,6.5019,6.4775,6.5411,6.6035,6.6713,0.0,0.0,0.0,0.0,0.0,0.0,0.0,0.0,6.1699,6.1699,6.1699,6.1699,6.1699,6.158,6.1504,6.1504,6.1195,6.1001,0.0,0.0,0.0,0.0,0.0,0.0,0.0,6.0806,6.0806,6.0806,6.0806,6.0806,6.0806,6.0806,6.0806,6.0806,6.0806,6.0806,6.0806,6.0806,6.0806,6.0806,6.0806,0.0,6.0806,6.0806,6.0647,6.0417,6.0175,5.9652,5.8933,5.8227,5.7997,0.0,0.0,5.7997,5.7997,0.0,5.7997,5.7997,0.0,0.0,0.0,5.7997,0.0,0.0,0.0,5.7997,5.807,5.8297,5.8157,5.8081,5.8315,0.0,5.9123,0.0,0.0,0.0,0.0,0.0,0.0,0.0,0.0,0.0,6.5446,6.5287,6.5249,6.5487,6.5501,6.5616,6.5891,6.5904,6.5781,6.5508,6.5501,6.5388,6.5153,6.5145,6.5145,6.5145,6.5145,6.5145,6.5145,6.486,6.4739,6.475,6.449,6.4398,6.4398,6.4398,6.4615,6.4936,6.4795,6.4855,6.5058,6.5454,6.6286,6.7321,6.1699,0.0,0.0,0.0,0.0,0.0,0.0,0.0,6.1699,6.1699,6.1699,6.1699,6.1658,6.1555,6.1496,6.146,6.1175,0.0,0.0,0.0,0.0,0.0,0.0,6.0806,0.0,6.0806,6.0806,6.0806,6.0806,6.0806,6.0806,6.0806,6.0806,6.0806,6.0806,6.0806,6.0806,6.0806,0.0,6.0806,0.0,6.0806,6.0806,6.0806,6.0502,6.0089,5.9893,5.9294,5.8505,5.813,0.0,5.7997,5.7997,5.7997,0.0,0.0,0.0,0.0,0.0,0.0,0.0,0.0,0.0,5.7997,0.0,0.0,0.0,5.7997,5.7997,0.0,0.0,0.0,0.0,0.0,0.0,0.0,0.0,0.0,0.0,0.0,0.0,0.0,0.0,6.4617,6.4564,6.4935,6.4968,6.5149,6.5589,6.5603,6.5403,6.4976,6.4968,6.4774,6.4407,6.4398,6.4398,6.4398,6.4398,6.4398,6.4398,6.4294,6.4255,6.4245,6.4147,6.4098,6.4098,6.4267,6.4476,6.4662,6.4525,6.49,6.5559,6.5728,6.6664,6.7895,6.1699,6.1699,0.0,0.0,0.0,0.0,0.0,0.0,6.1699,6.1699,6.1699,6.1657,6.1542,0.0,0.0,0.0,0.0,0.0,6.1001,0.0,0.0,0.0,0.0,0.0,6.0806,0.0,6.0806,6.0806,6.0806,6.0806,6.0806,6.0806,6.0806,6.0806,6.0806,6.0806,6.0806,0.0,6.0806,0.0,6.0806,6.0806,0.0,6.0806,6.0502,5.9996,5.9167,5.8526,5.8081,0.0,5.7997,5.7997,0.0,5.7997,0.0,0.0,0.0,0.0,0.0,0.0,0.0,0.0,5.7997,0.0,0.0,0.0,5.7997,5.7997,0.0,0.0,0.0,0.0,0.0,0.0,0.0,0.0,0.0,0.0,0.0,0.0,0.0,0.0,0.0,6.4435,6.4426,6.4482,6.4491,6.4509,6.4564,6.4573,6.4546,6.4491,6.4491,6.4444,6.4398,6.4398,6.4398,6.4398,6.4398,6.4398,6.4389,6.3905,6.368,6.3659,6.3191,6.2978,6.3033,6.3818,6.415,6.4223,6.4602,6.4981,6.5427,6.6126,6.6809,6.7478,6.1699,6.1699,0.0,0.0,0.0,0.0,0.0,0.0,6.1699,6.1699,6.1699,6.1679,0.0,0.0,0.0,0.0,0.0,6.0962,0.0,0.0,0.0,0.0,0.0,0.0,0.0,0.0,0.0,6.0806,6.0806,6.0806,6.0806,6.0806,6.0806,6.0806,6.0806,0.0,6.0806,0.0,6.0806,0.0,0.0,0.0,0.0,6.0806,6.0338,5.9578,5.8632,5.8175,5.7997,0.0,5.7997,0.0,0.0,0.0,0.0,0.0,0.0,0.0,0.0,0.0,0.0,0.0,0.0,0.0,0.0,0.0,5.7997,0.0,0.0,0.0,0.0,0.0,0.0,0.0,5.8217,0.0,0.0,0.0,0.0,0.0,0.0,0.0,0.0,0.0,0.0,0.0,6.3936,6.4078,6.4389,6.4398,6.4265,6.3954,6.3936,6.3787,6.3468,6.3468,6.3468,6.3468,6.3468,6.3468,6.3457,6.3231,6.3151,6.3127,6.2898,6.3086,6.3576,6.3956,6.4653,6.5524,6.5717,6.5876,6.6035,6.6384,6.6948,6.7578,6.1699,0.0,0.0,0.0,0.0,0.0,6.1699,6.1699,6.1699,6.1699,6.1699,0.0,6.1656,6.1537,0.0,0.0,6.1055,6.0895,0.0,0.0,6.0806,0.0,0.0,0.0,0.0,0.0,0.0,6.0806,6.0806,6.0806,6.0806,6.0806,6.0806,6.0806,0.0,6.0806,6.0806,0.0,6.0806,6.0806,6.0806,6.0714,6.0584,6.0476,5.9996,5.9285,5.834,5.7997,5.7997,5.7997,5.7997,0.0,5.7997,0.0,0.0,0.0,0.0,0.0,5.7997,0.0,0.0,0.0,0.0,0.0,0.0,0.0,0.0,0.0,0.0,0.0,0.0,0.0,0.0,0.0,0.0,5.807,0.0,0.0,0.0,0.0,0.0,0.0,0.0,0.0,0.0,0.0,0.0,6.3546,6.3946,6.3966,6.3768,6.3385,6.3374,6.3191,6.2793,6.2793,6.2793,6.2793,6.2793,6.2793,6.2793,6.2793,6.2921,6.316,6.316,6.3649,6.4439,6.4659,6.5461,6.6512,6.6733,6.6824,6.6824,6.6824,6.7205,6.77,6.1699,6.1699,0.0,0.0,0.0,6.1699,6.1699,6.1699,6.1699,0.0,0.0,0.0,0.0,0.0,0.0,0.0,0.0,6.0793,6.0806,0.0,6.0806,0.0,0.0,6.0806,0.0,0.0,0.0,0.0,6.0806,6.0806,6.0806,6.0806,6.0806,6.0806,6.0806,6.0806,6.0806,6.0806,6.0806,6.0806,6.0806,6.054,6.0069,0.0,5.9443,5.9285,5.834,0.0,0.0,5.7997,5.7997,0.0,0.0,0.0,0.0,0.0,0.0,0.0,0.0,0.0,0.0,5.7997,0.0,0.0,0.0,0.0,5.7997,0.0,0.0,0.0,0.0,0.0,0.0,0.0,0.0,0.0,0.0,0.0,0.0,0.0,0.0,0.0,0.0,0.0,0.0,0.0,0.0,0.0,6.2855,6.2855,6.2842,6.283,6.283,6.2818,6.2793,6.2793,6.2793,6.2793,6.2793,6.2793,6.2793,6.2793,6.3264,6.4066,6.4066,6.4512,6.5307,6.6109,6.6439,6.6586,6.737,6.7664,6.7664,6.7664,6.7682,6.77,0.0,0.0,0.0,0.0,0.0,6.1699,6.1699,6.1699,0.0,0.0,0.0,0.0,0.0,6.125,6.1062,0.0,0.0,6.0806,6.0806,6.0806,0.0,0.0,0.0,6.0806,0.0,0.0,0.0,0.0,0.0,6.0806,6.0806,6.0806,6.0806,6.0806,0.0,6.0806,0.0,0.0,0.0,0.0,0.0,6.0514,6.0047,0.0,0.0,5.8855,5.8235,5.7997,0.0,5.7997,5.7997,5.7997,5.7997,5.7997,5.7997,5.7997,5.7997,0.0,0.0,0.0,5.7997,5.7997,0.0,0.0,0.0,0.0,0.0,0.0,0.0,0.0,0.0,0.0,0.0,0.0,0.0,0.0,0.0,0.0,0.0,0.0,0.0,0.0,0.0,0.0,0.0,0.0,6.2793,0.0,0.0,6.2793,6.2793,6.2793,6.2793,6.2793,6.2793,6.2793,6.2793,6.2793,6.2793,6.2793,6.2829,6.3392,6.3815,6.4139,6.4659,6.5356,6.6127,6.6384,6.6806,6.7315,6.759,6.77,6.77,6.77,6.77,6.77,6.1699,0.0,0.0,0.0,0.0,0.0,6.1699,0.0,0.0,0.0,6.155,0.0,6.1438,0.0,6.1001,0.0,6.0882,6.0941,6.1248,6.0979,0.0,6.1248,6.0979,0.0,0.0,0.0,0.0,0.0,0.0,6.0806,6.0806,6.0806,6.0806,6.0806,6.0806,6.0806,6.0806,6.0806,6.0806,0.0,0.0,6.0264,0.0,0.0,5.8952,5.8642,0.0,5.8108,5.8216,5.8058,5.8108,5.8224,5.8047,5.7997,5.7997,5.7997,5.7997,5.7997,5.7997,5.7997,0.0,5.7997,5.7997,0.0,5.7997,0.0,0.0,0.0,0.0,0.0,0.0,0.0,0.0,0.0,0.0,0.0,0.0,5.7997,0.0,0.0,0.0,0.0,0.0,0.0,0.0,6.2738,6.2793,0.0,0.0,0.0,6.2793,6.2793,6.2793,6.2793,6.2793,6.2793,6.2793,6.2793,6.2793,6.2958,6.3282,6.3833,6.4415,6.4984,6.5503,6.6182,6.6916,6.6916,6.7242,6.77,6.77,6.77,6.77,6.77,6.77,6.77,0.0,0.0,0.0,0.0,6.1699,0.0,0.0,0.0,6.1657,0.0,6.148,6.1442,6.137,6.1171,6.1061,6.1119,6.1006,0.0,6.2114,6.1383,0.0,0.0,6.1306,6.0845,6.0806,0.0,0.0,0.0,0.0,0.0,6.0806,6.0806,6.0806,6.0806,6.0806,0.0,6.0806,6.0806,6.0794,6.0734,6.0271,5.9797,5.9329,5.8902,5.875,5.8698,5.8231,5.84,5.8784,5.8286,5.8437,5.8733,5.8263,5.8107,5.8107,5.8107,5.8107,5.8107,5.8107,5.8107,5.8107,5.8107,0.0,0.0,0.0,0.0,5.7997,0.0,0.0,0.0,0.0,0.0,0.0,0.0,0.0,0.0,0.0,0.0,0.0,0.0,0.0,0.0,0.0,0.0,0.0,6.2738,6.2793,6.2793,0.0,0.0,6.2793,6.2793,6.2793,6.2793,6.2793,6.2793,6.2793,6.2793,6.2848,6.3301,6.4103,6.4176,6.5044,6.6494,6.6531,6.7003,6.77,6.77,6.77,6.77,6.77,6.77,6.77,6.77,6.77,6.77,6.1699,6.1699,6.1699,0.0,6.1699,6.1699,0.0,0.0,0.0,0.0,6.1402,6.1536,6.1989,6.1911,6.2056,6.2661,6.2688,0.0,0.0,0.0,0.0,6.2114,6.1883,6.146,6.0806,6.0806,0.0,6.0806,0.0,0.0,6.0806,6.0806,6.0806,6.0806,6.0806,6.0806,6.0806,6.0806,6.061,6.0264,6.0146,5.962,0.0,0.0,5.9617,5.9595,5.9089,5.9828,6.0952,6.0074,6.0119,6.0473,5.9958,5.9777,5.9777,5.9777,5.9777,5.9777,5.9777,5.9777,5.9777,5.9777,5.9325,5.8884,0.0,0.0,0.0,0.0,0.0,0.0,0.0,0.0,0.0,0.0,0.0,0.0,0.0,0.0,0.0,0.0,0.0,0.0,0.0,0.0,6.13,6.2683,6.2793,6.2793,0.0,0.0,0.0,6.2793,6.2793,6.2793,6.2793,6.2793,6.2793,6.2811,6.3466,6.3882,6.4139,6.5351,6.6109,6.6531,6.7131,6.7517,6.77,6.77,6.77,6.77,6.77,6.77,6.77,6.77,6.77,6.77,6.1699,0.0,0.0,6.1699,0.0,0.0,6.1699,0.0,0.0,6.1964,6.2193,0.0,6.2717,6.2669,6.282,6.3256,6.3295,0.0,0.0,0.0,0.0,6.3211,6.2826,6.223,6.1383,6.1364,0.0,6.0806,0.0,0.0,6.0806,6.0806,6.0806,6.0806,6.0806,6.0806,6.0794,6.0578,6.0229,5.9827,6.0214,0.0,0.0,6.0383,6.0904,6.1004,6.0715,6.1164,6.1751,6.0728,6.0736,6.1076,6.0554,6.0401,6.0401,6.0401,6.0401,6.0401,6.0401,6.0401,6.0401,6.0401,6.0059,5.971,5.971,5.9361,5.9043,0.0,0.0,0.0,0.0,0.0,0.0,0.0,0.0,0.0,0.0,0.0,0.0,0.0,0.0,0.0,0.0,0.0,6.1447,6.2701,6.2793,0.0,0.0,0.0,0.0,6.2793,6.2793,6.2793,6.2793,6.2793,6.2793,6.2811,6.3686,6.4273,6.4659,6.5925,6.6678,6.7058,6.7499,6.77,6.77,6.77,6.77,6.77,6.77,6.77,6.77,6.77,6.77,6.77,0.0,0.0,0.0,0.0,0.0,0.0,0.0,6.2499,0.0,6.2544,0.0,6.3701,6.3495,6.3468,6.3525,6.3622,0.0,6.3948,6.4724,6.4064,6.3929,6.457,6.3872,6.3089,6.2268,6.2268,0.0,0.0,0.0,0.0,6.0806,6.0806,6.0806,6.0806,6.0806,0.0,0.0,6.0453,6.0064,5.9652,6.058,6.0623,6.029,6.1582,6.2239,6.251,6.2537,6.2428,6.2062,6.1061,6.1038,6.1342,6.0867,6.0701,6.0701,6.0701,6.0701,6.0701,6.0701,6.0701,6.0701,6.0701,6.0639,6.0566,6.0566,6.0493,6.0401,6.0401,6.0401,6.0401,0.0,0.0,0.0,0.0,0.0,0.0,0.0,0.0,0.0,0.0,0.0,0.0,0.0,0.0,0.0,6.2738,6.2793,0.0,0.0,0.0,0.0,6.2793,6.2793,6.2793,6.2793,0.0,6.2866,6.2976,6.3833,6.4677,6.5472,6.6292,6.7026,6.77,6.77,6.77,6.77,6.77,6.77,6.77,6.77,6.77,6.77,6.77,6.77,6.77,0.0,0.0,0.0,0.0,0.0,6.2732,6.2619,6.2747,6.2753,6.2527,6.3169,6.3821,6.4318,6.4378,6.4666,6.5378,6.5436,0.0,0.0,0.0,0.0,6.4628,6.4455,6.3968,6.3102,6.3083,6.2685,0.0,0.0,0.0,6.0806,6.0806,6.0806,6.0806,0.0,0.0,6.0281,6.1326,0.0,6.0591,6.1785,6.1974,6.1647,6.2559,6.2927,6.3012,6.3299,6.3636,6.3812,6.2731,6.2719,6.3063,6.256,6.2371,6.2371,6.2371,6.2371,6.2371,6.2371,6.2371,6.2371,6.2371,6.1887,6.1392,6.1392,6.0878,6.0401,6.0401,6.0401,6.0401,6.0401,0.0,0.0,0.0,0.0,0.0,0.0,0.0,0.0,0.0,0.0,0.0,0.0,0.0,0.0,0.0,0.0,0.0,0.0,0.0,0.0,0.0,6.2793,0.0,0.0,0.0,6.316,6.3882,6.4695,6.5521,6.6329,6.7118,6.7572,6.77,6.77,6.77,6.77,6.77,6.77,6.77,6.77,6.77,6.77,6.77,6.77,6.77,0.0,0.0,0.0,0.0,0.0,0.0,0.0,6.368,0.0,6.3709,6.4489,6.5109,6.5261,6.5263,6.5436,6.5865,6.5904,6.5904,6.5904,6.5904,6.5705,6.5282,6.5263,0.0,6.3987,6.3968,6.357,6.2724,0.0,0.0,0.0,6.1672,6.146,6.146,0.0,6.1448,0.0,0.0,0.0,6.144,6.2755,6.2829,6.2313,6.3635,6.3644,6.3002,6.3441,6.359,6.3491,6.2965,6.2965,6.3151,6.2874,6.2793,6.2793,6.2793,6.2793,6.2793,6.2793,6.2793,6.2793,6.2793,6.2499,6.2218,6.2218,6.1912,6.1637,6.1637,6.1637,6.152,6.1098,6.1025,0.0,0.0,0.0,0.0,0.0,0.0,0.0,0.0,0.0,0.0,0.0,0.0,0.0,0.0,0.0,0.0,0.0,0.0,0.0,0.0,0.0,0.0,0.0,0.0,0.0,6.4103,6.4916,6.5723,6.6531,6.7333,6.77,6.77,6.77,6.77,6.77,6.77,6.77,6.77,6.77,6.77,6.77,6.77,6.77,6.77,0.0,6.2676,0.0,0.0,6.3866,0.0,6.4322,6.4769,6.5066,6.4836,6.5659,6.6193,6.594,6.5904,6.5904,6.5904,6.5904,6.5904,6.5904,6.5904,6.5904,6.5904,6.5904,6.557,6.4897,6.4878,6.4455,0.0,0.0,0.0,0.0,0.0,0.0,0.0,0.0,0.0,0.0,0.0,6.2534,6.2127,6.3464,6.3526,6.2975,6.4423,6.413,6.3026,6.3453,6.3262,6.2793,6.2793,6.2793,6.2793,6.2793,6.2793,6.2793,6.2793,6.2793,6.2793,6.2793,6.2793,6.2793,6.2793,6.2793,6.2793,6.2793,6.2793,6.2793,6.2793,6.2793,6.2609,6.1961,6.1851,0.0,0.0,0.0,0.0,0.0,0.0,0.0,0.0,0.0,0.0,0.0,0.0,0.0,0.0,0.0,0.0,0.0,0.0,0.0,0.0,0.0,6.2793,6.2793,0.0,6.3521,0.0,6.5173,6.598,6.6769,6.7407,6.77,6.77,6.77,6.77,6.77,6.77,6.77,6.77,6.77,6.77,6.77,6.77,6.77,6.77,0.0,0.0,0.0,0.0,0.0,0.0,0.0,6.5719,6.589,6.4937,6.5479,6.5927,6.591,6.5904,6.5904,6.5904,6.5904,6.5904,6.5904,6.5904,6.5904,6.5904,6.5904,6.5865,6.5788,6.5788,6.5359,0.0,0.0,0.0,0.0,0.0,0.0,0.0,0.0,0.0,0.0,6.3199,6.3163,6.2475,6.3804,6.4304,6.4228,6.4398,6.4059,6.3524,6.3579,6.3262,6.2793,6.2793,6.2793,6.2793,6.2793,6.2793,6.2793,6.2793,6.2793,6.2793,6.2793,6.2793,6.2793,6.2793,6.2793,6.2793,6.2793,6.2793,6.2793,6.2793,6.2793,6.2774,6.2701,6.2683,6.2664,0.0,0.0,0.0,0.0,0.0,0.0,0.0,0.0,0.0,0.0,0.0,0.0,0.0,0.0,0.0,0.0,0.0,0.0,6.2793,0.0,6.2793,6.2793,6.3576,6.4383,6.5196,6.5999,6.6806,6.759,6.7664,6.77,6.77,6.77,6.77,6.77,6.77,6.77,6.77,6.77,6.77,6.77,6.77,6.77,6.77,0.0,0.0,0.0,0.0,0.0,0.0,0.0,6.5934,6.5951,6.5517,6.5793,6.5997,6.5903,6.5904,6.5904,6.5904,6.5904,6.5904,6.5904,6.5904,6.5904,6.5904,6.5904,6.5904,6.5904,6.5904,6.5731,0.0,0.0,0.0,0.0,0.0,0.0,0.0,0.0,6.3684,6.3831,6.406,6.3934,6.3648,6.4172,6.4216,6.3915,6.3915,6.359,6.3127,6.3127,6.2978,6.2793,6.2793,6.2793,6.2793,6.2793,6.2793,6.2793,6.2793,6.2793,6.2793,6.2793,6.2793,6.2793,6.2793,6.2793,6.2793,6.2793,6.2793,6.2793,6.2793,6.2793,6.2793,6.2793,6.2793,6.2793,0.0,0.0,0.0,0.0,0.0,0.0,0.0,0.0,0.0,0.0,0.0,0.0,0.0,0.0,0.0,0.0,0.0,0.0,6.2793,0.0,6.305,6.3576,6.3925,6.4751,6.6017,6.6347,6.6916,6.77,6.77,6.77,6.77,6.77,6.77,6.77,6.77,6.77,6.77,6.77,6.77,6.77,6.77,6.77,6.77,6.3769,0.0,6.5847,0.0,6.6023,6.626,6.6118,6.5991,6.5904,6.5904,6.598,6.6011,6.591,6.5904,6.5904,6.5904,6.5904,6.5904,6.5904,6.5904,6.5904,6.5904,6.5904,0.0,6.5904,6.5904,6.5904,6.5904,6.5904,0.0,0.0,0.0,0.0,0.0,6.4414,6.4456,6.4869,6.437,6.4078,6.3936,6.3936,6.3702,6.3351,6.3351,6.3139,6.2793,6.2793,6.2793,6.2793,6.2793,6.2793,6.2793,6.2793,6.2793,6.2793,6.2793,6.2793,6.2793,6.2793,6.2793,6.2793,6.2793,6.2793,6.2793,6.2793,6.2793,6.2793,6.2793,6.2793,6.2793,6.2793,6.2793,6.2793,6.2793,0.0,0.0,0.0,0.0,0.0,0.0,0.0,6.2793,6.2793,0.0,0.0,0.0,0.0,0.0,0.0,0.0,0.0,0.0,0.0,0.0,0.0,6.458,6.5375,6.6494,6.6733,6.7136,6.77,6.77,6.77,6.77,6.77,6.77,6.77,6.77,6.77,6.77,6.77,6.77,6.77,6.77,6.77,6.77,6.5566,6.6114,6.6598,6.6577,6.6322,6.6094,6.609,6.5991,6.5904,6.5904,6.5904,6.5904,6.5904,6.5904,6.5904,6.5904,6.5904,6.5904,6.5904,6.5904,6.5904,0.0,0.0,6.5904,6.5904,6.5904,6.5904,6.5904,0.0,0.0,6.4628,0.0,6.5051,6.5865,6.5328,6.4833,6.4379,6.384,6.3301,6.2818,6.2818,6.2823,6.2805,6.2805,6.2823,6.2793,6.2793,6.2793,6.2793,6.2793,6.2793,6.2793,6.2793,6.2793,6.2793,6.2793,6.2793,6.2793,6.2793,6.2793,6.2793,6.2793,6.2793,6.2793,6.2793,6.2793,6.2793,6.2793,6.2793,6.2793,6.2793,6.2793,6.2793,6.2793,0.0,0.0,0.0,0.0,0.0,0.0,6.2793,6.2793,6.2793,0.0,0.0,0.0,0.0,0.0,0.0,0.0,0.0,6.2793,6.3631,0.0,6.4103,6.5668,6.6476,6.6512,6.7315,6.77,6.77,6.77,6.77,6.77,6.77,6.77,6.77,6.77,6.77,6.77,6.77,6.77,6.77,6.77,6.77,6.77,6.5427,6.6047,6.6535,6.6295,6.6174,6.607,6.5969,6.5927,6.5904,6.5904,6.5904,6.5904,6.5904,6.5904,6.5904,0.0,6.5904,6.5904,0.0,6.5904,6.5904,6.5904,6.5904,6.5904,6.5904,6.5904,6.5904,6.5904,0.0,0.0,0.0,6.5113,6.5087,6.5325,6.4453,6.3988,6.3829,6.3278,6.2972,6.2793,6.2793,6.2793,6.2793,6.2793,6.2793,6.2793,6.2793,6.2793,6.2793,6.2793,6.2793,6.2793,6.2793,6.2793,6.2793,6.2793,6.2793,6.2793,6.2793,6.2793,6.2793,6.2793,6.2793,6.2793,6.2793,6.2793,6.2793,6.2793,6.2793,6.2793,6.2793,6.2793,6.2793,6.2793,6.2793,0.0,0.0,0.0,0.0,0.0,6.2793,6.2793,0.0,6.2793,0.0,0.0,0.0,0.0,0.0,0.0,0.0,0.0,6.3649,0.0,6.4916,6.5962,6.6769,6.7315,6.759,6.77,6.77,6.77,6.77,6.77,6.77,6.77,6.77,6.77,6.77,6.77,6.77,6.77,6.77,6.77,6.77,6.77,6.5806,6.6124,6.6345,6.6145,6.6064,6.5994,6.5916,6.5904,6.5904,6.5904,6.5904,6.5904,6.5904,6.5904,0.0,6.5904,6.5904,6.5904,6.5904,6.5904,6.5904,6.5904,6.5904,6.5904,6.5904,0.0,0.0,6.5904,6.5904,6.5795,6.5583,6.5268,6.5,6.4791,6.3958,6.3601,6.3557,6.3038,6.2793,6.2793,6.2793,6.2793,6.2793,6.2793,6.2793,6.2793,6.2793,6.2793,6.2793,6.2793,6.2793,6.2793,6.2793,6.2793,6.2793,6.2793,6.2793,6.2793,6.2793,6.2793,6.2793,6.2793,6.2793,6.2793,6.2793,6.2793,6.2793,6.2793,6.2793,6.2793,6.2793,6.2793,6.2793,6.2793,6.2793,6.2793,0.0,0.0,0.0,0.0,0.0,0.0,0.0,6.2793,0.0,0.0,0.0,0.0,0.0,0.0,0.0,6.3282,6.4108,0.0,6.5729,6.6549,6.7205,6.77,6.77,6.77,6.77,6.77,6.77,6.77,6.77,6.77,6.77,6.77,6.77,6.77,6.77,6.77,6.77,6.77,6.77,6.77,6.6562,6.6312,0.0,0.0,6.598,0.0,6.5904,6.5904,6.5904,6.5904,6.5904,6.5904,6.5904,6.5904,6.5904,6.5904,0.0,0.0,0.0,6.5904,6.5904,6.5904,6.5904,6.5904,6.5904,6.5904,6.5904,6.5904,6.5859,6.5583,6.5107,6.5024,6.4757,6.4322,6.3787,6.3535,6.3502,6.3014,6.2793,6.2793,6.2793,6.2793,6.2793,6.2793,6.2793,6.2793,6.2793,6.2793,6.2793,6.2793,6.2793,6.2793,6.2793,6.2793,6.2793,6.2793,6.2793,6.2793,6.2793,6.2793,6.2793,6.2793,6.2793,6.2793,6.2793,6.2793,6.2793,6.2793,6.2793,6.2793,6.2793,6.2793,6.2793,6.2793,6.2793,6.2793,6.2793,0.0,0.0,0.0,0.0,0.0,0.0,6.2793,6.2793,0.0,0.0,0.0,0.0,0.0,6.3343,6.4158,6.4971,6.5729,6.6494,6.7297,6.77,6.77,6.77,6.77,6.77,6.77,6.77,6.77,6.77,6.77,6.77,6.77,6.77,6.77,6.77,6.77,6.77,6.77,6.77,6.77,0.0,0.0,6.6065,6.5965,6.5915,6.5904,6.5904,6.5904,6.5904,6.5904,6.5904,6.5904,6.5904,6.5904,6.5904,6.5904,6.5904,6.5904,6.5904,6.5904,6.5904,6.5904,6.5904,6.5904,6.5904,6.5904,6.5904,6.5904,6.5494,6.5219,6.5072,6.4313,6.3894,6.3766,6.3238,6.299,6.2978,6.2855,6.2793,6.2793,6.2793,6.2793,6.2793,6.2793,6.2793,6.2793,6.2793,6.2793,6.2793,6.2793,6.2793,6.2793,6.2793,6.2793,6.2793,6.2793,6.2793,6.2793,6.2793,6.2793,6.2793,6.2793,6.2793,6.2793,6.2793,6.2793,6.2793,6.2793,6.2793,6.2793,6.2793,6.2793,6.2793,6.2793,6.2793,6.2793,6.2793,6.2793,0.0,0.0,6.2793,6.2793,6.2793,6.2793,6.2793,0.0,0.0,0.0,0.0,6.4494,6.4793,6.5007,6.5797,6.6311,6.6494,6.7297,6.77,6.77,6.77,6.77,6.77,6.77,6.77,6.77,6.77,6.77,6.77,6.77,6.77,6.77,6.77,6.77,6.77,6.77,6.77,6.77,6.6145,6.6049,6.5986,6.591,6.5904,6.5904,6.5904,6.5904,6.5904,6.5904,6.5904,6.5904,6.5904,6.5904,6.5904,6.5904,6.5904,6.5904,6.5904,6.5904,6.5904,6.5904,6.5904,6.5904,6.5904,6.5904,6.5904,6.5904,6.5362,6.4984,6.4757,6.3958,6.3476,6.3227,6.2935,6.2793,6.2793,6.2793,6.2793,6.2793,6.2793,6.2793,6.2793,6.2793,6.2793,6.2793,6.2793,6.2793,6.2793,6.2793,6.2793,6.2793,6.2793,6.2793,6.2793,6.2793,6.2793,6.2793,6.2793,6.2793,6.2793,6.2793,6.2793,6.2793,6.2793,6.2793,6.2793,6.2793,6.2793,6.2793,6.2793,6.2793,6.2793,6.2793,6.2793,6.2793,6.2793,6.2793,0.0,6.2793,6.2793,6.2958,6.3356,6.3392,6.3545,6.3912,0.0,0.0,6.5186,6.5613,6.5852,6.5852,6.6274,6.6678,6.7026,6.748,6.77,6.77,6.77,6.77,6.77,6.77,6.77,6.77,6.77,6.77,6.77,6.77,6.77,6.77,6.77,6.77,6.77,6.77,6.77,6.77,6.608,6.5969,6.5904,6.5904,6.5904,6.5904,6.5904,6.5904,6.5904,6.5904,6.5904,6.5904,6.5904,6.5904,6.5904,6.5904,6.5904,6.5904,6.5904,6.5904,6.5904,6.5904,6.5904,6.5904,6.5904,6.5904,6.5859,6.5788,6.5253,6.4739,6.4274,6.3723,6.325,6.2793,6.2793,6.2793,6.2793,6.2793,6.2793,6.2793,6.2793,6.2793,6.2793,6.2793,6.2793,6.2793,6.2793,6.2793,6.2793,6.2793,6.2793,6.2793,6.2793,6.2793,6.2793,6.2793,6.2793,6.2793,6.2793,6.2793,6.2793,6.2793,6.2793,6.2793,6.2793,6.2793,6.2793,6.2793,6.2793,6.2793,6.2793,6.2793,6.2793,6.2793,6.2793,6.2793,6.2793,0.0,6.2994,6.2994,6.3105,6.3472,6.4213,6.4273,6.4549,6.5251,6.5398,6.5778,0.0,6.6623,6.6678,6.6678,6.6678,6.7008,6.77,6.77,6.77,6.77,6.77,6.77,6.77,6.77,6.77,6.77,6.77,6.77,6.77,6.77,6.77,6.77,6.77,6.77,6.77,6.77,6.77,6.77,6.5955,6.5916,6.5904,6.5904,6.5904,6.5904,6.5904,6.5904,6.5904,6.5904,6.5904,6.5904,6.5904,6.5904,6.5904,6.5904,6.5904,6.5904,6.5904,6.5904,6.5904,6.5904,6.5904,6.5904,6.5904,6.5904,6.5676,6.5219,6.475,6.4226,6.3702,6.318,6.2874,6.2793,6.2793,6.2793,6.2793,6.2793,6.2793,6.2793,6.2793,6.2793,6.2793,6.2793,6.2793,6.2793,6.2793,6.2793,6.2793,6.2793,6.2793,6.2793,6.2793,6.2793,6.2793,6.2793,6.2793,6.2793,6.2793,6.2793,6.2793,6.2793,6.2793,6.2793,6.2793,6.2793,6.2793,6.2793,6.2793,6.2793,6.2793,6.2793,6.2793,6.2793,6.2793,6.2793,6.2793,0.0,6.3888,6.3888,6.4512,6.4976,6.5086,6.5105,6.5173,6.5288,6.5925,6.6366,6.6494,6.715,6.7517,6.7517,6.7517,6.7572,6.77,6.77,6.77,6.77,6.77,6.77,6.77,6.77,6.77,6.77,6.77,6.77,6.77,6.77,6.77,6.77,6.77,6.77,6.77,6.77,6.77,6.77,6.591,6.5904,6.5904,6.5904,6.5904,6.5904,6.5904,6.5904,6.5904,6.5904,6.5904,6.5904,6.5904,6.5904,6.5904,6.5904,6.5904,6.5904,6.5904,6.5904,6.5904,6.5904,6.5904,6.5904,6.5904,6.5904,6.5788,6.5522,6.4767,6.4274,6.4017,6.3191,6.2793,6.2793,6.2793,6.2793,6.2793,6.2793,6.2793,6.2793,6.2793,6.2793,6.2793,6.2793,6.2793,6.2793,6.2793,6.2793,6.2793,6.2793,6.2793,6.2793,6.2793,6.2793,6.2793,6.2793,6.2793,6.2793,6.2793,6.2793,6.2793,6.2793,6.2793,6.2793,6.2793,6.2793,6.2793,6.2793,6.2793,6.2793,6.2793,6.2793,6.2958,6.3429,6.3503,0.0,0.0,6.4494,6.4751,6.4751,6.5068,6.5472,6.5907,6.5962,6.6127,6.6549,6.6935,6.7136,6.7136,6.7499,6.77,6.77,6.77,6.77,6.77,6.77,6.77,6.77,6.77,6.77,6.77,6.77,6.77,6.77,6.77,6.77,6.77,6.77,6.77,6.77,6.77,6.77,6.77,6.77,6.77,6.77,6.5904,6.5904,6.5904,6.5904,6.5904,6.5904,6.5904,6.5904,6.5904,6.5904,6.5904,6.5904,6.5904,6.5904,6.5904,6.5904,6.5904,6.5904,6.5904,6.5904,6.5904,6.5904,6.5904,6.5904,6.5904,6.5904,6.5781,6.5561,6.4786,6.4265,6.4017,6.3191,6.2793,6.2793,6.2793,6.2793,6.2793,6.2793,6.2793,6.2793,6.2793,6.2793,6.2793,6.2793,6.2793,6.2793,6.2793,6.2793,6.2793,6.2793,6.2793,6.2793,6.2793,6.2793,6.2793,6.2793,6.2793,6.2793,6.2793,6.2793,6.2793,6.2793,6.2793,6.2793,6.2793,6.2793,6.2793,6.2793,6.2793,6.2866,6.305,6.3086,6.338,6.4237,0.0,0.0,0.0,6.5453,6.5582,6.5582,6.5729,6.6109,6.6714,6.6769,6.7026,6.7645,6.77,6.77,6.77,6.77,6.77,6.77,6.77,6.77,6.77,6.77,6.77,6.77,6.77,6.77,6.77,6.77,6.77,6.77,6.77,6.77,6.77,6.77,6.77,6.77,6.77,6.77,6.77,6.77,6.77,6.77,6.5904,6.5904,6.5904,6.5904,6.5904,6.5904,6.5904,6.5904,6.5904,6.5904,6.5904,6.5904,6.5904,6.5904,6.5904,6.5904,6.5904,6.5904,6.5904,6.5904,6.5904,6.5904,6.5904,6.5904,6.5904,6.5904,6.5437,6.4509,6.4435,6.3894,6.2923,6.2842,6.2793,6.2793,6.2793,6.2793,6.2793,6.2793,6.2793,6.2793,6.2793,6.2793,6.2793,6.2793,6.2793,6.2793,6.2793,6.2793,6.2793,6.2793,6.2793,6.2793,6.2793,6.2793,6.2793,6.2793,6.2793,6.2793,6.2793,6.2793,6.2793,6.2793,6.2793,6.2793,6.2793,6.2793,6.2793,6.2793,6.2793,6.305,6.3864,6.4011,6.4273,6.5068,0.0,0.0,6.5288,6.5944,6.6402,6.6402,6.7076,6.7554,6.7609,6.7609,6.7645,6.77,6.77,6.77,6.77,6.77,6.77,6.77,6.77,6.77,6.77,6.77,6.77,6.77,6.77,6.77,6.77,6.77,6.77,6.77,6.77,6.77,6.77,6.77,6.77,6.77,6.77,6.77,6.77,6.77,6.77,6.77,6.5904,6.5904,6.5904,6.5904,6.5904,6.5904,6.5904,6.5904,6.5904,6.5904,6.5904,6.5904,6.5904,6.5904,6.5904,6.5904,6.5904,6.5904,6.5904,6.5904,6.5904,6.5904,6.5904,6.5904,6.5904,6.5569,6.5223,6.4825,6.4207,6.3691,6.3289,6.2959,6.2793,6.2793,6.2793,6.2793,6.2793,6.2793,6.2793,6.2793,6.2793,6.2793,6.2793,6.2793,6.2793,6.2793,6.2793,6.2793,6.2793,6.2793,6.2793,6.2793,6.2793,6.2793,6.2793,6.2793,6.2793,6.2793,6.2793,6.2793,6.2793,6.2793,6.2793,6.2793,6.2793,6.2793,6.2958,6.3484,6.3613,6.3851,6.4695,6.4842,6.5118,6.5907,0.0,6.6219,6.6714,6.7058,6.7242,6.7242,6.7517,6.77,6.77,6.77,6.77,6.77,6.77,6.77,6.77,6.77,6.77,6.77,6.77,6.77,6.77,6.77,6.77,6.77,6.77,6.77,6.77,6.77,6.77,6.77,6.77,6.77,6.77,6.77,6.77,6.77,6.77,6.77,6.77,6.77,6.77,6.7774,6.5904,6.5904,6.5904,6.5904,6.5904,6.5904,6.5904,6.5904,6.5904,6.5904,6.5904,6.5904,6.5904,6.5904,6.5904,6.5904,6.5904,6.5904,6.5904,6.5904,6.5904,6.5904,6.5904,6.5814,6.5644,6.5291,6.4952,6.4624,6.3946,6.3502,6.3347,6.2965,6.2793,6.2793,6.2793,6.2793,6.2793,6.2793,6.2793,6.2793,6.2793,6.2793,6.2793,6.2793,6.2793,6.2793,6.2793,6.2793,6.2793,6.2793,6.2793,6.2793,6.2793,6.2793,6.2793,6.2793,6.2793,6.2793,6.2793,6.2793,6.2793,6.2793,6.2793,6.2866,6.3141,6.3196,6.3447,6.4292,6.4475,6.4714,6.554,6.5674,6.5944,6.6751,6.688,6.7076,6.7627,6.77,6.77,6.77,6.77,6.77,6.77,6.77,6.77,6.77,6.77,6.77,6.77,6.77,6.77,6.77,6.77,6.77,6.77,6.77,6.77,6.77,6.77,6.77,6.77,6.77,6.77,6.77,6.77,6.77,6.77,6.77,6.77,6.77,6.77,6.77,6.77,6.77,6.77,6.7829,6.5904,6.5904,6.5904,6.5904,6.5904,6.5904,6.5904,6.5904,6.5904,6.5904,6.5904,6.5904,6.5904,6.5904,6.5904,6.5904,6.5904,6.5904,6.5904,6.5904,6.5897,6.5897,6.5897,6.5637,6.5115,6.5099,6.4598,6.3601,6.3601,6.3324,6.2793,6.2793,6.2793,6.2793,6.2793,6.2793,6.2793,6.2793,6.2793,6.2793,6.2793,6.2793,6.2793,6.2793,6.2793,6.2793,6.2793,6.2793,6.2793,6.2793,6.2793,6.2793,6.2793,6.2793,6.2793,6.2793,6.2793,6.2793,6.2793,6.2793,6.2811,6.2793,6.2811,6.3031,6.3888,6.4103,6.4328,6.5141,6.5307,6.5563,6.6366,6.6512,6.6769,6.7572,6.77,6.77,6.77,6.77,6.77,6.77,6.77,6.77,6.77,6.77,6.77,6.77,6.77,6.77,6.77,6.77,6.77,6.77,6.77,6.77,6.77,6.77,6.77,6.77,6.77,6.77,6.77,6.77,6.77,6.77,6.77,6.77,6.77,6.77,6.77,6.77,6.77,6.77,6.77,6.77,6.77,6.7829,6.5904,6.5904,6.5904,6.5904,6.5904,6.5904,6.5904,6.5904,6.5904,6.5904,6.5904,6.5904,6.5904,6.5904,6.5904,6.5904,6.5904,6.5904,6.5904,6.5904,6.5736,6.5354,6.5347,6.5268,6.5107,6.4407,6.3905,6.3601,6.3227,6.2972,6.2793,6.2793,6.2793,6.2793,6.2793,6.2793,6.2793,6.2793,6.2793,6.2793,6.2793,6.2793,6.2793,6.2793,6.2793,6.2793,6.2793,6.2793,6.2793,6.2793,6.2793,6.2793,6.2793,6.2793,6.2793,6.2793,6.2793,6.2793,6.2793,6.3264,6.3576,6.2958,6.3264,6.3778,6.4047,6.453,6.5173,6.598,6.6145,6.6384,6.7187,6.7352,6.7425,6.7664,6.77,6.77,6.77,6.77,6.77,6.77,6.77,6.77,6.77,6.77,6.77,6.77,6.77,6.77,6.77,6.77,6.77,6.77,6.77,6.77,6.77,6.77,6.77,6.77,6.77,6.77,6.77,6.77,6.77,6.77,6.77,6.77,6.77,6.77,6.77,6.77,6.77,6.77,6.77,6.77,6.8068,6.866,6.5904,6.5904,6.5904,6.5904,6.5904,6.5904,6.5904,6.5904,6.5904,6.5904,6.5904,6.5904,6.5904,6.5904,6.5904,6.5904,6.5904,6.5904,6.5904,6.5697,6.5439,6.5115,6.4731,6.4508,6.4508,6.3915,6.3509,6.3278,6.2953,6.2793,6.2793,6.2793,6.2793,6.2793,6.2793,6.2793,6.2793,6.2793,6.2793,6.2793,6.2793,6.2793,6.2793,6.2793,6.2793,6.2793,6.2793,6.2793,6.2793,6.2793,6.2793,6.2793,6.2793,6.2793,6.2793,6.2793,6.3031,6.3319,6.3319,6.3925,6.4457,6.3912,6.4169,6.4659,6.4984,6.543,6.5999,6.6806,6.6971,6.7118,6.7609,6.77,6.77,6.77,6.77,6.77,6.77,6.77,6.77,6.77,6.77,6.77,6.77,6.77,6.77,6.77,6.77,6.77,6.77,6.77,6.77,6.77,6.77,6.77,6.77,6.77,6.77,6.77,6.77,6.77,6.77,6.77,6.77,6.77,6.77,6.77,6.77,6.77,6.77,6.77,6.77,6.77,6.7737,6.8068,6.8476,6.905,6.5904,6.5904,6.5904,6.5904,6.5904,6.5904,6.5904,6.5904,6.5904,6.5904,6.5904,6.5904,6.5904,6.5904,6.5904,6.5904,6.5853,6.5801,6.5775,6.5317,6.5016,6.4976,6.4099,6.3579,6.3543,6.3543,6.3289,6.2793,6.2793,6.2793,6.2793,6.2793,6.2793,6.2793,6.2793,6.2793,6.2793,6.2793,6.2793,6.2793,6.2793,6.2793,6.2793,6.2793,6.2793,6.2793,6.2793,6.2793,6.2793,6.2793,6.2793,6.2793,6.2793,6.2848,6.2921,6.2921,6.3539,6.4213,6.4213,6.4787,6.5398,6.5398,6.5453,6.5692,6.6347,6.6549,6.6824,6.7554,6.77,6.77,6.77,6.77,6.77,6.77,6.77,6.77,6.77,6.77,6.77,6.77,6.77,6.77,6.77,6.77,6.77,6.77,6.77,6.77,6.77,6.77,6.77,6.77,6.77,6.77,6.77,6.77,6.77,6.77,6.77,6.77,6.77,6.77,6.77,6.77,6.77,6.77,6.77,6.77,6.77,6.77,6.77,6.77,6.7792,6.8605,6.894,6.9247,6.5904,6.5904,6.5904,6.5904,6.5904,6.5904,6.5904,6.5904,6.5904,6.5904,6.5904,6.5904,6.5904,6.5904,6.5904,6.5904,6.5508,6.5118,6.476,6.4618,6.436,6.3937,6.3713,6.3397,6.2978,6.2965,6.2923,6.2793,6.2793,6.2793,6.2793,6.2793,6.2793,6.2793,6.2793,6.2793,6.2793,6.2793,6.2793,6.2793,6.2793,6.2793,6.2793,6.2793,6.2793,6.2793,6.2793,6.2793,6.2793,6.2793,6.2793,6.2793,6.2793,6.3282,6.3815,6.3815,6.4402,6.5044,6.5044,6.5632,6.6237,6.6237,6.6714,6.7063,6.6604,6.7003,6.7499,6.7664,6.77,6.77,6.77,6.77,6.77,6.77,6.77,6.77,6.77,6.77,6.77,6.77,6.77,6.77,6.77,6.77,6.77,6.77,6.77,6.77,6.77,6.77,6.77,6.77,6.77,6.77,6.77,6.77,6.77,6.77,6.77,6.77,6.77,6.77,6.77,6.77,6.77,6.77,6.77,6.77,6.77,6.77,6.77,6.77,6.7792,6.8605,6.9302,7.0073,6.5904,6.5904,6.5904,6.5904,6.5904,6.5904,6.5904,6.5904,6.5904,6.5904,6.5904,6.5904,6.5904,6.5676,6.5437,6.5192,6.4929,6.4652,6.4417,6.4167,6.3884,6.3612,6.334,6.308,6.2823,6.2793,6.2793,6.2793,6.2793,6.2793,6.2793,6.2793,6.2793,6.2793,6.2793,6.2793,6.2793,6.2793,6.2793,6.2793,6.2793,6.2793,6.2793,6.2793,6.2793,6.2793,6.2793,6.2793,6.2793,6.2793,6.3086,6.3429,6.3429,6.3998,6.4677,6.4677,6.5246,6.587,6.587,6.6457,6.7076,6.7076,6.7388,6.759,6.7168,6.7407,6.77,6.77,6.77,6.77,6.77,6.77,6.77,6.77,6.77,6.77,6.77,6.77,6.77,6.77,6.77,6.77,6.77,6.77,6.77,6.77,6.77,6.77,6.77,6.77,6.77,6.77,6.77,6.77,6.77,6.77,6.77,6.77,6.77,6.77,6.77,6.77,6.77,6.77,6.77,6.77,6.77,6.77,6.77,6.77,6.77,6.7939,6.8366,6.9174,7.022,7.1376,6.5904,6.5904,6.5904,6.5904,6.5904,6.5904,6.5904,6.5904,6.5904,6.5904,6.5904,6.5878,6.5762,6.5283,6.4801,6.4313,6.4265,6.4207,6.4119,6.3713,6.3464,6.3464,6.305,6.2793,6.2793,6.2793,6.2793,6.2793,6.2793,6.2793,6.2793,6.2793,6.2793,6.2793,6.2793,6.2793,6.2793,6.2793,6.2793,6.2793,6.2793,6.2793,6.2793,6.2793,6.2793,6.2793,6.2793,6.2793,6.2829,6.2976,6.3503,6.4121,6.4255,6.4861,6.5508,6.5508,6.6072,6.6714,6.6714,6.7187,6.77,6.77,6.77,6.77,6.77,6.77,6.77,6.77,6.77,6.77,6.77,6.77,6.77,6.77,6.77,6.77,6.77,6.77,6.77,6.77,6.77,6.77,6.77,6.77,6.77,6.77,6.77,6.77,6.77,6.77,6.77,6.77,6.77,6.77,6.77,6.77,6.77,6.77,6.77,6.77,6.77,6.77,6.77,6.77,6.77,6.77,6.77,6.77,6.7774,6.7921,6.7921,6.8403,6.921,7.0018,7.1248,7.2496,6.5904,6.5904,6.5904,6.5904,6.5904,6.5904,6.5904,6.5904,6.5904,6.5904,6.5904,6.5729,6.5268,6.4784,6.4275,6.3755,6.3702,6.3502,6.3044,6.2959,6.291,6.291,6.2842,6.2793,6.2793,6.2793,6.2793,6.2793,6.2793,6.2793,6.2793,6.2793,6.2793,6.2793,6.2793,6.2793,6.2793,6.2793,6.2793,6.2793,6.2793,6.2793,6.2793,6.2793,6.2793,6.2793,6.2793,6.2793,6.2921,6.3668,6.4011,6.4231,6.4916,6.5687,6.6347,6.6347,6.6898,6.7535,6.7535,6.7627,6.77,6.77,6.77,6.77,6.77,6.77,6.77,6.77,6.77,6.77,6.77,6.77,6.77,6.77,6.77,6.77,6.77,6.77,6.77,6.77,6.77,6.77,6.77,6.77,6.77,6.77,6.77,6.77,6.77,6.77,6.77,6.77,6.77,6.77,6.77,6.77,6.77,6.77,6.77,6.77,6.77,6.77,6.77,6.77,6.77,6.77,6.77,6.77,6.8109,6.8752,6.8752,6.9229,7.0036,7.083,7.1711,7.2496,6.5904,6.5904,6.5904,6.5904,6.5904,6.5904,6.5904,6.5904,6.5904,6.5904,6.5637,6.5362,6.5122,6.4407,6.3734,6.3203,6.3144,6.3044,6.2823,6.2793,6.2793,6.2793,6.2793,6.2793,6.2793,6.2793,6.2793,6.2793,6.2793,6.2793,6.2793,6.2793,6.2793,6.2793,6.2793,6.2793,6.2793,6.2793,6.2793,6.2793,6.2793,6.2793,6.2793,6.2793,6.2793,6.2866,6.3356,6.3521,6.3649,6.4494,6.5063,6.5503,6.587,6.6512,6.7168,6.7168,6.7425,6.77,6.77,6.77,6.77,6.77,6.77,6.77,6.77,6.77,6.77,6.77,6.77,6.77,6.77,6.77,6.77,6.77,6.77,6.77,6.77,6.77,6.77,6.77,6.77,6.77,6.77,6.77,6.77,6.77,6.77,6.77,6.77,6.77,6.77,6.77,6.77,6.77,6.77,6.77,6.77,6.77,6.77,6.77,6.77,6.77,6.77,6.77,6.77,6.77,6.7737,6.8183,6.8586,6.8953,6.9394,7.0055,7.0866,7.1656,7.2202,7.2496]}]]